<?xml version="1.0" encoding="UTF-8" standalone="no" ?>
<gpx xmlns="http://www.topografix.com/GPX/1/1" xmlns:xsi="http://www.w3.org/2001/XMLSchema-instance" xsi:schemaLocation="http://www.topografix.com/GPX/1/1 http://www.topografix.com/GPX/1/1/gpx.xsd" version="1.1" creator="VisuGPX - https://www.visugpx.com">
  <metadata>
    <name>VTT, 26.20 km le 25_08_2021 Bgs St germain Moulin Osmoy</name>
  </metadata>
  <trk>
    <name><![CDATA[VTT, 26.20 km le 25_08_2021 bgs sr germain moulin osmoy on AllTrails]]></name>
    <trkseg>
      <trkpt lat="47.0674" lon="2.40717">
        <ele>149</ele>
        <time>2021-08-25T14:06:31Z</time>
      </trkpt>
      <trkpt lat="47.0674" lon="2.40718">
        <ele>149</ele>
        <time>2021-08-25T14:06:31Z</time>
      </trkpt>
      <trkpt lat="47.06739" lon="2.40719">
        <ele>149</ele>
        <time>2021-08-25T14:06:31Z</time>
      </trkpt>
      <trkpt lat="47.06735" lon="2.40694">
        <ele>149</ele>
        <time>2021-08-25T14:06:31Z</time>
      </trkpt>
      <trkpt lat="47.06735" lon="2.40694">
        <ele>149</ele>
        <time>2021-08-25T14:06:31Z</time>
      </trkpt>
      <trkpt lat="47.06735" lon="2.40694">
        <ele>149</ele>
        <time>2021-08-25T14:06:31Z</time>
      </trkpt>
      <trkpt lat="47.06735" lon="2.40694">
        <ele>149</ele>
        <time>2021-08-25T14:06:31Z</time>
      </trkpt>
      <trkpt lat="47.06735" lon="2.40694">
        <ele>149</ele>
        <time>2021-08-25T14:06:31Z</time>
      </trkpt>
      <trkpt lat="47.06735" lon="2.40694">
        <ele>149</ele>
        <time>2021-08-25T14:06:31Z</time>
      </trkpt>
      <trkpt lat="47.06735" lon="2.40695">
        <ele>149</ele>
        <time>2021-08-25T14:06:31Z</time>
      </trkpt>
      <trkpt lat="47.06735" lon="2.40694">
        <ele>149</ele>
        <time>2021-08-25T14:06:31Z</time>
      </trkpt>
      <trkpt lat="47.06735" lon="2.40694">
        <ele>149</ele>
        <time>2021-08-25T14:06:31Z</time>
      </trkpt>
      <trkpt lat="47.06734" lon="2.40694">
        <ele>149</ele>
        <time>2021-08-25T14:06:31Z</time>
      </trkpt>
      <trkpt lat="47.06734" lon="2.40694">
        <ele>149</ele>
        <time>2021-08-25T14:06:31Z</time>
      </trkpt>
      <trkpt lat="47.06734" lon="2.40694">
        <ele>149</ele>
        <time>2021-08-25T14:06:31Z</time>
      </trkpt>
      <trkpt lat="47.06734" lon="2.40694">
        <ele>149</ele>
        <time>2021-08-25T14:06:31Z</time>
      </trkpt>
      <trkpt lat="47.06734" lon="2.40694">
        <ele>149</ele>
        <time>2021-08-25T14:06:31Z</time>
      </trkpt>
      <trkpt lat="47.06734" lon="2.40694">
        <ele>149</ele>
        <time>2021-08-25T14:06:31Z</time>
      </trkpt>
      <trkpt lat="47.06734" lon="2.40694">
        <ele>149</ele>
        <time>2021-08-25T14:06:31Z</time>
      </trkpt>
      <trkpt lat="47.06733" lon="2.40694">
        <ele>149</ele>
        <time>2021-08-25T14:06:31Z</time>
      </trkpt>
      <trkpt lat="47.06733" lon="2.40694">
        <ele>149</ele>
        <time>2021-08-25T14:06:31Z</time>
      </trkpt>
      <trkpt lat="47.06733" lon="2.40693">
        <ele>149</ele>
        <time>2021-08-25T14:06:31Z</time>
      </trkpt>
      <trkpt lat="47.06733" lon="2.40692">
        <ele>149</ele>
        <time>2021-08-25T14:06:31Z</time>
      </trkpt>
      <trkpt lat="47.06733" lon="2.40693">
        <ele>149</ele>
        <time>2021-08-25T14:06:31Z</time>
      </trkpt>
      <trkpt lat="47.06733" lon="2.40693">
        <ele>149</ele>
        <time>2021-08-25T14:06:31Z</time>
      </trkpt>
      <trkpt lat="47.06733" lon="2.40693">
        <ele>149</ele>
        <time>2021-08-25T14:06:31Z</time>
      </trkpt>
      <trkpt lat="47.06733" lon="2.40693">
        <ele>149</ele>
        <time>2021-08-25T14:06:31Z</time>
      </trkpt>
      <trkpt lat="47.06733" lon="2.40684">
        <ele>149</ele>
        <time>2021-08-25T14:06:31Z</time>
      </trkpt>
      <trkpt lat="47.06745" lon="2.40675">
        <ele>149</ele>
        <time>2021-08-25T14:06:31Z</time>
      </trkpt>
      <trkpt lat="47.06756" lon="2.40668">
        <ele>149</ele>
        <time>2021-08-25T14:06:31Z</time>
      </trkpt>
      <trkpt lat="47.06758" lon="2.40667">
        <ele>149</ele>
        <time>2021-08-25T14:06:31Z</time>
      </trkpt>
      <trkpt lat="47.06758" lon="2.40667">
        <ele>149</ele>
        <time>2021-08-25T14:06:31Z</time>
      </trkpt>
      <trkpt lat="47.06758" lon="2.40667">
        <ele>149</ele>
        <time>2021-08-25T14:06:31Z</time>
      </trkpt>
      <trkpt lat="47.06758" lon="2.40667">
        <ele>149</ele>
        <time>2021-08-25T14:06:31Z</time>
      </trkpt>
      <trkpt lat="47.06758" lon="2.40668">
        <ele>149</ele>
        <time>2021-08-25T14:06:31Z</time>
      </trkpt>
      <trkpt lat="47.06759" lon="2.40668">
        <ele>149</ele>
        <time>2021-08-25T14:06:31Z</time>
      </trkpt>
      <trkpt lat="47.0676" lon="2.40668">
        <ele>149</ele>
        <time>2021-08-25T14:06:31Z</time>
      </trkpt>
      <trkpt lat="47.06761" lon="2.40667">
        <ele>149</ele>
        <time>2021-08-25T14:06:31Z</time>
      </trkpt>
      <trkpt lat="47.06762" lon="2.40666">
        <ele>149</ele>
        <time>2021-08-25T14:06:31Z</time>
      </trkpt>
      <trkpt lat="47.06763" lon="2.40665">
        <ele>149</ele>
        <time>2021-08-25T14:06:31Z</time>
      </trkpt>
      <trkpt lat="47.06767" lon="2.40664">
        <ele>149</ele>
        <time>2021-08-25T14:06:31Z</time>
      </trkpt>
      <trkpt lat="47.06771" lon="2.40664">
        <ele>149</ele>
        <time>2021-08-25T14:06:31Z</time>
      </trkpt>
      <trkpt lat="47.06775" lon="2.40662">
        <ele>149</ele>
        <time>2021-08-25T14:06:31Z</time>
      </trkpt>
      <trkpt lat="47.06779" lon="2.4066">
        <ele>149</ele>
        <time>2021-08-25T14:06:31Z</time>
      </trkpt>
      <trkpt lat="47.06784" lon="2.40658">
        <ele>149</ele>
        <time>2021-08-25T14:06:31Z</time>
      </trkpt>
      <trkpt lat="47.06788" lon="2.40655">
        <ele>149</ele>
        <time>2021-08-25T14:06:31Z</time>
      </trkpt>
      <trkpt lat="47.06792" lon="2.40653">
        <ele>149</ele>
        <time>2021-08-25T14:06:31Z</time>
      </trkpt>
      <trkpt lat="47.06797" lon="2.40651">
        <ele>149</ele>
        <time>2021-08-25T14:06:31Z</time>
      </trkpt>
      <trkpt lat="47.06802" lon="2.40648">
        <ele>149</ele>
        <time>2021-08-25T14:06:31Z</time>
      </trkpt>
      <trkpt lat="47.06807" lon="2.40646">
        <ele>149</ele>
        <time>2021-08-25T14:06:31Z</time>
      </trkpt>
      <trkpt lat="47.06813" lon="2.40642">
        <ele>148</ele>
        <time>2021-08-25T14:06:31Z</time>
      </trkpt>
      <trkpt lat="47.06818" lon="2.40638">
        <ele>148</ele>
        <time>2021-08-25T14:06:31Z</time>
      </trkpt>
      <trkpt lat="47.06823" lon="2.40635">
        <ele>147</ele>
        <time>2021-08-25T14:06:31Z</time>
      </trkpt>
      <trkpt lat="47.06829" lon="2.40632">
        <ele>147</ele>
        <time>2021-08-25T14:06:31Z</time>
      </trkpt>
      <trkpt lat="47.06834" lon="2.40629">
        <ele>146</ele>
        <time>2021-08-25T14:06:31Z</time>
      </trkpt>
      <trkpt lat="47.06839" lon="2.40627">
        <ele>146</ele>
        <time>2021-08-25T14:06:31Z</time>
      </trkpt>
      <trkpt lat="47.06844" lon="2.40623">
        <ele>146</ele>
        <time>2021-08-25T14:06:31Z</time>
      </trkpt>
      <trkpt lat="47.06849" lon="2.4062">
        <ele>146</ele>
        <time>2021-08-25T14:06:31Z</time>
      </trkpt>
      <trkpt lat="47.06854" lon="2.40617">
        <ele>146</ele>
        <time>2021-08-25T14:06:31Z</time>
      </trkpt>
      <trkpt lat="47.06857" lon="2.40615">
        <ele>146</ele>
        <time>2021-08-25T14:06:31Z</time>
      </trkpt>
      <trkpt lat="47.06861" lon="2.40614">
        <ele>146</ele>
        <time>2021-08-25T14:06:31Z</time>
      </trkpt>
      <trkpt lat="47.06871" lon="2.40632">
        <ele>146</ele>
        <time>2021-08-25T14:06:31Z</time>
      </trkpt>
      <trkpt lat="47.06873" lon="2.40658">
        <ele>145</ele>
        <time>2021-08-25T14:06:31Z</time>
      </trkpt>
      <trkpt lat="47.06878" lon="2.40688">
        <ele>145</ele>
        <time>2021-08-25T14:06:31Z</time>
      </trkpt>
      <trkpt lat="47.06886" lon="2.40722">
        <ele>146</ele>
        <time>2021-08-25T14:06:31Z</time>
      </trkpt>
      <trkpt lat="47.06894" lon="2.40757">
        <ele>148</ele>
        <time>2021-08-25T14:06:31Z</time>
      </trkpt>
      <trkpt lat="47.069" lon="2.40784">
        <ele>149</ele>
        <time>2021-08-25T14:06:31Z</time>
      </trkpt>
      <trkpt lat="47.06901" lon="2.40792">
        <ele>149</ele>
        <time>2021-08-25T14:06:31Z</time>
      </trkpt>
      <trkpt lat="47.06908" lon="2.40827">
        <ele>150</ele>
        <time>2021-08-25T14:06:31Z</time>
      </trkpt>
      <trkpt lat="47.06915" lon="2.40866">
        <ele>150</ele>
        <time>2021-08-25T14:06:31Z</time>
      </trkpt>
      <trkpt lat="47.06922" lon="2.40902">
        <ele>151</ele>
        <time>2021-08-25T14:06:31Z</time>
      </trkpt>
      <trkpt lat="47.06928" lon="2.40932">
        <ele>152</ele>
        <time>2021-08-25T14:06:31Z</time>
      </trkpt>
      <trkpt lat="47.06909" lon="2.40944">
        <ele>152</ele>
        <time>2021-08-25T14:06:31Z</time>
      </trkpt>
      <trkpt lat="47.06888" lon="2.40957">
        <ele>152</ele>
        <time>2021-08-25T14:06:31Z</time>
      </trkpt>
      <trkpt lat="47.06882" lon="2.4096">
        <ele>152</ele>
        <time>2021-08-25T14:06:31Z</time>
      </trkpt>
      <trkpt lat="47.06852" lon="2.40976">
        <ele>153</ele>
        <time>2021-08-25T14:06:31Z</time>
      </trkpt>
      <trkpt lat="47.06822" lon="2.40992">
        <ele>154</ele>
        <time>2021-08-25T14:06:31Z</time>
      </trkpt>
      <trkpt lat="47.068" lon="2.41007">
        <ele>153</ele>
        <time>2021-08-25T14:06:31Z</time>
      </trkpt>
      <trkpt lat="47.06807" lon="2.4104">
        <ele>154</ele>
        <time>2021-08-25T14:06:31Z</time>
      </trkpt>
      <trkpt lat="47.06822" lon="2.41069">
        <ele>154</ele>
        <time>2021-08-25T14:06:31Z</time>
      </trkpt>
      <trkpt lat="47.06835" lon="2.41096">
        <ele>153</ele>
        <time>2021-08-25T14:06:31Z</time>
      </trkpt>
      <trkpt lat="47.06838" lon="2.41102">
        <ele>153</ele>
        <time>2021-08-25T14:06:31Z</time>
      </trkpt>
      <trkpt lat="47.06859" lon="2.41135">
        <ele>154</ele>
        <time>2021-08-25T14:06:31Z</time>
      </trkpt>
      <trkpt lat="47.06877" lon="2.41168">
        <ele>156</ele>
        <time>2021-08-25T14:06:31Z</time>
      </trkpt>
      <trkpt lat="47.06897" lon="2.41203">
        <ele>156</ele>
        <time>2021-08-25T14:06:31Z</time>
      </trkpt>
      <trkpt lat="47.06916" lon="2.41239">
        <ele>155</ele>
        <time>2021-08-25T14:06:31Z</time>
      </trkpt>
      <trkpt lat="47.06933" lon="2.41275">
        <ele>154</ele>
        <time>2021-08-25T14:06:31Z</time>
      </trkpt>
      <trkpt lat="47.06948" lon="2.41305">
        <ele>156</ele>
        <time>2021-08-25T14:06:31Z</time>
      </trkpt>
      <trkpt lat="47.06952" lon="2.41312">
        <ele>156</ele>
        <time>2021-08-25T14:06:31Z</time>
      </trkpt>
      <trkpt lat="47.06968" lon="2.41349">
        <ele>157</ele>
        <time>2021-08-25T14:06:31Z</time>
      </trkpt>
      <trkpt lat="47.06983" lon="2.41378">
        <ele>156</ele>
        <time>2021-08-25T14:06:31Z</time>
      </trkpt>
      <trkpt lat="47.06986" lon="2.41387">
        <ele>156</ele>
        <time>2021-08-25T14:06:31Z</time>
      </trkpt>
      <trkpt lat="47.06989" lon="2.41403">
        <ele>156</ele>
        <time>2021-08-25T14:06:31Z</time>
      </trkpt>
      <trkpt lat="47.07" lon="2.41397">
        <ele>156</ele>
        <time>2021-08-25T14:06:31Z</time>
      </trkpt>
      <trkpt lat="47.07015" lon="2.41378">
        <ele>156</ele>
        <time>2021-08-25T14:06:31Z</time>
      </trkpt>
      <trkpt lat="47.07019" lon="2.41373">
        <ele>156</ele>
        <time>2021-08-25T14:06:31Z</time>
      </trkpt>
      <trkpt lat="47.07038" lon="2.41347">
        <ele>157</ele>
        <time>2021-08-25T14:06:31Z</time>
      </trkpt>
      <trkpt lat="47.07059" lon="2.41323">
        <ele>157</ele>
        <time>2021-08-25T14:06:31Z</time>
      </trkpt>
      <trkpt lat="47.07081" lon="2.41298">
        <ele>156</ele>
        <time>2021-08-25T14:06:31Z</time>
      </trkpt>
      <trkpt lat="47.07102" lon="2.41271">
        <ele>156</ele>
        <time>2021-08-25T14:06:31Z</time>
      </trkpt>
      <trkpt lat="47.07125" lon="2.41244">
        <ele>156</ele>
        <time>2021-08-25T14:06:31Z</time>
      </trkpt>
      <trkpt lat="47.07142" lon="2.41221">
        <ele>157</ele>
        <time>2021-08-25T14:06:31Z</time>
      </trkpt>
      <trkpt lat="47.07145" lon="2.41216">
        <ele>157</ele>
        <time>2021-08-25T14:06:31Z</time>
      </trkpt>
      <trkpt lat="47.07155" lon="2.41206">
        <ele>157</ele>
        <time>2021-08-25T14:06:31Z</time>
      </trkpt>
      <trkpt lat="47.07159" lon="2.412">
        <ele>157</ele>
        <time>2021-08-25T14:06:31Z</time>
      </trkpt>
      <trkpt lat="47.07163" lon="2.41195">
        <ele>157</ele>
        <time>2021-08-25T14:06:31Z</time>
      </trkpt>
      <trkpt lat="47.07168" lon="2.41189">
        <ele>158</ele>
        <time>2021-08-25T14:06:31Z</time>
      </trkpt>
      <trkpt lat="47.07173" lon="2.41184">
        <ele>158</ele>
        <time>2021-08-25T14:06:31Z</time>
      </trkpt>
      <trkpt lat="47.07177" lon="2.41178">
        <ele>158</ele>
        <time>2021-08-25T14:06:31Z</time>
      </trkpt>
      <trkpt lat="47.07181" lon="2.41172">
        <ele>158</ele>
        <time>2021-08-25T14:06:31Z</time>
      </trkpt>
      <trkpt lat="47.07185" lon="2.41166">
        <ele>158</ele>
        <time>2021-08-25T14:06:31Z</time>
      </trkpt>
      <trkpt lat="47.0719" lon="2.4116">
        <ele>158</ele>
        <time>2021-08-25T14:06:31Z</time>
      </trkpt>
      <trkpt lat="47.07194" lon="2.41156">
        <ele>158</ele>
        <time>2021-08-25T14:06:31Z</time>
      </trkpt>
      <trkpt lat="47.07198" lon="2.41152">
        <ele>157</ele>
        <time>2021-08-25T14:06:31Z</time>
      </trkpt>
      <trkpt lat="47.07202" lon="2.41147">
        <ele>157</ele>
        <time>2021-08-25T14:06:31Z</time>
      </trkpt>
      <trkpt lat="47.07207" lon="2.41142">
        <ele>157</ele>
        <time>2021-08-25T14:06:31Z</time>
      </trkpt>
      <trkpt lat="47.07212" lon="2.41137">
        <ele>157</ele>
        <time>2021-08-25T14:06:31Z</time>
      </trkpt>
      <trkpt lat="47.07216" lon="2.41133">
        <ele>157</ele>
        <time>2021-08-25T14:06:31Z</time>
      </trkpt>
      <trkpt lat="47.0722" lon="2.41128">
        <ele>157</ele>
        <time>2021-08-25T14:06:31Z</time>
      </trkpt>
      <trkpt lat="47.07224" lon="2.41123">
        <ele>157</ele>
        <time>2021-08-25T14:06:31Z</time>
      </trkpt>
      <trkpt lat="47.07229" lon="2.41119">
        <ele>157</ele>
        <time>2021-08-25T14:06:31Z</time>
      </trkpt>
      <trkpt lat="47.07233" lon="2.41117">
        <ele>157</ele>
        <time>2021-08-25T14:06:31Z</time>
      </trkpt>
      <trkpt lat="47.07239" lon="2.41118">
        <ele>157</ele>
        <time>2021-08-25T14:06:31Z</time>
      </trkpt>
      <trkpt lat="47.07245" lon="2.41121">
        <ele>157</ele>
        <time>2021-08-25T14:06:31Z</time>
      </trkpt>
      <trkpt lat="47.07249" lon="2.41127">
        <ele>157</ele>
        <time>2021-08-25T14:06:31Z</time>
      </trkpt>
      <trkpt lat="47.07253" lon="2.41134">
        <ele>157</ele>
        <time>2021-08-25T14:06:31Z</time>
      </trkpt>
      <trkpt lat="47.07257" lon="2.41142">
        <ele>157</ele>
        <time>2021-08-25T14:06:31Z</time>
      </trkpt>
      <trkpt lat="47.07261" lon="2.41147">
        <ele>157</ele>
        <time>2021-08-25T14:06:31Z</time>
      </trkpt>
      <trkpt lat="47.07264" lon="2.41153">
        <ele>157</ele>
        <time>2021-08-25T14:06:31Z</time>
      </trkpt>
      <trkpt lat="47.07268" lon="2.4116">
        <ele>157</ele>
        <time>2021-08-25T14:06:31Z</time>
      </trkpt>
      <trkpt lat="47.07272" lon="2.41167">
        <ele>157</ele>
        <time>2021-08-25T14:06:31Z</time>
      </trkpt>
      <trkpt lat="47.07277" lon="2.41174">
        <ele>157</ele>
        <time>2021-08-25T14:06:31Z</time>
      </trkpt>
      <trkpt lat="47.0728" lon="2.41181">
        <ele>156</ele>
        <time>2021-08-25T14:06:31Z</time>
      </trkpt>
      <trkpt lat="47.07284" lon="2.41188">
        <ele>156</ele>
        <time>2021-08-25T14:06:31Z</time>
      </trkpt>
      <trkpt lat="47.07288" lon="2.41194">
        <ele>156</ele>
        <time>2021-08-25T14:06:31Z</time>
      </trkpt>
      <trkpt lat="47.07291" lon="2.412">
        <ele>155</ele>
        <time>2021-08-25T14:06:31Z</time>
      </trkpt>
      <trkpt lat="47.07295" lon="2.41206">
        <ele>155</ele>
        <time>2021-08-25T14:06:31Z</time>
      </trkpt>
      <trkpt lat="47.07298" lon="2.41213">
        <ele>155</ele>
        <time>2021-08-25T14:06:31Z</time>
      </trkpt>
      <trkpt lat="47.07301" lon="2.41219">
        <ele>154</ele>
        <time>2021-08-25T14:06:31Z</time>
      </trkpt>
      <trkpt lat="47.07305" lon="2.41226">
        <ele>154</ele>
        <time>2021-08-25T14:06:31Z</time>
      </trkpt>
      <trkpt lat="47.07309" lon="2.41232">
        <ele>154</ele>
        <time>2021-08-25T14:06:31Z</time>
      </trkpt>
      <trkpt lat="47.07312" lon="2.4124">
        <ele>154</ele>
        <time>2021-08-25T14:06:31Z</time>
      </trkpt>
      <trkpt lat="47.07316" lon="2.41246">
        <ele>154</ele>
        <time>2021-08-25T14:06:31Z</time>
      </trkpt>
      <trkpt lat="47.0732" lon="2.41254">
        <ele>153</ele>
        <time>2021-08-25T14:06:31Z</time>
      </trkpt>
      <trkpt lat="47.07323" lon="2.4126">
        <ele>153</ele>
        <time>2021-08-25T14:06:31Z</time>
      </trkpt>
      <trkpt lat="47.07327" lon="2.41267">
        <ele>153</ele>
        <time>2021-08-25T14:06:31Z</time>
      </trkpt>
      <trkpt lat="47.07331" lon="2.41275">
        <ele>153</ele>
        <time>2021-08-25T14:06:31Z</time>
      </trkpt>
      <trkpt lat="47.07336" lon="2.41281">
        <ele>153</ele>
        <time>2021-08-25T14:06:31Z</time>
      </trkpt>
      <trkpt lat="47.07339" lon="2.41288">
        <ele>153</ele>
        <time>2021-08-25T14:06:31Z</time>
      </trkpt>
      <trkpt lat="47.07343" lon="2.41295">
        <ele>153</ele>
        <time>2021-08-25T14:06:31Z</time>
      </trkpt>
      <trkpt lat="47.07347" lon="2.41303">
        <ele>153</ele>
        <time>2021-08-25T14:06:31Z</time>
      </trkpt>
      <trkpt lat="47.07351" lon="2.4131">
        <ele>153</ele>
        <time>2021-08-25T14:06:31Z</time>
      </trkpt>
      <trkpt lat="47.07354" lon="2.41317">
        <ele>153</ele>
        <time>2021-08-25T14:06:31Z</time>
      </trkpt>
      <trkpt lat="47.07359" lon="2.41324">
        <ele>153</ele>
        <time>2021-08-25T14:06:31Z</time>
      </trkpt>
      <trkpt lat="47.07363" lon="2.41331">
        <ele>153</ele>
        <time>2021-08-25T14:06:31Z</time>
      </trkpt>
      <trkpt lat="47.07367" lon="2.41337">
        <ele>153</ele>
        <time>2021-08-25T14:06:31Z</time>
      </trkpt>
      <trkpt lat="47.0737" lon="2.41345">
        <ele>153</ele>
        <time>2021-08-25T14:06:31Z</time>
      </trkpt>
      <trkpt lat="47.07374" lon="2.41352">
        <ele>153</ele>
        <time>2021-08-25T14:06:31Z</time>
      </trkpt>
      <trkpt lat="47.07378" lon="2.41358">
        <ele>153</ele>
        <time>2021-08-25T14:06:31Z</time>
      </trkpt>
      <trkpt lat="47.07384" lon="2.41366">
        <ele>153</ele>
        <time>2021-08-25T14:06:31Z</time>
      </trkpt>
      <trkpt lat="47.07388" lon="2.41373">
        <ele>153</ele>
        <time>2021-08-25T14:06:31Z</time>
      </trkpt>
      <trkpt lat="47.07392" lon="2.4138">
        <ele>153</ele>
        <time>2021-08-25T14:06:31Z</time>
      </trkpt>
      <trkpt lat="47.07395" lon="2.41386">
        <ele>153</ele>
        <time>2021-08-25T14:06:31Z</time>
      </trkpt>
      <trkpt lat="47.07398" lon="2.41393">
        <ele>153</ele>
        <time>2021-08-25T14:06:31Z</time>
      </trkpt>
      <trkpt lat="47.07412" lon="2.4142">
        <ele>152</ele>
        <time>2021-08-25T14:06:31Z</time>
      </trkpt>
      <trkpt lat="47.07415" lon="2.41435">
        <ele>152</ele>
        <time>2021-08-25T14:06:31Z</time>
      </trkpt>
      <trkpt lat="47.07423" lon="2.41445">
        <ele>151</ele>
        <time>2021-08-25T14:06:31Z</time>
      </trkpt>
      <trkpt lat="47.07435" lon="2.41466">
        <ele>151</ele>
        <time>2021-08-25T14:06:31Z</time>
      </trkpt>
      <trkpt lat="47.07452" lon="2.41496">
        <ele>151</ele>
        <time>2021-08-25T14:06:31Z</time>
      </trkpt>
      <trkpt lat="47.07467" lon="2.41523">
        <ele>151</ele>
        <time>2021-08-25T14:06:31Z</time>
      </trkpt>
      <trkpt lat="47.0747" lon="2.4153">
        <ele>151</ele>
        <time>2021-08-25T14:06:31Z</time>
      </trkpt>
      <trkpt lat="47.0749" lon="2.41566">
        <ele>151</ele>
        <time>2021-08-25T14:06:31Z</time>
      </trkpt>
      <trkpt lat="47.07509" lon="2.416">
        <ele>151</ele>
        <time>2021-08-25T14:06:31Z</time>
      </trkpt>
      <trkpt lat="47.07528" lon="2.41638">
        <ele>151</ele>
        <time>2021-08-25T14:06:31Z</time>
      </trkpt>
      <trkpt lat="47.07548" lon="2.41669">
        <ele>150</ele>
        <time>2021-08-25T14:06:31Z</time>
      </trkpt>
      <trkpt lat="47.07566" lon="2.41701">
        <ele>150</ele>
        <time>2021-08-25T14:06:31Z</time>
      </trkpt>
      <trkpt lat="47.07578" lon="2.41724">
        <ele>149</ele>
        <time>2021-08-25T14:06:31Z</time>
      </trkpt>
      <trkpt lat="47.07579" lon="2.41725">
        <ele>149</ele>
        <time>2021-08-25T14:06:31Z</time>
      </trkpt>
      <trkpt lat="47.07593" lon="2.41724">
        <ele>149</ele>
        <time>2021-08-25T14:06:31Z</time>
      </trkpt>
      <trkpt lat="47.07604" lon="2.41741">
        <ele>149</ele>
        <time>2021-08-25T14:06:31Z</time>
      </trkpt>
      <trkpt lat="47.07618" lon="2.41753">
        <ele>149</ele>
        <time>2021-08-25T14:06:31Z</time>
      </trkpt>
      <trkpt lat="47.07628" lon="2.4177">
        <ele>149</ele>
        <time>2021-08-25T14:06:31Z</time>
      </trkpt>
      <trkpt lat="47.07632" lon="2.41781">
        <ele>149</ele>
        <time>2021-08-25T14:06:31Z</time>
      </trkpt>
      <trkpt lat="47.07634" lon="2.41788">
        <ele>149</ele>
        <time>2021-08-25T14:06:31Z</time>
      </trkpt>
      <trkpt lat="47.07636" lon="2.41795">
        <ele>149</ele>
        <time>2021-08-25T14:06:31Z</time>
      </trkpt>
      <trkpt lat="47.0764" lon="2.418">
        <ele>148</ele>
        <time>2021-08-25T14:06:31Z</time>
      </trkpt>
      <trkpt lat="47.07643" lon="2.41806">
        <ele>148</ele>
        <time>2021-08-25T14:06:31Z</time>
      </trkpt>
      <trkpt lat="47.07646" lon="2.41811">
        <ele>148</ele>
        <time>2021-08-25T14:06:31Z</time>
      </trkpt>
      <trkpt lat="47.07648" lon="2.41816">
        <ele>148</ele>
        <time>2021-08-25T14:06:31Z</time>
      </trkpt>
      <trkpt lat="47.0765" lon="2.4182">
        <ele>148</ele>
        <time>2021-08-25T14:06:31Z</time>
      </trkpt>
      <trkpt lat="47.07664" lon="2.41814">
        <ele>147</ele>
        <time>2021-08-25T14:06:31Z</time>
      </trkpt>
      <trkpt lat="47.07681" lon="2.41788">
        <ele>147</ele>
        <time>2021-08-25T14:06:31Z</time>
      </trkpt>
      <trkpt lat="47.07701" lon="2.41763">
        <ele>147</ele>
        <time>2021-08-25T14:06:31Z</time>
      </trkpt>
      <trkpt lat="47.0772" lon="2.41741">
        <ele>146</ele>
        <time>2021-08-25T14:06:31Z</time>
      </trkpt>
      <trkpt lat="47.07735" lon="2.41725">
        <ele>145</ele>
        <time>2021-08-25T14:06:31Z</time>
      </trkpt>
      <trkpt lat="47.0775" lon="2.41705">
        <ele>144</ele>
        <time>2021-08-25T14:06:31Z</time>
      </trkpt>
      <trkpt lat="47.07755" lon="2.417">
        <ele>144</ele>
        <time>2021-08-25T14:06:31Z</time>
      </trkpt>
      <trkpt lat="47.0778" lon="2.41673">
        <ele>144</ele>
        <time>2021-08-25T14:06:31Z</time>
      </trkpt>
      <trkpt lat="47.07801" lon="2.41643">
        <ele>145</ele>
        <time>2021-08-25T14:06:31Z</time>
      </trkpt>
      <trkpt lat="47.07815" lon="2.41625">
        <ele>144</ele>
        <time>2021-08-25T14:06:31Z</time>
      </trkpt>
      <trkpt lat="47.0782" lon="2.4162">
        <ele>144</ele>
        <time>2021-08-25T14:06:31Z</time>
      </trkpt>
      <trkpt lat="47.07823" lon="2.41613">
        <ele>144</ele>
        <time>2021-08-25T14:06:31Z</time>
      </trkpt>
      <trkpt lat="47.07826" lon="2.41606">
        <ele>144</ele>
        <time>2021-08-25T14:06:31Z</time>
      </trkpt>
      <trkpt lat="47.07831" lon="2.416">
        <ele>144</ele>
        <time>2021-08-25T14:06:31Z</time>
      </trkpt>
      <trkpt lat="47.07837" lon="2.41594">
        <ele>144</ele>
        <time>2021-08-25T14:06:31Z</time>
      </trkpt>
      <trkpt lat="47.07842" lon="2.41588">
        <ele>143</ele>
        <time>2021-08-25T14:06:31Z</time>
      </trkpt>
      <trkpt lat="47.07847" lon="2.41582">
        <ele>143</ele>
        <time>2021-08-25T14:06:31Z</time>
      </trkpt>
      <trkpt lat="47.07852" lon="2.41576">
        <ele>143</ele>
        <time>2021-08-25T14:06:31Z</time>
      </trkpt>
      <trkpt lat="47.07869" lon="2.4155">
        <ele>142</ele>
        <time>2021-08-25T14:06:31Z</time>
      </trkpt>
      <trkpt lat="47.07889" lon="2.41549">
        <ele>141</ele>
        <time>2021-08-25T14:06:31Z</time>
      </trkpt>
      <trkpt lat="47.07915" lon="2.41552">
        <ele>141</ele>
        <time>2021-08-25T14:06:31Z</time>
      </trkpt>
      <trkpt lat="47.07944" lon="2.41541">
        <ele>143</ele>
        <time>2021-08-25T14:06:31Z</time>
      </trkpt>
      <trkpt lat="47.07975" lon="2.41527">
        <ele>144</ele>
        <time>2021-08-25T14:06:31Z</time>
      </trkpt>
      <trkpt lat="47.07996" lon="2.41514">
        <ele>144</ele>
        <time>2021-08-25T14:06:31Z</time>
      </trkpt>
      <trkpt lat="47.08002" lon="2.41512">
        <ele>143</ele>
        <time>2021-08-25T14:06:31Z</time>
      </trkpt>
      <trkpt lat="47.08028" lon="2.41501">
        <ele>142</ele>
        <time>2021-08-25T14:06:31Z</time>
      </trkpt>
      <trkpt lat="47.08055" lon="2.41489">
        <ele>139</ele>
        <time>2021-08-25T14:06:31Z</time>
      </trkpt>
      <trkpt lat="47.08083" lon="2.41474">
        <ele>138</ele>
        <time>2021-08-25T14:06:31Z</time>
      </trkpt>
      <trkpt lat="47.08112" lon="2.41458">
        <ele>139</ele>
        <time>2021-08-25T14:06:31Z</time>
      </trkpt>
      <trkpt lat="47.08141" lon="2.41446">
        <ele>138</ele>
        <time>2021-08-25T14:06:31Z</time>
      </trkpt>
      <trkpt lat="47.08166" lon="2.41437">
        <ele>138</ele>
        <time>2021-08-25T14:06:31Z</time>
      </trkpt>
      <trkpt lat="47.08172" lon="2.41434">
        <ele>137</ele>
        <time>2021-08-25T14:06:31Z</time>
      </trkpt>
      <trkpt lat="47.08199" lon="2.41422">
        <ele>137</ele>
        <time>2021-08-25T14:06:31Z</time>
      </trkpt>
      <trkpt lat="47.08222" lon="2.41415">
        <ele>137</ele>
        <time>2021-08-25T14:06:31Z</time>
      </trkpt>
      <trkpt lat="47.08236" lon="2.41421">
        <ele>138</ele>
        <time>2021-08-25T14:06:31Z</time>
      </trkpt>
      <trkpt lat="47.08244" lon="2.41455">
        <ele>139</ele>
        <time>2021-08-25T14:06:31Z</time>
      </trkpt>
      <trkpt lat="47.08253" lon="2.41494">
        <ele>138</ele>
        <time>2021-08-25T14:06:31Z</time>
      </trkpt>
      <trkpt lat="47.08261" lon="2.41528">
        <ele>138</ele>
        <time>2021-08-25T14:06:31Z</time>
      </trkpt>
      <trkpt lat="47.08263" lon="2.41536">
        <ele>138</ele>
        <time>2021-08-25T14:06:31Z</time>
      </trkpt>
      <trkpt lat="47.08272" lon="2.41571">
        <ele>138</ele>
        <time>2021-08-25T14:06:31Z</time>
      </trkpt>
      <trkpt lat="47.08279" lon="2.41599">
        <ele>139</ele>
        <time>2021-08-25T14:06:31Z</time>
      </trkpt>
      <trkpt lat="47.08285" lon="2.41635">
        <ele>139</ele>
        <time>2021-08-25T14:06:31Z</time>
      </trkpt>
      <trkpt lat="47.08294" lon="2.41676">
        <ele>138</ele>
        <time>2021-08-25T14:06:31Z</time>
      </trkpt>
      <trkpt lat="47.08303" lon="2.41718">
        <ele>140</ele>
        <time>2021-08-25T14:06:31Z</time>
      </trkpt>
      <trkpt lat="47.08311" lon="2.4175">
        <ele>141</ele>
        <time>2021-08-25T14:06:31Z</time>
      </trkpt>
      <trkpt lat="47.08313" lon="2.41758">
        <ele>141</ele>
        <time>2021-08-25T14:06:31Z</time>
      </trkpt>
      <trkpt lat="47.08314" lon="2.41765">
        <ele>140</ele>
        <time>2021-08-25T14:06:31Z</time>
      </trkpt>
      <trkpt lat="47.08316" lon="2.41772">
        <ele>140</ele>
        <time>2021-08-25T14:06:31Z</time>
      </trkpt>
      <trkpt lat="47.08318" lon="2.4178">
        <ele>140</ele>
        <time>2021-08-25T14:06:31Z</time>
      </trkpt>
      <trkpt lat="47.0832" lon="2.41788">
        <ele>139</ele>
        <time>2021-08-25T14:06:31Z</time>
      </trkpt>
      <trkpt lat="47.08321" lon="2.41795">
        <ele>139</ele>
        <time>2021-08-25T14:06:31Z</time>
      </trkpt>
      <trkpt lat="47.08322" lon="2.41802">
        <ele>139</ele>
        <time>2021-08-25T14:06:31Z</time>
      </trkpt>
      <trkpt lat="47.08324" lon="2.4181">
        <ele>139</ele>
        <time>2021-08-25T14:06:31Z</time>
      </trkpt>
      <trkpt lat="47.08326" lon="2.41817">
        <ele>139</ele>
        <time>2021-08-25T14:06:31Z</time>
      </trkpt>
      <trkpt lat="47.08327" lon="2.41827">
        <ele>139</ele>
        <time>2021-08-25T14:06:31Z</time>
      </trkpt>
      <trkpt lat="47.08329" lon="2.41835">
        <ele>139</ele>
        <time>2021-08-25T14:06:31Z</time>
      </trkpt>
      <trkpt lat="47.0833" lon="2.41842">
        <ele>139</ele>
        <time>2021-08-25T14:06:31Z</time>
      </trkpt>
      <trkpt lat="47.08332" lon="2.41849">
        <ele>139</ele>
        <time>2021-08-25T14:06:31Z</time>
      </trkpt>
      <trkpt lat="47.08333" lon="2.41857">
        <ele>139</ele>
        <time>2021-08-25T14:06:31Z</time>
      </trkpt>
      <trkpt lat="47.08333" lon="2.41864">
        <ele>138</ele>
        <time>2021-08-25T14:06:31Z</time>
      </trkpt>
      <trkpt lat="47.08335" lon="2.41872">
        <ele>138</ele>
        <time>2021-08-25T14:06:31Z</time>
      </trkpt>
      <trkpt lat="47.08336" lon="2.41879">
        <ele>138</ele>
        <time>2021-08-25T14:06:31Z</time>
      </trkpt>
      <trkpt lat="47.08338" lon="2.41886">
        <ele>137</ele>
        <time>2021-08-25T14:06:31Z</time>
      </trkpt>
      <trkpt lat="47.08339" lon="2.41894">
        <ele>137</ele>
        <time>2021-08-25T14:06:31Z</time>
      </trkpt>
      <trkpt lat="47.08341" lon="2.41901">
        <ele>136</ele>
        <time>2021-08-25T14:06:31Z</time>
      </trkpt>
      <trkpt lat="47.08342" lon="2.41908">
        <ele>135</ele>
        <time>2021-08-25T14:06:31Z</time>
      </trkpt>
      <trkpt lat="47.08344" lon="2.41916">
        <ele>135</ele>
        <time>2021-08-25T14:06:31Z</time>
      </trkpt>
      <trkpt lat="47.08346" lon="2.41922">
        <ele>135</ele>
        <time>2021-08-25T14:06:31Z</time>
      </trkpt>
      <trkpt lat="47.08349" lon="2.41926">
        <ele>134</ele>
        <time>2021-08-25T14:06:31Z</time>
      </trkpt>
      <trkpt lat="47.08351" lon="2.41929">
        <ele>134</ele>
        <time>2021-08-25T14:06:31Z</time>
      </trkpt>
      <trkpt lat="47.08354" lon="2.41932">
        <ele>134</ele>
        <time>2021-08-25T14:06:31Z</time>
      </trkpt>
      <trkpt lat="47.08355" lon="2.41936">
        <ele>134</ele>
        <time>2021-08-25T14:06:31Z</time>
      </trkpt>
      <trkpt lat="47.08355" lon="2.41941">
        <ele>134</ele>
        <time>2021-08-25T14:06:31Z</time>
      </trkpt>
      <trkpt lat="47.08356" lon="2.41945">
        <ele>134</ele>
        <time>2021-08-25T14:06:31Z</time>
      </trkpt>
      <trkpt lat="47.08357" lon="2.41949">
        <ele>134</ele>
        <time>2021-08-25T14:06:31Z</time>
      </trkpt>
      <trkpt lat="47.08357" lon="2.41949">
        <ele>134</ele>
        <time>2021-08-25T14:06:31Z</time>
      </trkpt>
      <trkpt lat="47.08357" lon="2.41951">
        <ele>134</ele>
        <time>2021-08-25T14:06:31Z</time>
      </trkpt>
      <trkpt lat="47.08358" lon="2.41954">
        <ele>134</ele>
        <time>2021-08-25T14:06:31Z</time>
      </trkpt>
      <trkpt lat="47.08358" lon="2.41957">
        <ele>134</ele>
        <time>2021-08-25T14:06:31Z</time>
      </trkpt>
      <trkpt lat="47.08358" lon="2.4196">
        <ele>134</ele>
        <time>2021-08-25T14:06:31Z</time>
      </trkpt>
      <trkpt lat="47.08358" lon="2.41963">
        <ele>134</ele>
        <time>2021-08-25T14:06:31Z</time>
      </trkpt>
      <trkpt lat="47.08358" lon="2.41965">
        <ele>134</ele>
        <time>2021-08-25T14:06:31Z</time>
      </trkpt>
      <trkpt lat="47.08358" lon="2.41967">
        <ele>134</ele>
        <time>2021-08-25T14:06:31Z</time>
      </trkpt>
      <trkpt lat="47.0836" lon="2.41968">
        <ele>134</ele>
        <time>2021-08-25T14:06:31Z</time>
      </trkpt>
      <trkpt lat="47.08362" lon="2.41968">
        <ele>133</ele>
        <time>2021-08-25T14:06:31Z</time>
      </trkpt>
      <trkpt lat="47.08365" lon="2.41967">
        <ele>133</ele>
        <time>2021-08-25T14:06:31Z</time>
      </trkpt>
      <trkpt lat="47.08368" lon="2.41965">
        <ele>133</ele>
        <time>2021-08-25T14:06:31Z</time>
      </trkpt>
      <trkpt lat="47.08371" lon="2.41963">
        <ele>133</ele>
        <time>2021-08-25T14:06:31Z</time>
      </trkpt>
      <trkpt lat="47.08373" lon="2.41962">
        <ele>133</ele>
        <time>2021-08-25T14:06:31Z</time>
      </trkpt>
      <trkpt lat="47.08376" lon="2.41961">
        <ele>133</ele>
        <time>2021-08-25T14:06:31Z</time>
      </trkpt>
      <trkpt lat="47.08378" lon="2.41962">
        <ele>133</ele>
        <time>2021-08-25T14:06:31Z</time>
      </trkpt>
      <trkpt lat="47.0838" lon="2.41965">
        <ele>133</ele>
        <time>2021-08-25T14:06:31Z</time>
      </trkpt>
      <trkpt lat="47.08384" lon="2.41969">
        <ele>133</ele>
        <time>2021-08-25T14:06:31Z</time>
      </trkpt>
      <trkpt lat="47.0839" lon="2.41971">
        <ele>133</ele>
        <time>2021-08-25T14:06:31Z</time>
      </trkpt>
      <trkpt lat="47.08395" lon="2.41976">
        <ele>133</ele>
        <time>2021-08-25T14:06:31Z</time>
      </trkpt>
      <trkpt lat="47.084" lon="2.41982">
        <ele>133</ele>
        <time>2021-08-25T14:06:31Z</time>
      </trkpt>
      <trkpt lat="47.08405" lon="2.41986">
        <ele>132</ele>
        <time>2021-08-25T14:06:31Z</time>
      </trkpt>
      <trkpt lat="47.08409" lon="2.41991">
        <ele>132</ele>
        <time>2021-08-25T14:06:31Z</time>
      </trkpt>
      <trkpt lat="47.08415" lon="2.41996">
        <ele>132</ele>
        <time>2021-08-25T14:06:31Z</time>
      </trkpt>
      <trkpt lat="47.0842" lon="2.42001">
        <ele>131</ele>
        <time>2021-08-25T14:06:31Z</time>
      </trkpt>
      <trkpt lat="47.08425" lon="2.42006">
        <ele>131</ele>
        <time>2021-08-25T14:06:31Z</time>
      </trkpt>
      <trkpt lat="47.08431" lon="2.42011">
        <ele>131</ele>
        <time>2021-08-25T14:06:31Z</time>
      </trkpt>
      <trkpt lat="47.08437" lon="2.42016">
        <ele>131</ele>
        <time>2021-08-25T14:06:31Z</time>
      </trkpt>
      <trkpt lat="47.08442" lon="2.42019">
        <ele>131</ele>
        <time>2021-08-25T14:06:31Z</time>
      </trkpt>
      <trkpt lat="47.08448" lon="2.42023">
        <ele>131</ele>
        <time>2021-08-25T14:06:31Z</time>
      </trkpt>
      <trkpt lat="47.08454" lon="2.42028">
        <ele>130</ele>
        <time>2021-08-25T14:06:31Z</time>
      </trkpt>
      <trkpt lat="47.0846" lon="2.4203">
        <ele>130</ele>
        <time>2021-08-25T14:06:31Z</time>
      </trkpt>
      <trkpt lat="47.08493" lon="2.42046">
        <ele>129</ele>
        <time>2021-08-25T14:06:31Z</time>
      </trkpt>
      <trkpt lat="47.08523" lon="2.42056">
        <ele>129</ele>
        <time>2021-08-25T14:06:31Z</time>
      </trkpt>
      <trkpt lat="47.08556" lon="2.42064">
        <ele>129</ele>
        <time>2021-08-25T14:06:31Z</time>
      </trkpt>
      <trkpt lat="47.08588" lon="2.42073">
        <ele>129</ele>
        <time>2021-08-25T14:06:31Z</time>
      </trkpt>
      <trkpt lat="47.08621" lon="2.4208">
        <ele>130</ele>
        <time>2021-08-25T14:06:31Z</time>
      </trkpt>
      <trkpt lat="47.08645" lon="2.42085">
        <ele>130</ele>
        <time>2021-08-25T14:06:31Z</time>
      </trkpt>
      <trkpt lat="47.0865" lon="2.42085">
        <ele>130</ele>
        <time>2021-08-25T14:06:31Z</time>
      </trkpt>
      <trkpt lat="47.08682" lon="2.42091">
        <ele>129</ele>
        <time>2021-08-25T14:06:31Z</time>
      </trkpt>
      <trkpt lat="47.08714" lon="2.42098">
        <ele>128</ele>
        <time>2021-08-25T14:06:31Z</time>
      </trkpt>
      <trkpt lat="47.08744" lon="2.42106">
        <ele>127</ele>
        <time>2021-08-25T14:06:31Z</time>
      </trkpt>
      <trkpt lat="47.08776" lon="2.42113">
        <ele>126</ele>
        <time>2021-08-25T14:06:31Z</time>
      </trkpt>
      <trkpt lat="47.08806" lon="2.42119">
        <ele>127</ele>
        <time>2021-08-25T14:06:31Z</time>
      </trkpt>
      <trkpt lat="47.08832" lon="2.42124">
        <ele>127</ele>
        <time>2021-08-25T14:06:31Z</time>
      </trkpt>
      <trkpt lat="47.08838" lon="2.42127">
        <ele>127</ele>
        <time>2021-08-25T14:06:31Z</time>
      </trkpt>
      <trkpt lat="47.08867" lon="2.42134">
        <ele>126</ele>
        <time>2021-08-25T14:06:31Z</time>
      </trkpt>
      <trkpt lat="47.08897" lon="2.42149">
        <ele>126</ele>
        <time>2021-08-25T14:06:31Z</time>
      </trkpt>
      <trkpt lat="47.08929" lon="2.42157">
        <ele>126</ele>
        <time>2021-08-25T14:06:31Z</time>
      </trkpt>
      <trkpt lat="47.0896" lon="2.42166">
        <ele>127</ele>
        <time>2021-08-25T14:06:31Z</time>
      </trkpt>
      <trkpt lat="47.0899" lon="2.42175">
        <ele>128</ele>
        <time>2021-08-25T14:06:31Z</time>
      </trkpt>
      <trkpt lat="47.09009" lon="2.42179">
        <ele>129</ele>
        <time>2021-08-25T14:06:31Z</time>
      </trkpt>
      <trkpt lat="47.09013" lon="2.42179">
        <ele>129</ele>
        <time>2021-08-25T14:06:31Z</time>
      </trkpt>
      <trkpt lat="47.09035" lon="2.42178">
        <ele>129</ele>
        <time>2021-08-25T14:06:31Z</time>
      </trkpt>
      <trkpt lat="47.09057" lon="2.42182">
        <ele>130</ele>
        <time>2021-08-25T14:06:31Z</time>
      </trkpt>
      <trkpt lat="47.09085" lon="2.42189">
        <ele>131</ele>
        <time>2021-08-25T14:06:31Z</time>
      </trkpt>
      <trkpt lat="47.09113" lon="2.42196">
        <ele>134</ele>
        <time>2021-08-25T14:06:31Z</time>
      </trkpt>
      <trkpt lat="47.09138" lon="2.42204">
        <ele>134</ele>
        <time>2021-08-25T14:06:31Z</time>
      </trkpt>
      <trkpt lat="47.09152" lon="2.42214">
        <ele>135</ele>
        <time>2021-08-25T14:06:31Z</time>
      </trkpt>
      <trkpt lat="47.09152" lon="2.4222">
        <ele>135</ele>
        <time>2021-08-25T14:06:31Z</time>
      </trkpt>
      <trkpt lat="47.0915" lon="2.42226">
        <ele>135</ele>
        <time>2021-08-25T14:06:31Z</time>
      </trkpt>
      <trkpt lat="47.0915" lon="2.42233">
        <ele>135</ele>
        <time>2021-08-25T14:06:31Z</time>
      </trkpt>
      <trkpt lat="47.09149" lon="2.4224">
        <ele>135</ele>
        <time>2021-08-25T14:06:31Z</time>
      </trkpt>
      <trkpt lat="47.09148" lon="2.42248">
        <ele>135</ele>
        <time>2021-08-25T14:06:31Z</time>
      </trkpt>
      <trkpt lat="47.09147" lon="2.42255">
        <ele>135</ele>
        <time>2021-08-25T14:06:31Z</time>
      </trkpt>
      <trkpt lat="47.09146" lon="2.42263">
        <ele>135</ele>
        <time>2021-08-25T14:06:31Z</time>
      </trkpt>
      <trkpt lat="47.09145" lon="2.42271">
        <ele>135</ele>
        <time>2021-08-25T14:06:31Z</time>
      </trkpt>
      <trkpt lat="47.09145" lon="2.42279">
        <ele>135</ele>
        <time>2021-08-25T14:06:31Z</time>
      </trkpt>
      <trkpt lat="47.09141" lon="2.42286">
        <ele>135</ele>
        <time>2021-08-25T14:06:31Z</time>
      </trkpt>
      <trkpt lat="47.09138" lon="2.42291">
        <ele>135</ele>
        <time>2021-08-25T14:06:31Z</time>
      </trkpt>
      <trkpt lat="47.09133" lon="2.42296">
        <ele>135</ele>
        <time>2021-08-25T14:06:31Z</time>
      </trkpt>
      <trkpt lat="47.09127" lon="2.42299">
        <ele>134</ele>
        <time>2021-08-25T14:06:31Z</time>
      </trkpt>
      <trkpt lat="47.09121" lon="2.42302">
        <ele>134</ele>
        <time>2021-08-25T14:06:31Z</time>
      </trkpt>
      <trkpt lat="47.09116" lon="2.42304">
        <ele>134</ele>
        <time>2021-08-25T14:06:31Z</time>
      </trkpt>
      <trkpt lat="47.0911" lon="2.42308">
        <ele>134</ele>
        <time>2021-08-25T14:06:31Z</time>
      </trkpt>
      <trkpt lat="47.09105" lon="2.42311">
        <ele>133</ele>
        <time>2021-08-25T14:06:31Z</time>
      </trkpt>
      <trkpt lat="47.09099" lon="2.42314">
        <ele>133</ele>
        <time>2021-08-25T14:06:31Z</time>
      </trkpt>
      <trkpt lat="47.09094" lon="2.42317">
        <ele>133</ele>
        <time>2021-08-25T14:06:31Z</time>
      </trkpt>
      <trkpt lat="47.09088" lon="2.4232">
        <ele>133</ele>
        <time>2021-08-25T14:06:31Z</time>
      </trkpt>
      <trkpt lat="47.09082" lon="2.42322">
        <ele>133</ele>
        <time>2021-08-25T14:06:31Z</time>
      </trkpt>
      <trkpt lat="47.09076" lon="2.42325">
        <ele>133</ele>
        <time>2021-08-25T14:06:31Z</time>
      </trkpt>
      <trkpt lat="47.0907" lon="2.42328">
        <ele>133</ele>
        <time>2021-08-25T14:06:31Z</time>
      </trkpt>
      <trkpt lat="47.09064" lon="2.42332">
        <ele>133</ele>
        <time>2021-08-25T14:06:31Z</time>
      </trkpt>
      <trkpt lat="47.09059" lon="2.42339">
        <ele>134</ele>
        <time>2021-08-25T14:06:31Z</time>
      </trkpt>
      <trkpt lat="47.09057" lon="2.42348">
        <ele>135</ele>
        <time>2021-08-25T14:06:31Z</time>
      </trkpt>
      <trkpt lat="47.09055" lon="2.42356">
        <ele>135</ele>
        <time>2021-08-25T14:06:31Z</time>
      </trkpt>
      <trkpt lat="47.09056" lon="2.42366">
        <ele>136</ele>
        <time>2021-08-25T14:06:31Z</time>
      </trkpt>
      <trkpt lat="47.09055" lon="2.42374">
        <ele>136</ele>
        <time>2021-08-25T14:06:31Z</time>
      </trkpt>
      <trkpt lat="47.09055" lon="2.42383">
        <ele>137</ele>
        <time>2021-08-25T14:06:31Z</time>
      </trkpt>
      <trkpt lat="47.09056" lon="2.42391">
        <ele>137</ele>
        <time>2021-08-25T14:06:31Z</time>
      </trkpt>
      <trkpt lat="47.09056" lon="2.42399">
        <ele>137</ele>
        <time>2021-08-25T14:06:31Z</time>
      </trkpt>
      <trkpt lat="47.09056" lon="2.42407">
        <ele>137</ele>
        <time>2021-08-25T14:06:31Z</time>
      </trkpt>
      <trkpt lat="47.09056" lon="2.42415">
        <ele>137</ele>
        <time>2021-08-25T14:06:31Z</time>
      </trkpt>
      <trkpt lat="47.09057" lon="2.42423">
        <ele>137</ele>
        <time>2021-08-25T14:06:31Z</time>
      </trkpt>
      <trkpt lat="47.09056" lon="2.42432">
        <ele>137</ele>
        <time>2021-08-25T14:06:31Z</time>
      </trkpt>
      <trkpt lat="47.09056" lon="2.4244">
        <ele>137</ele>
        <time>2021-08-25T14:06:31Z</time>
      </trkpt>
      <trkpt lat="47.09057" lon="2.42449">
        <ele>136</ele>
        <time>2021-08-25T14:06:31Z</time>
      </trkpt>
      <trkpt lat="47.09056" lon="2.42457">
        <ele>136</ele>
        <time>2021-08-25T14:06:31Z</time>
      </trkpt>
      <trkpt lat="47.09056" lon="2.42465">
        <ele>136</ele>
        <time>2021-08-25T14:06:31Z</time>
      </trkpt>
      <trkpt lat="47.09056" lon="2.42474">
        <ele>136</ele>
        <time>2021-08-25T14:06:31Z</time>
      </trkpt>
      <trkpt lat="47.09056" lon="2.42482">
        <ele>136</ele>
        <time>2021-08-25T14:06:31Z</time>
      </trkpt>
      <trkpt lat="47.09055" lon="2.42491">
        <ele>135</ele>
        <time>2021-08-25T14:06:31Z</time>
      </trkpt>
      <trkpt lat="47.09052" lon="2.42499">
        <ele>135</ele>
        <time>2021-08-25T14:06:31Z</time>
      </trkpt>
      <trkpt lat="47.0905" lon="2.42507">
        <ele>135</ele>
        <time>2021-08-25T14:06:31Z</time>
      </trkpt>
      <trkpt lat="47.09049" lon="2.42516">
        <ele>135</ele>
        <time>2021-08-25T14:06:31Z</time>
      </trkpt>
      <trkpt lat="47.09048" lon="2.42524">
        <ele>135</ele>
        <time>2021-08-25T14:06:31Z</time>
      </trkpt>
      <trkpt lat="47.09048" lon="2.42534">
        <ele>135</ele>
        <time>2021-08-25T14:06:31Z</time>
      </trkpt>
      <trkpt lat="47.09047" lon="2.42541">
        <ele>135</ele>
        <time>2021-08-25T14:06:31Z</time>
      </trkpt>
      <trkpt lat="47.09047" lon="2.42548">
        <ele>135</ele>
        <time>2021-08-25T14:06:31Z</time>
      </trkpt>
      <trkpt lat="47.09047" lon="2.42556">
        <ele>135</ele>
        <time>2021-08-25T14:06:31Z</time>
      </trkpt>
      <trkpt lat="47.09047" lon="2.42565">
        <ele>136</ele>
        <time>2021-08-25T14:06:31Z</time>
      </trkpt>
      <trkpt lat="47.09048" lon="2.42574">
        <ele>136</ele>
        <time>2021-08-25T14:06:31Z</time>
      </trkpt>
      <trkpt lat="47.09049" lon="2.42583">
        <ele>136</ele>
        <time>2021-08-25T14:06:31Z</time>
      </trkpt>
      <trkpt lat="47.0905" lon="2.42592">
        <ele>136</ele>
        <time>2021-08-25T14:06:31Z</time>
      </trkpt>
      <trkpt lat="47.09051" lon="2.42601">
        <ele>136</ele>
        <time>2021-08-25T14:06:31Z</time>
      </trkpt>
      <trkpt lat="47.0905" lon="2.4261">
        <ele>136</ele>
        <time>2021-08-25T14:06:31Z</time>
      </trkpt>
      <trkpt lat="47.09051" lon="2.42619">
        <ele>136</ele>
        <time>2021-08-25T14:06:31Z</time>
      </trkpt>
      <trkpt lat="47.0905" lon="2.42629">
        <ele>136</ele>
        <time>2021-08-25T14:06:31Z</time>
      </trkpt>
      <trkpt lat="47.0905" lon="2.42639">
        <ele>136</ele>
        <time>2021-08-25T14:06:31Z</time>
      </trkpt>
      <trkpt lat="47.09049" lon="2.42648">
        <ele>136</ele>
        <time>2021-08-25T14:06:31Z</time>
      </trkpt>
      <trkpt lat="47.09048" lon="2.42657">
        <ele>136</ele>
        <time>2021-08-25T14:06:31Z</time>
      </trkpt>
      <trkpt lat="47.09047" lon="2.42704">
        <ele>136</ele>
        <time>2021-08-25T14:06:31Z</time>
      </trkpt>
      <trkpt lat="47.09047" lon="2.42714">
        <ele>136</ele>
        <time>2021-08-25T14:06:31Z</time>
      </trkpt>
      <trkpt lat="47.09045" lon="2.42723">
        <ele>136</ele>
        <time>2021-08-25T14:06:31Z</time>
      </trkpt>
      <trkpt lat="47.09045" lon="2.42732">
        <ele>137</ele>
        <time>2021-08-25T14:06:31Z</time>
      </trkpt>
      <trkpt lat="47.09045" lon="2.4274">
        <ele>137</ele>
        <time>2021-08-25T14:06:31Z</time>
      </trkpt>
      <trkpt lat="47.09048" lon="2.4275">
        <ele>138</ele>
        <time>2021-08-25T14:06:31Z</time>
      </trkpt>
      <trkpt lat="47.09047" lon="2.42758">
        <ele>138</ele>
        <time>2021-08-25T14:06:31Z</time>
      </trkpt>
      <trkpt lat="47.09047" lon="2.42768">
        <ele>139</ele>
        <time>2021-08-25T14:06:31Z</time>
      </trkpt>
      <trkpt lat="47.09047" lon="2.42778">
        <ele>140</ele>
        <time>2021-08-25T14:06:31Z</time>
      </trkpt>
      <trkpt lat="47.09043" lon="2.42823">
        <ele>141</ele>
        <time>2021-08-25T14:06:31Z</time>
      </trkpt>
      <trkpt lat="47.09043" lon="2.42841">
        <ele>140</ele>
        <time>2021-08-25T14:06:31Z</time>
      </trkpt>
      <trkpt lat="47.0904" lon="2.4285">
        <ele>140</ele>
        <time>2021-08-25T14:06:31Z</time>
      </trkpt>
      <trkpt lat="47.0904" lon="2.42859">
        <ele>140</ele>
        <time>2021-08-25T14:06:31Z</time>
      </trkpt>
      <trkpt lat="47.0904" lon="2.42869">
        <ele>139</ele>
        <time>2021-08-25T14:06:31Z</time>
      </trkpt>
      <trkpt lat="47.0904" lon="2.42879">
        <ele>139</ele>
        <time>2021-08-25T14:06:31Z</time>
      </trkpt>
      <trkpt lat="47.0904" lon="2.42889">
        <ele>139</ele>
        <time>2021-08-25T14:06:31Z</time>
      </trkpt>
      <trkpt lat="47.09041" lon="2.42899">
        <ele>138</ele>
        <time>2021-08-25T14:06:31Z</time>
      </trkpt>
      <trkpt lat="47.09041" lon="2.42908">
        <ele>138</ele>
        <time>2021-08-25T14:06:31Z</time>
      </trkpt>
      <trkpt lat="47.09038" lon="2.42954">
        <ele>137</ele>
        <time>2021-08-25T14:06:31Z</time>
      </trkpt>
      <trkpt lat="47.09042" lon="2.43002">
        <ele>135</ele>
        <time>2021-08-25T14:06:31Z</time>
      </trkpt>
      <trkpt lat="47.09054" lon="2.43047">
        <ele>136</ele>
        <time>2021-08-25T14:06:31Z</time>
      </trkpt>
      <trkpt lat="47.09067" lon="2.43089">
        <ele>136</ele>
        <time>2021-08-25T14:06:31Z</time>
      </trkpt>
      <trkpt lat="47.09079" lon="2.43138">
        <ele>136</ele>
        <time>2021-08-25T14:06:31Z</time>
      </trkpt>
      <trkpt lat="47.09088" lon="2.43172">
        <ele>136</ele>
        <time>2021-08-25T14:06:31Z</time>
      </trkpt>
      <trkpt lat="47.09091" lon="2.4318">
        <ele>136</ele>
        <time>2021-08-25T14:06:31Z</time>
      </trkpt>
      <trkpt lat="47.09104" lon="2.43222">
        <ele>135</ele>
        <time>2021-08-25T14:06:31Z</time>
      </trkpt>
      <trkpt lat="47.09115" lon="2.43265">
        <ele>133</ele>
        <time>2021-08-25T14:06:31Z</time>
      </trkpt>
      <trkpt lat="47.09128" lon="2.43307">
        <ele>134</ele>
        <time>2021-08-25T14:06:31Z</time>
      </trkpt>
      <trkpt lat="47.09141" lon="2.43352">
        <ele>133</ele>
        <time>2021-08-25T14:06:31Z</time>
      </trkpt>
      <trkpt lat="47.09156" lon="2.43395">
        <ele>131</ele>
        <time>2021-08-25T14:06:31Z</time>
      </trkpt>
      <trkpt lat="47.09167" lon="2.4343">
        <ele>131</ele>
        <time>2021-08-25T14:06:31Z</time>
      </trkpt>
      <trkpt lat="47.0917" lon="2.4344">
        <ele>130</ele>
        <time>2021-08-25T14:06:31Z</time>
      </trkpt>
      <trkpt lat="47.09175" lon="2.43457">
        <ele>130</ele>
        <time>2021-08-25T14:06:31Z</time>
      </trkpt>
      <trkpt lat="47.09178" lon="2.43465">
        <ele>129</ele>
        <time>2021-08-25T14:06:31Z</time>
      </trkpt>
      <trkpt lat="47.09181" lon="2.43473">
        <ele>129</ele>
        <time>2021-08-25T14:06:31Z</time>
      </trkpt>
      <trkpt lat="47.09184" lon="2.43482">
        <ele>129</ele>
        <time>2021-08-25T14:06:31Z</time>
      </trkpt>
      <trkpt lat="47.09186" lon="2.4349">
        <ele>129</ele>
        <time>2021-08-25T14:06:31Z</time>
      </trkpt>
      <trkpt lat="47.09189" lon="2.43498">
        <ele>129</ele>
        <time>2021-08-25T14:06:31Z</time>
      </trkpt>
      <trkpt lat="47.09192" lon="2.43507">
        <ele>129</ele>
        <time>2021-08-25T14:06:31Z</time>
      </trkpt>
      <trkpt lat="47.09195" lon="2.43516">
        <ele>130</ele>
        <time>2021-08-25T14:06:31Z</time>
      </trkpt>
      <trkpt lat="47.09197" lon="2.43526">
        <ele>130</ele>
        <time>2021-08-25T14:06:31Z</time>
      </trkpt>
      <trkpt lat="47.092" lon="2.43536">
        <ele>130</ele>
        <time>2021-08-25T14:06:31Z</time>
      </trkpt>
      <trkpt lat="47.09204" lon="2.43544">
        <ele>131</ele>
        <time>2021-08-25T14:06:31Z</time>
      </trkpt>
      <trkpt lat="47.09209" lon="2.43553">
        <ele>131</ele>
        <time>2021-08-25T14:06:31Z</time>
      </trkpt>
      <trkpt lat="47.09211" lon="2.43561">
        <ele>131</ele>
        <time>2021-08-25T14:06:31Z</time>
      </trkpt>
      <trkpt lat="47.09214" lon="2.43568">
        <ele>131</ele>
        <time>2021-08-25T14:06:31Z</time>
      </trkpt>
      <trkpt lat="47.09216" lon="2.43577">
        <ele>131</ele>
        <time>2021-08-25T14:06:31Z</time>
      </trkpt>
      <trkpt lat="47.09219" lon="2.43585">
        <ele>131</ele>
        <time>2021-08-25T14:06:31Z</time>
      </trkpt>
      <trkpt lat="47.09221" lon="2.43593">
        <ele>131</ele>
        <time>2021-08-25T14:06:31Z</time>
      </trkpt>
      <trkpt lat="47.09224" lon="2.43601">
        <ele>132</ele>
        <time>2021-08-25T14:06:31Z</time>
      </trkpt>
      <trkpt lat="47.09226" lon="2.43608">
        <ele>132</ele>
        <time>2021-08-25T14:06:31Z</time>
      </trkpt>
      <trkpt lat="47.09228" lon="2.43616">
        <ele>132</ele>
        <time>2021-08-25T14:06:31Z</time>
      </trkpt>
      <trkpt lat="47.09231" lon="2.43624">
        <ele>131</ele>
        <time>2021-08-25T14:06:31Z</time>
      </trkpt>
      <trkpt lat="47.09234" lon="2.43633">
        <ele>131</ele>
        <time>2021-08-25T14:06:31Z</time>
      </trkpt>
      <trkpt lat="47.09236" lon="2.43642">
        <ele>131</ele>
        <time>2021-08-25T14:06:31Z</time>
      </trkpt>
      <trkpt lat="47.09239" lon="2.43651">
        <ele>131</ele>
        <time>2021-08-25T14:06:31Z</time>
      </trkpt>
      <trkpt lat="47.09241" lon="2.43659">
        <ele>131</ele>
        <time>2021-08-25T14:06:31Z</time>
      </trkpt>
      <trkpt lat="47.09244" lon="2.43666">
        <ele>132</ele>
        <time>2021-08-25T14:06:31Z</time>
      </trkpt>
      <trkpt lat="47.09246" lon="2.43675">
        <ele>132</ele>
        <time>2021-08-25T14:06:31Z</time>
      </trkpt>
      <trkpt lat="47.09249" lon="2.43685">
        <ele>132</ele>
        <time>2021-08-25T14:06:31Z</time>
      </trkpt>
      <trkpt lat="47.09251" lon="2.43694">
        <ele>133</ele>
        <time>2021-08-25T14:06:31Z</time>
      </trkpt>
      <trkpt lat="47.09254" lon="2.43701">
        <ele>132</ele>
        <time>2021-08-25T14:06:31Z</time>
      </trkpt>
      <trkpt lat="47.09257" lon="2.4371">
        <ele>132</ele>
        <time>2021-08-25T14:06:31Z</time>
      </trkpt>
      <trkpt lat="47.09259" lon="2.43719">
        <ele>131</ele>
        <time>2021-08-25T14:06:31Z</time>
      </trkpt>
      <trkpt lat="47.09262" lon="2.43728">
        <ele>131</ele>
        <time>2021-08-25T14:06:31Z</time>
      </trkpt>
      <trkpt lat="47.09265" lon="2.43736">
        <ele>131</ele>
        <time>2021-08-25T14:06:31Z</time>
      </trkpt>
      <trkpt lat="47.09267" lon="2.43744">
        <ele>131</ele>
        <time>2021-08-25T14:06:31Z</time>
      </trkpt>
      <trkpt lat="47.09269" lon="2.43752">
        <ele>131</ele>
        <time>2021-08-25T14:06:31Z</time>
      </trkpt>
      <trkpt lat="47.09272" lon="2.4376">
        <ele>131</ele>
        <time>2021-08-25T14:06:31Z</time>
      </trkpt>
      <trkpt lat="47.09274" lon="2.43768">
        <ele>131</ele>
        <time>2021-08-25T14:06:31Z</time>
      </trkpt>
      <trkpt lat="47.09276" lon="2.43776">
        <ele>131</ele>
        <time>2021-08-25T14:06:31Z</time>
      </trkpt>
      <trkpt lat="47.09279" lon="2.43785">
        <ele>131</ele>
        <time>2021-08-25T14:06:31Z</time>
      </trkpt>
      <trkpt lat="47.09282" lon="2.43794">
        <ele>132</ele>
        <time>2021-08-25T14:06:31Z</time>
      </trkpt>
      <trkpt lat="47.09284" lon="2.43803">
        <ele>132</ele>
        <time>2021-08-25T14:06:31Z</time>
      </trkpt>
      <trkpt lat="47.09287" lon="2.43811">
        <ele>132</ele>
        <time>2021-08-25T14:06:31Z</time>
      </trkpt>
      <trkpt lat="47.0929" lon="2.43821">
        <ele>132</ele>
        <time>2021-08-25T14:06:31Z</time>
      </trkpt>
      <trkpt lat="47.09292" lon="2.4383">
        <ele>132</ele>
        <time>2021-08-25T14:06:31Z</time>
      </trkpt>
      <trkpt lat="47.09295" lon="2.43839">
        <ele>132</ele>
        <time>2021-08-25T14:06:31Z</time>
      </trkpt>
      <trkpt lat="47.09298" lon="2.43848">
        <ele>132</ele>
        <time>2021-08-25T14:06:31Z</time>
      </trkpt>
      <trkpt lat="47.093" lon="2.43855">
        <ele>132</ele>
        <time>2021-08-25T14:06:31Z</time>
      </trkpt>
      <trkpt lat="47.09304" lon="2.43865">
        <ele>132</ele>
        <time>2021-08-25T14:06:31Z</time>
      </trkpt>
      <trkpt lat="47.09305" lon="2.43874">
        <ele>132</ele>
        <time>2021-08-25T14:06:31Z</time>
      </trkpt>
      <trkpt lat="47.09308" lon="2.43882">
        <ele>131</ele>
        <time>2021-08-25T14:06:31Z</time>
      </trkpt>
      <trkpt lat="47.0931" lon="2.43892">
        <ele>131</ele>
        <time>2021-08-25T14:06:31Z</time>
      </trkpt>
      <trkpt lat="47.09312" lon="2.43899">
        <ele>131</ele>
        <time>2021-08-25T14:06:31Z</time>
      </trkpt>
      <trkpt lat="47.09315" lon="2.43907">
        <ele>131</ele>
        <time>2021-08-25T14:06:31Z</time>
      </trkpt>
      <trkpt lat="47.09317" lon="2.43915">
        <ele>131</ele>
        <time>2021-08-25T14:06:31Z</time>
      </trkpt>
      <trkpt lat="47.0932" lon="2.43923">
        <ele>131</ele>
        <time>2021-08-25T14:06:31Z</time>
      </trkpt>
      <trkpt lat="47.09322" lon="2.43932">
        <ele>130</ele>
        <time>2021-08-25T14:06:31Z</time>
      </trkpt>
      <trkpt lat="47.09324" lon="2.4394">
        <ele>130</ele>
        <time>2021-08-25T14:06:31Z</time>
      </trkpt>
      <trkpt lat="47.09326" lon="2.43946">
        <ele>130</ele>
        <time>2021-08-25T14:06:31Z</time>
      </trkpt>
      <trkpt lat="47.09329" lon="2.43954">
        <ele>130</ele>
        <time>2021-08-25T14:06:31Z</time>
      </trkpt>
      <trkpt lat="47.09332" lon="2.43962">
        <ele>130</ele>
        <time>2021-08-25T14:06:31Z</time>
      </trkpt>
      <trkpt lat="47.09342" lon="2.44002">
        <ele>130</ele>
        <time>2021-08-25T14:06:31Z</time>
      </trkpt>
      <trkpt lat="47.09353" lon="2.44045">
        <ele>132</ele>
        <time>2021-08-25T14:06:31Z</time>
      </trkpt>
      <trkpt lat="47.09361" lon="2.44068">
        <ele>132</ele>
        <time>2021-08-25T14:06:31Z</time>
      </trkpt>
      <trkpt lat="47.09362" lon="2.44076">
        <ele>133</ele>
        <time>2021-08-25T14:06:31Z</time>
      </trkpt>
      <trkpt lat="47.09364" lon="2.44084">
        <ele>133</ele>
        <time>2021-08-25T14:06:31Z</time>
      </trkpt>
      <trkpt lat="47.09366" lon="2.4409">
        <ele>133</ele>
        <time>2021-08-25T14:06:31Z</time>
      </trkpt>
      <trkpt lat="47.09368" lon="2.441">
        <ele>133</ele>
        <time>2021-08-25T14:06:31Z</time>
      </trkpt>
      <trkpt lat="47.09369" lon="2.44107">
        <ele>133</ele>
        <time>2021-08-25T14:06:31Z</time>
      </trkpt>
      <trkpt lat="47.0937" lon="2.44114">
        <ele>134</ele>
        <time>2021-08-25T14:06:31Z</time>
      </trkpt>
      <trkpt lat="47.09371" lon="2.44121">
        <ele>134</ele>
        <time>2021-08-25T14:06:31Z</time>
      </trkpt>
      <trkpt lat="47.09364" lon="2.44158">
        <ele>134</ele>
        <time>2021-08-25T14:06:31Z</time>
      </trkpt>
      <trkpt lat="47.09357" lon="2.44204">
        <ele>132</ele>
        <time>2021-08-25T14:06:31Z</time>
      </trkpt>
      <trkpt lat="47.09353" lon="2.44253">
        <ele>131</ele>
        <time>2021-08-25T14:06:31Z</time>
      </trkpt>
      <trkpt lat="47.09348" lon="2.44308">
        <ele>130</ele>
        <time>2021-08-25T14:06:31Z</time>
      </trkpt>
      <trkpt lat="47.09338" lon="2.44359">
        <ele>130</ele>
        <time>2021-08-25T14:06:31Z</time>
      </trkpt>
      <trkpt lat="47.09328" lon="2.44403">
        <ele>131</ele>
        <time>2021-08-25T14:06:31Z</time>
      </trkpt>
      <trkpt lat="47.09325" lon="2.44411">
        <ele>131</ele>
        <time>2021-08-25T14:06:31Z</time>
      </trkpt>
      <trkpt lat="47.09315" lon="2.44462">
        <ele>131</ele>
        <time>2021-08-25T14:06:31Z</time>
      </trkpt>
      <trkpt lat="47.09303" lon="2.44512">
        <ele>132</ele>
        <time>2021-08-25T14:06:31Z</time>
      </trkpt>
      <trkpt lat="47.0929" lon="2.44562">
        <ele>133</ele>
        <time>2021-08-25T14:06:31Z</time>
      </trkpt>
      <trkpt lat="47.09276" lon="2.44607">
        <ele>134</ele>
        <time>2021-08-25T14:06:31Z</time>
      </trkpt>
      <trkpt lat="47.09262" lon="2.44655">
        <ele>135</ele>
        <time>2021-08-25T14:06:31Z</time>
      </trkpt>
      <trkpt lat="47.09255" lon="2.44693">
        <ele>133</ele>
        <time>2021-08-25T14:06:31Z</time>
      </trkpt>
      <trkpt lat="47.09254" lon="2.44702">
        <ele>133</ele>
        <time>2021-08-25T14:06:31Z</time>
      </trkpt>
      <trkpt lat="47.09252" lon="2.44722">
        <ele>132</ele>
        <time>2021-08-25T14:06:31Z</time>
      </trkpt>
      <trkpt lat="47.09251" lon="2.44732">
        <ele>131</ele>
        <time>2021-08-25T14:06:31Z</time>
      </trkpt>
      <trkpt lat="47.0925" lon="2.44742">
        <ele>131</ele>
        <time>2021-08-25T14:06:31Z</time>
      </trkpt>
      <trkpt lat="47.09249" lon="2.44751">
        <ele>130</ele>
        <time>2021-08-25T14:06:31Z</time>
      </trkpt>
      <trkpt lat="47.09249" lon="2.4476">
        <ele>130</ele>
        <time>2021-08-25T14:06:31Z</time>
      </trkpt>
      <trkpt lat="47.09247" lon="2.44769">
        <ele>130</ele>
        <time>2021-08-25T14:06:31Z</time>
      </trkpt>
      <trkpt lat="47.09248" lon="2.44779">
        <ele>130</ele>
        <time>2021-08-25T14:06:31Z</time>
      </trkpt>
      <trkpt lat="47.09247" lon="2.44786">
        <ele>130</ele>
        <time>2021-08-25T14:06:31Z</time>
      </trkpt>
      <trkpt lat="47.09246" lon="2.44793">
        <ele>130</ele>
        <time>2021-08-25T14:06:31Z</time>
      </trkpt>
      <trkpt lat="47.09247" lon="2.44802">
        <ele>130</ele>
        <time>2021-08-25T14:06:31Z</time>
      </trkpt>
      <trkpt lat="47.09247" lon="2.4481">
        <ele>130</ele>
        <time>2021-08-25T14:06:31Z</time>
      </trkpt>
      <trkpt lat="47.09248" lon="2.44819">
        <ele>130</ele>
        <time>2021-08-25T14:06:31Z</time>
      </trkpt>
      <trkpt lat="47.09248" lon="2.44828">
        <ele>130</ele>
        <time>2021-08-25T14:06:31Z</time>
      </trkpt>
      <trkpt lat="47.09248" lon="2.44837">
        <ele>131</ele>
        <time>2021-08-25T14:06:31Z</time>
      </trkpt>
      <trkpt lat="47.09249" lon="2.44847">
        <ele>131</ele>
        <time>2021-08-25T14:06:31Z</time>
      </trkpt>
      <trkpt lat="47.09248" lon="2.44855">
        <ele>131</ele>
        <time>2021-08-25T14:06:31Z</time>
      </trkpt>
      <trkpt lat="47.09248" lon="2.44864">
        <ele>131</ele>
        <time>2021-08-25T14:06:31Z</time>
      </trkpt>
      <trkpt lat="47.09248" lon="2.44873">
        <ele>131</ele>
        <time>2021-08-25T14:06:31Z</time>
      </trkpt>
      <trkpt lat="47.09248" lon="2.44881">
        <ele>131</ele>
        <time>2021-08-25T14:06:31Z</time>
      </trkpt>
      <trkpt lat="47.09249" lon="2.4489">
        <ele>131</ele>
        <time>2021-08-25T14:06:31Z</time>
      </trkpt>
      <trkpt lat="47.09248" lon="2.449">
        <ele>131</ele>
        <time>2021-08-25T14:06:31Z</time>
      </trkpt>
      <trkpt lat="47.09247" lon="2.4491">
        <ele>131</ele>
        <time>2021-08-25T14:06:31Z</time>
      </trkpt>
      <trkpt lat="47.09245" lon="2.44918">
        <ele>131</ele>
        <time>2021-08-25T14:06:31Z</time>
      </trkpt>
      <trkpt lat="47.09245" lon="2.44926">
        <ele>131</ele>
        <time>2021-08-25T14:06:31Z</time>
      </trkpt>
      <trkpt lat="47.09244" lon="2.44936">
        <ele>131</ele>
        <time>2021-08-25T14:06:31Z</time>
      </trkpt>
      <trkpt lat="47.09241" lon="2.44945">
        <ele>131</ele>
        <time>2021-08-25T14:06:31Z</time>
      </trkpt>
      <trkpt lat="47.0924" lon="2.44954">
        <ele>131</ele>
        <time>2021-08-25T14:06:31Z</time>
      </trkpt>
      <trkpt lat="47.09239" lon="2.44962">
        <ele>131</ele>
        <time>2021-08-25T14:06:31Z</time>
      </trkpt>
      <trkpt lat="47.09237" lon="2.44971">
        <ele>131</ele>
        <time>2021-08-25T14:06:31Z</time>
      </trkpt>
      <trkpt lat="47.09235" lon="2.44981">
        <ele>131</ele>
        <time>2021-08-25T14:06:31Z</time>
      </trkpt>
      <trkpt lat="47.09233" lon="2.4499">
        <ele>131</ele>
        <time>2021-08-25T14:06:31Z</time>
      </trkpt>
      <trkpt lat="47.09232" lon="2.45">
        <ele>131</ele>
        <time>2021-08-25T14:06:31Z</time>
      </trkpt>
      <trkpt lat="47.0923" lon="2.45009">
        <ele>131</ele>
        <time>2021-08-25T14:06:31Z</time>
      </trkpt>
      <trkpt lat="47.09228" lon="2.45018">
        <ele>131</ele>
        <time>2021-08-25T14:06:31Z</time>
      </trkpt>
      <trkpt lat="47.09227" lon="2.45027">
        <ele>132</ele>
        <time>2021-08-25T14:06:31Z</time>
      </trkpt>
      <trkpt lat="47.09225" lon="2.45037">
        <ele>132</ele>
        <time>2021-08-25T14:06:31Z</time>
      </trkpt>
      <trkpt lat="47.09225" lon="2.45045">
        <ele>132</ele>
        <time>2021-08-25T14:06:31Z</time>
      </trkpt>
      <trkpt lat="47.09226" lon="2.45055">
        <ele>133</ele>
        <time>2021-08-25T14:06:31Z</time>
      </trkpt>
      <trkpt lat="47.09225" lon="2.45064">
        <ele>133</ele>
        <time>2021-08-25T14:06:31Z</time>
      </trkpt>
      <trkpt lat="47.09225" lon="2.45074">
        <ele>133</ele>
        <time>2021-08-25T14:06:31Z</time>
      </trkpt>
      <trkpt lat="47.09225" lon="2.45083">
        <ele>133</ele>
        <time>2021-08-25T14:06:31Z</time>
      </trkpt>
      <trkpt lat="47.09225" lon="2.45091">
        <ele>133</ele>
        <time>2021-08-25T14:06:31Z</time>
      </trkpt>
      <trkpt lat="47.09226" lon="2.45101">
        <ele>134</ele>
        <time>2021-08-25T14:06:31Z</time>
      </trkpt>
      <trkpt lat="47.09226" lon="2.4511">
        <ele>134</ele>
        <time>2021-08-25T14:06:31Z</time>
      </trkpt>
      <trkpt lat="47.09225" lon="2.45119">
        <ele>135</ele>
        <time>2021-08-25T14:06:31Z</time>
      </trkpt>
      <trkpt lat="47.09225" lon="2.45127">
        <ele>135</ele>
        <time>2021-08-25T14:06:31Z</time>
      </trkpt>
      <trkpt lat="47.09225" lon="2.45135">
        <ele>135</ele>
        <time>2021-08-25T14:06:31Z</time>
      </trkpt>
      <trkpt lat="47.09225" lon="2.45144">
        <ele>136</ele>
        <time>2021-08-25T14:06:31Z</time>
      </trkpt>
      <trkpt lat="47.09224" lon="2.45153">
        <ele>136</ele>
        <time>2021-08-25T14:06:31Z</time>
      </trkpt>
      <trkpt lat="47.09224" lon="2.45162">
        <ele>136</ele>
        <time>2021-08-25T14:06:31Z</time>
      </trkpt>
      <trkpt lat="47.09222" lon="2.45205">
        <ele>134</ele>
        <time>2021-08-25T14:06:31Z</time>
      </trkpt>
      <trkpt lat="47.09218" lon="2.45249">
        <ele>133</ele>
        <time>2021-08-25T14:06:31Z</time>
      </trkpt>
      <trkpt lat="47.09215" lon="2.45295">
        <ele>134</ele>
        <time>2021-08-25T14:06:31Z</time>
      </trkpt>
      <trkpt lat="47.09211" lon="2.45337">
        <ele>134</ele>
        <time>2021-08-25T14:06:31Z</time>
      </trkpt>
      <trkpt lat="47.09209" lon="2.45383">
        <ele>134</ele>
        <time>2021-08-25T14:06:31Z</time>
      </trkpt>
      <trkpt lat="47.09206" lon="2.45419">
        <ele>133</ele>
        <time>2021-08-25T14:06:31Z</time>
      </trkpt>
      <trkpt lat="47.09204" lon="2.45428">
        <ele>133</ele>
        <time>2021-08-25T14:06:31Z</time>
      </trkpt>
      <trkpt lat="47.09202" lon="2.45474">
        <ele>132</ele>
        <time>2021-08-25T14:06:31Z</time>
      </trkpt>
      <trkpt lat="47.09202" lon="2.45518">
        <ele>132</ele>
        <time>2021-08-25T14:06:31Z</time>
      </trkpt>
      <trkpt lat="47.09202" lon="2.45557">
        <ele>133</ele>
        <time>2021-08-25T14:06:31Z</time>
      </trkpt>
      <trkpt lat="47.09205" lon="2.45597">
        <ele>134</ele>
        <time>2021-08-25T14:06:31Z</time>
      </trkpt>
      <trkpt lat="47.09207" lon="2.45636">
        <ele>133</ele>
        <time>2021-08-25T14:06:31Z</time>
      </trkpt>
      <trkpt lat="47.09209" lon="2.45668">
        <ele>133</ele>
        <time>2021-08-25T14:06:31Z</time>
      </trkpt>
      <trkpt lat="47.0921" lon="2.45677">
        <ele>133</ele>
        <time>2021-08-25T14:06:31Z</time>
      </trkpt>
      <trkpt lat="47.09212" lon="2.45721">
        <ele>134</ele>
        <time>2021-08-25T14:06:31Z</time>
      </trkpt>
      <trkpt lat="47.09214" lon="2.45765">
        <ele>135</ele>
        <time>2021-08-25T14:06:31Z</time>
      </trkpt>
      <trkpt lat="47.09217" lon="2.4581">
        <ele>134</ele>
        <time>2021-08-25T14:06:31Z</time>
      </trkpt>
      <trkpt lat="47.0922" lon="2.45855">
        <ele>132</ele>
        <time>2021-08-25T14:06:31Z</time>
      </trkpt>
      <trkpt lat="47.09224" lon="2.45902">
        <ele>132</ele>
        <time>2021-08-25T14:06:31Z</time>
      </trkpt>
      <trkpt lat="47.09226" lon="2.45939">
        <ele>132</ele>
        <time>2021-08-25T14:06:31Z</time>
      </trkpt>
      <trkpt lat="47.09227" lon="2.45948">
        <ele>132</ele>
        <time>2021-08-25T14:06:31Z</time>
      </trkpt>
      <trkpt lat="47.09228" lon="2.45958">
        <ele>131</ele>
        <time>2021-08-25T14:06:31Z</time>
      </trkpt>
      <trkpt lat="47.09229" lon="2.45967">
        <ele>131</ele>
        <time>2021-08-25T14:06:31Z</time>
      </trkpt>
      <trkpt lat="47.09229" lon="2.45976">
        <ele>131</ele>
        <time>2021-08-25T14:06:31Z</time>
      </trkpt>
      <trkpt lat="47.09231" lon="2.45986">
        <ele>131</ele>
        <time>2021-08-25T14:06:31Z</time>
      </trkpt>
      <trkpt lat="47.09232" lon="2.45995">
        <ele>131</ele>
        <time>2021-08-25T14:06:31Z</time>
      </trkpt>
      <trkpt lat="47.09233" lon="2.46005">
        <ele>131</ele>
        <time>2021-08-25T14:06:31Z</time>
      </trkpt>
      <trkpt lat="47.09234" lon="2.46014">
        <ele>131</ele>
        <time>2021-08-25T14:06:31Z</time>
      </trkpt>
      <trkpt lat="47.09236" lon="2.46023">
        <ele>131</ele>
        <time>2021-08-25T14:06:31Z</time>
      </trkpt>
      <trkpt lat="47.09238" lon="2.46032">
        <ele>131</ele>
        <time>2021-08-25T14:06:31Z</time>
      </trkpt>
      <trkpt lat="47.0924" lon="2.4604">
        <ele>131</ele>
        <time>2021-08-25T14:06:31Z</time>
      </trkpt>
      <trkpt lat="47.09243" lon="2.46047">
        <ele>131</ele>
        <time>2021-08-25T14:06:31Z</time>
      </trkpt>
      <trkpt lat="47.09245" lon="2.46055">
        <ele>131</ele>
        <time>2021-08-25T14:06:31Z</time>
      </trkpt>
      <trkpt lat="47.09246" lon="2.46063">
        <ele>132</ele>
        <time>2021-08-25T14:06:31Z</time>
      </trkpt>
      <trkpt lat="47.09248" lon="2.4607">
        <ele>132</ele>
        <time>2021-08-25T14:06:31Z</time>
      </trkpt>
      <trkpt lat="47.09251" lon="2.46079">
        <ele>132</ele>
        <time>2021-08-25T14:06:31Z</time>
      </trkpt>
      <trkpt lat="47.09254" lon="2.46087">
        <ele>133</ele>
        <time>2021-08-25T14:06:31Z</time>
      </trkpt>
      <trkpt lat="47.09256" lon="2.46096">
        <ele>133</ele>
        <time>2021-08-25T14:06:31Z</time>
      </trkpt>
      <trkpt lat="47.09259" lon="2.46104">
        <ele>133</ele>
        <time>2021-08-25T14:06:31Z</time>
      </trkpt>
      <trkpt lat="47.09262" lon="2.46114">
        <ele>133</ele>
        <time>2021-08-25T14:06:31Z</time>
      </trkpt>
      <trkpt lat="47.09265" lon="2.46121">
        <ele>134</ele>
        <time>2021-08-25T14:06:31Z</time>
      </trkpt>
      <trkpt lat="47.09266" lon="2.46129">
        <ele>134</ele>
        <time>2021-08-25T14:06:31Z</time>
      </trkpt>
      <trkpt lat="47.09268" lon="2.46138">
        <ele>134</ele>
        <time>2021-08-25T14:06:31Z</time>
      </trkpt>
      <trkpt lat="47.0927" lon="2.46145">
        <ele>134</ele>
        <time>2021-08-25T14:06:31Z</time>
      </trkpt>
      <trkpt lat="47.09272" lon="2.46153">
        <ele>134</ele>
        <time>2021-08-25T14:06:31Z</time>
      </trkpt>
      <trkpt lat="47.09275" lon="2.46162">
        <ele>134</ele>
        <time>2021-08-25T14:06:31Z</time>
      </trkpt>
      <trkpt lat="47.09277" lon="2.4617">
        <ele>135</ele>
        <time>2021-08-25T14:06:31Z</time>
      </trkpt>
      <trkpt lat="47.09279" lon="2.46179">
        <ele>135</ele>
        <time>2021-08-25T14:06:31Z</time>
      </trkpt>
      <trkpt lat="47.09283" lon="2.46188">
        <ele>136</ele>
        <time>2021-08-25T14:06:31Z</time>
      </trkpt>
      <trkpt lat="47.09285" lon="2.46197">
        <ele>136</ele>
        <time>2021-08-25T14:06:31Z</time>
      </trkpt>
      <trkpt lat="47.09288" lon="2.46205">
        <ele>136</ele>
        <time>2021-08-25T14:06:31Z</time>
      </trkpt>
      <trkpt lat="47.09291" lon="2.46214">
        <ele>136</ele>
        <time>2021-08-25T14:06:31Z</time>
      </trkpt>
      <trkpt lat="47.09292" lon="2.46221">
        <ele>136</ele>
        <time>2021-08-25T14:06:31Z</time>
      </trkpt>
      <trkpt lat="47.09294" lon="2.46227">
        <ele>136</ele>
        <time>2021-08-25T14:06:31Z</time>
      </trkpt>
      <trkpt lat="47.09296" lon="2.46233">
        <ele>137</ele>
        <time>2021-08-25T14:06:31Z</time>
      </trkpt>
      <trkpt lat="47.09298" lon="2.4624">
        <ele>137</ele>
        <time>2021-08-25T14:06:31Z</time>
      </trkpt>
      <trkpt lat="47.09299" lon="2.46246">
        <ele>137</ele>
        <time>2021-08-25T14:06:31Z</time>
      </trkpt>
      <trkpt lat="47.09301" lon="2.46252">
        <ele>137</ele>
        <time>2021-08-25T14:06:31Z</time>
      </trkpt>
      <trkpt lat="47.09302" lon="2.46258">
        <ele>137</ele>
        <time>2021-08-25T14:06:31Z</time>
      </trkpt>
      <trkpt lat="47.09305" lon="2.46265">
        <ele>137</ele>
        <time>2021-08-25T14:06:31Z</time>
      </trkpt>
      <trkpt lat="47.09307" lon="2.46273">
        <ele>137</ele>
        <time>2021-08-25T14:06:31Z</time>
      </trkpt>
      <trkpt lat="47.09308" lon="2.4628">
        <ele>136</ele>
        <time>2021-08-25T14:06:31Z</time>
      </trkpt>
      <trkpt lat="47.0931" lon="2.46288">
        <ele>136</ele>
        <time>2021-08-25T14:06:31Z</time>
      </trkpt>
      <trkpt lat="47.0931" lon="2.46296">
        <ele>136</ele>
        <time>2021-08-25T14:06:31Z</time>
      </trkpt>
      <trkpt lat="47.09311" lon="2.46304">
        <ele>136</ele>
        <time>2021-08-25T14:06:31Z</time>
      </trkpt>
      <trkpt lat="47.09313" lon="2.46312">
        <ele>136</ele>
        <time>2021-08-25T14:06:31Z</time>
      </trkpt>
      <trkpt lat="47.09314" lon="2.4632">
        <ele>136</ele>
        <time>2021-08-25T14:06:31Z</time>
      </trkpt>
      <trkpt lat="47.09316" lon="2.46329">
        <ele>136</ele>
        <time>2021-08-25T14:06:31Z</time>
      </trkpt>
      <trkpt lat="47.0932" lon="2.46338">
        <ele>135</ele>
        <time>2021-08-25T14:06:31Z</time>
      </trkpt>
      <trkpt lat="47.09323" lon="2.46346">
        <ele>135</ele>
        <time>2021-08-25T14:06:31Z</time>
      </trkpt>
      <trkpt lat="47.09324" lon="2.46356">
        <ele>135</ele>
        <time>2021-08-25T14:06:31Z</time>
      </trkpt>
      <trkpt lat="47.09326" lon="2.46364">
        <ele>135</ele>
        <time>2021-08-25T14:06:31Z</time>
      </trkpt>
      <trkpt lat="47.09327" lon="2.46373">
        <ele>136</ele>
        <time>2021-08-25T14:06:31Z</time>
      </trkpt>
      <trkpt lat="47.09329" lon="2.46381">
        <ele>136</ele>
        <time>2021-08-25T14:06:31Z</time>
      </trkpt>
      <trkpt lat="47.09331" lon="2.4639">
        <ele>136</ele>
        <time>2021-08-25T14:06:31Z</time>
      </trkpt>
      <trkpt lat="47.09333" lon="2.46399">
        <ele>136</ele>
        <time>2021-08-25T14:06:31Z</time>
      </trkpt>
      <trkpt lat="47.09335" lon="2.46407">
        <ele>137</ele>
        <time>2021-08-25T14:06:31Z</time>
      </trkpt>
      <trkpt lat="47.09338" lon="2.46416">
        <ele>137</ele>
        <time>2021-08-25T14:06:31Z</time>
      </trkpt>
      <trkpt lat="47.09341" lon="2.46425">
        <ele>137</ele>
        <time>2021-08-25T14:06:31Z</time>
      </trkpt>
      <trkpt lat="47.09344" lon="2.46433">
        <ele>137</ele>
        <time>2021-08-25T14:06:31Z</time>
      </trkpt>
      <trkpt lat="47.09347" lon="2.46441">
        <ele>137</ele>
        <time>2021-08-25T14:06:31Z</time>
      </trkpt>
      <trkpt lat="47.0935" lon="2.46451">
        <ele>136</ele>
        <time>2021-08-25T14:06:31Z</time>
      </trkpt>
      <trkpt lat="47.09362" lon="2.46496">
        <ele>137</ele>
        <time>2021-08-25T14:06:31Z</time>
      </trkpt>
      <trkpt lat="47.09376" lon="2.46537">
        <ele>139</ele>
        <time>2021-08-25T14:06:31Z</time>
      </trkpt>
      <trkpt lat="47.09397" lon="2.46559">
        <ele>140</ele>
        <time>2021-08-25T14:06:31Z</time>
      </trkpt>
      <trkpt lat="47.09416" lon="2.46574">
        <ele>140</ele>
        <time>2021-08-25T14:06:31Z</time>
      </trkpt>
      <trkpt lat="47.09441" lon="2.46592">
        <ele>140</ele>
        <time>2021-08-25T14:06:31Z</time>
      </trkpt>
      <trkpt lat="47.09464" lon="2.46606">
        <ele>139</ele>
        <time>2021-08-25T14:06:31Z</time>
      </trkpt>
      <trkpt lat="47.09469" lon="2.4661">
        <ele>139</ele>
        <time>2021-08-25T14:06:31Z</time>
      </trkpt>
      <trkpt lat="47.09498" lon="2.46632">
        <ele>137</ele>
        <time>2021-08-25T14:06:31Z</time>
      </trkpt>
      <trkpt lat="47.09526" lon="2.46653">
        <ele>137</ele>
        <time>2021-08-25T14:06:31Z</time>
      </trkpt>
      <trkpt lat="47.09554" lon="2.46672">
        <ele>137</ele>
        <time>2021-08-25T14:06:31Z</time>
      </trkpt>
      <trkpt lat="47.09581" lon="2.46693">
        <ele>138</ele>
        <time>2021-08-25T14:06:31Z</time>
      </trkpt>
      <trkpt lat="47.0961" lon="2.46712">
        <ele>139</ele>
        <time>2021-08-25T14:06:31Z</time>
      </trkpt>
      <trkpt lat="47.09633" lon="2.46729">
        <ele>140</ele>
        <time>2021-08-25T14:06:31Z</time>
      </trkpt>
      <trkpt lat="47.09639" lon="2.46733">
        <ele>140</ele>
        <time>2021-08-25T14:06:31Z</time>
      </trkpt>
      <trkpt lat="47.09667" lon="2.46754">
        <ele>139</ele>
        <time>2021-08-25T14:06:31Z</time>
      </trkpt>
      <trkpt lat="47.09695" lon="2.46774">
        <ele>138</ele>
        <time>2021-08-25T14:06:31Z</time>
      </trkpt>
      <trkpt lat="47.09724" lon="2.46795">
        <ele>139</ele>
        <time>2021-08-25T14:06:31Z</time>
      </trkpt>
      <trkpt lat="47.09753" lon="2.46816">
        <ele>140</ele>
        <time>2021-08-25T14:06:31Z</time>
      </trkpt>
      <trkpt lat="47.09782" lon="2.46836">
        <ele>139</ele>
        <time>2021-08-25T14:06:31Z</time>
      </trkpt>
      <trkpt lat="47.09802" lon="2.46854">
        <ele>137</ele>
        <time>2021-08-25T14:06:31Z</time>
      </trkpt>
      <trkpt lat="47.09804" lon="2.46861">
        <ele>137</ele>
        <time>2021-08-25T14:06:31Z</time>
      </trkpt>
      <trkpt lat="47.09804" lon="2.4687">
        <ele>137</ele>
        <time>2021-08-25T14:06:31Z</time>
      </trkpt>
      <trkpt lat="47.09805" lon="2.46879">
        <ele>137</ele>
        <time>2021-08-25T14:06:31Z</time>
      </trkpt>
      <trkpt lat="47.09806" lon="2.46889">
        <ele>137</ele>
        <time>2021-08-25T14:06:31Z</time>
      </trkpt>
      <trkpt lat="47.09806" lon="2.46898">
        <ele>138</ele>
        <time>2021-08-25T14:06:31Z</time>
      </trkpt>
      <trkpt lat="47.09806" lon="2.46908">
        <ele>138</ele>
        <time>2021-08-25T14:06:31Z</time>
      </trkpt>
      <trkpt lat="47.09807" lon="2.46918">
        <ele>139</ele>
        <time>2021-08-25T14:06:31Z</time>
      </trkpt>
      <trkpt lat="47.09808" lon="2.46929">
        <ele>139</ele>
        <time>2021-08-25T14:06:31Z</time>
      </trkpt>
      <trkpt lat="47.09809" lon="2.46939">
        <ele>139</ele>
        <time>2021-08-25T14:06:31Z</time>
      </trkpt>
      <trkpt lat="47.09809" lon="2.4695">
        <ele>139</ele>
        <time>2021-08-25T14:06:31Z</time>
      </trkpt>
      <trkpt lat="47.0981" lon="2.46961">
        <ele>138</ele>
        <time>2021-08-25T14:06:31Z</time>
      </trkpt>
      <trkpt lat="47.09811" lon="2.4697">
        <ele>137</ele>
        <time>2021-08-25T14:06:31Z</time>
      </trkpt>
      <trkpt lat="47.09812" lon="2.46981">
        <ele>136</ele>
        <time>2021-08-25T14:06:31Z</time>
      </trkpt>
      <trkpt lat="47.09813" lon="2.46991">
        <ele>135</ele>
        <time>2021-08-25T14:06:31Z</time>
      </trkpt>
      <trkpt lat="47.09813" lon="2.47001">
        <ele>134</ele>
        <time>2021-08-25T14:06:31Z</time>
      </trkpt>
      <trkpt lat="47.09814" lon="2.47011">
        <ele>134</ele>
        <time>2021-08-25T14:06:31Z</time>
      </trkpt>
      <trkpt lat="47.09814" lon="2.47021">
        <ele>134</ele>
        <time>2021-08-25T14:06:31Z</time>
      </trkpt>
      <trkpt lat="47.09816" lon="2.47032">
        <ele>135</ele>
        <time>2021-08-25T14:06:31Z</time>
      </trkpt>
      <trkpt lat="47.09817" lon="2.47042">
        <ele>135</ele>
        <time>2021-08-25T14:06:31Z</time>
      </trkpt>
      <trkpt lat="47.09817" lon="2.47051">
        <ele>135</ele>
        <time>2021-08-25T14:06:31Z</time>
      </trkpt>
      <trkpt lat="47.09817" lon="2.47062">
        <ele>135</ele>
        <time>2021-08-25T14:06:31Z</time>
      </trkpt>
      <trkpt lat="47.09818" lon="2.47071">
        <ele>135</ele>
        <time>2021-08-25T14:06:31Z</time>
      </trkpt>
      <trkpt lat="47.09819" lon="2.47082">
        <ele>135</ele>
        <time>2021-08-25T14:06:31Z</time>
      </trkpt>
      <trkpt lat="47.09819" lon="2.47092">
        <ele>135</ele>
        <time>2021-08-25T14:06:31Z</time>
      </trkpt>
      <trkpt lat="47.0982" lon="2.47102">
        <ele>134</ele>
        <time>2021-08-25T14:06:31Z</time>
      </trkpt>
      <trkpt lat="47.09821" lon="2.47111">
        <ele>134</ele>
        <time>2021-08-25T14:06:31Z</time>
      </trkpt>
      <trkpt lat="47.09822" lon="2.47121">
        <ele>134</ele>
        <time>2021-08-25T14:06:31Z</time>
      </trkpt>
      <trkpt lat="47.09823" lon="2.47132">
        <ele>133</ele>
        <time>2021-08-25T14:06:31Z</time>
      </trkpt>
      <trkpt lat="47.09824" lon="2.47142">
        <ele>133</ele>
        <time>2021-08-25T14:06:31Z</time>
      </trkpt>
      <trkpt lat="47.09824" lon="2.47151">
        <ele>132</ele>
        <time>2021-08-25T14:06:31Z</time>
      </trkpt>
      <trkpt lat="47.09825" lon="2.47161">
        <ele>132</ele>
        <time>2021-08-25T14:06:31Z</time>
      </trkpt>
      <trkpt lat="47.09825" lon="2.47171">
        <ele>132</ele>
        <time>2021-08-25T14:06:31Z</time>
      </trkpt>
      <trkpt lat="47.09824" lon="2.47179">
        <ele>132</ele>
        <time>2021-08-25T14:06:31Z</time>
      </trkpt>
      <trkpt lat="47.09823" lon="2.47189">
        <ele>132</ele>
        <time>2021-08-25T14:06:31Z</time>
      </trkpt>
      <trkpt lat="47.09824" lon="2.47198">
        <ele>132</ele>
        <time>2021-08-25T14:06:31Z</time>
      </trkpt>
      <trkpt lat="47.09825" lon="2.47208">
        <ele>132</ele>
        <time>2021-08-25T14:06:31Z</time>
      </trkpt>
      <trkpt lat="47.09824" lon="2.47218">
        <ele>132</ele>
        <time>2021-08-25T14:06:31Z</time>
      </trkpt>
      <trkpt lat="47.09824" lon="2.47228">
        <ele>132</ele>
        <time>2021-08-25T14:06:31Z</time>
      </trkpt>
      <trkpt lat="47.09824" lon="2.47238">
        <ele>133</ele>
        <time>2021-08-25T14:06:31Z</time>
      </trkpt>
      <trkpt lat="47.09823" lon="2.47248">
        <ele>133</ele>
        <time>2021-08-25T14:06:31Z</time>
      </trkpt>
      <trkpt lat="47.09822" lon="2.47258">
        <ele>134</ele>
        <time>2021-08-25T14:06:31Z</time>
      </trkpt>
      <trkpt lat="47.09821" lon="2.47267">
        <ele>134</ele>
        <time>2021-08-25T14:06:31Z</time>
      </trkpt>
      <trkpt lat="47.0982" lon="2.47275">
        <ele>134</ele>
        <time>2021-08-25T14:06:31Z</time>
      </trkpt>
      <trkpt lat="47.0982" lon="2.47284">
        <ele>134</ele>
        <time>2021-08-25T14:06:31Z</time>
      </trkpt>
      <trkpt lat="47.09821" lon="2.47292">
        <ele>134</ele>
        <time>2021-08-25T14:06:31Z</time>
      </trkpt>
      <trkpt lat="47.09823" lon="2.47299">
        <ele>134</ele>
        <time>2021-08-25T14:06:31Z</time>
      </trkpt>
      <trkpt lat="47.09826" lon="2.47305">
        <ele>134</ele>
        <time>2021-08-25T14:06:31Z</time>
      </trkpt>
      <trkpt lat="47.09829" lon="2.47311">
        <ele>133</ele>
        <time>2021-08-25T14:06:31Z</time>
      </trkpt>
      <trkpt lat="47.09829" lon="2.47317">
        <ele>133</ele>
        <time>2021-08-25T14:06:31Z</time>
      </trkpt>
      <trkpt lat="47.09826" lon="2.4732">
        <ele>134</ele>
        <time>2021-08-25T14:06:31Z</time>
      </trkpt>
      <trkpt lat="47.09822" lon="2.47323">
        <ele>134</ele>
        <time>2021-08-25T14:06:31Z</time>
      </trkpt>
      <trkpt lat="47.09816" lon="2.47323">
        <ele>134</ele>
        <time>2021-08-25T14:06:31Z</time>
      </trkpt>
      <trkpt lat="47.0981" lon="2.47323">
        <ele>135</ele>
        <time>2021-08-25T14:06:31Z</time>
      </trkpt>
      <trkpt lat="47.09804" lon="2.4732">
        <ele>135</ele>
        <time>2021-08-25T14:06:31Z</time>
      </trkpt>
      <trkpt lat="47.09799" lon="2.47316">
        <ele>136</ele>
        <time>2021-08-25T14:06:31Z</time>
      </trkpt>
      <trkpt lat="47.09793" lon="2.47313">
        <ele>136</ele>
        <time>2021-08-25T14:06:31Z</time>
      </trkpt>
      <trkpt lat="47.09787" lon="2.4731">
        <ele>136</ele>
        <time>2021-08-25T14:06:31Z</time>
      </trkpt>
      <trkpt lat="47.09782" lon="2.47306">
        <ele>136</ele>
        <time>2021-08-25T14:06:31Z</time>
      </trkpt>
      <trkpt lat="47.09776" lon="2.47302">
        <ele>136</ele>
        <time>2021-08-25T14:06:31Z</time>
      </trkpt>
      <trkpt lat="47.09769" lon="2.47298">
        <ele>136</ele>
        <time>2021-08-25T14:06:31Z</time>
      </trkpt>
      <trkpt lat="47.09764" lon="2.47295">
        <ele>136</ele>
        <time>2021-08-25T14:06:31Z</time>
      </trkpt>
      <trkpt lat="47.09758" lon="2.47292">
        <ele>136</ele>
        <time>2021-08-25T14:06:31Z</time>
      </trkpt>
      <trkpt lat="47.09727" lon="2.47276">
        <ele>137</ele>
        <time>2021-08-25T14:06:31Z</time>
      </trkpt>
      <trkpt lat="47.09694" lon="2.47281">
        <ele>137</ele>
        <time>2021-08-25T14:06:31Z</time>
      </trkpt>
      <trkpt lat="47.09667" lon="2.47305">
        <ele>137</ele>
        <time>2021-08-25T14:06:31Z</time>
      </trkpt>
      <trkpt lat="47.09661" lon="2.47348">
        <ele>136</ele>
        <time>2021-08-25T14:06:31Z</time>
      </trkpt>
      <trkpt lat="47.09662" lon="2.47393">
        <ele>137</ele>
        <time>2021-08-25T14:06:31Z</time>
      </trkpt>
      <trkpt lat="47.09658" lon="2.47429">
        <ele>137</ele>
        <time>2021-08-25T14:06:31Z</time>
      </trkpt>
      <trkpt lat="47.09659" lon="2.47438">
        <ele>137</ele>
        <time>2021-08-25T14:06:31Z</time>
      </trkpt>
      <trkpt lat="47.09665" lon="2.4748">
        <ele>139</ele>
        <time>2021-08-25T14:06:31Z</time>
      </trkpt>
      <trkpt lat="47.09672" lon="2.47522">
        <ele>141</ele>
        <time>2021-08-25T14:06:31Z</time>
      </trkpt>
      <trkpt lat="47.09678" lon="2.47566">
        <ele>141</ele>
        <time>2021-08-25T14:06:31Z</time>
      </trkpt>
      <trkpt lat="47.09685" lon="2.47611">
        <ele>142</ele>
        <time>2021-08-25T14:06:31Z</time>
      </trkpt>
      <trkpt lat="47.09691" lon="2.47655">
        <ele>143</ele>
        <time>2021-08-25T14:06:31Z</time>
      </trkpt>
      <trkpt lat="47.09702" lon="2.47686">
        <ele>144</ele>
        <time>2021-08-25T14:06:31Z</time>
      </trkpt>
      <trkpt lat="47.09705" lon="2.47693">
        <ele>144</ele>
        <time>2021-08-25T14:06:31Z</time>
      </trkpt>
      <trkpt lat="47.09719" lon="2.47728">
        <ele>145</ele>
        <time>2021-08-25T14:06:31Z</time>
      </trkpt>
      <trkpt lat="47.09726" lon="2.4775">
        <ele>146</ele>
        <time>2021-08-25T14:06:31Z</time>
      </trkpt>
      <trkpt lat="47.0973" lon="2.47758">
        <ele>146</ele>
        <time>2021-08-25T14:06:31Z</time>
      </trkpt>
      <trkpt lat="47.09734" lon="2.47765">
        <ele>146</ele>
        <time>2021-08-25T14:06:31Z</time>
      </trkpt>
      <trkpt lat="47.09736" lon="2.47773">
        <ele>146</ele>
        <time>2021-08-25T14:06:31Z</time>
      </trkpt>
      <trkpt lat="47.0974" lon="2.4778">
        <ele>145</ele>
        <time>2021-08-25T14:06:31Z</time>
      </trkpt>
      <trkpt lat="47.09743" lon="2.47788">
        <ele>145</ele>
        <time>2021-08-25T14:06:31Z</time>
      </trkpt>
      <trkpt lat="47.09746" lon="2.47796">
        <ele>145</ele>
        <time>2021-08-25T14:06:31Z</time>
      </trkpt>
      <trkpt lat="47.09748" lon="2.47804">
        <ele>145</ele>
        <time>2021-08-25T14:06:31Z</time>
      </trkpt>
      <trkpt lat="47.09766" lon="2.4784">
        <ele>147</ele>
        <time>2021-08-25T14:06:31Z</time>
      </trkpt>
      <trkpt lat="47.09787" lon="2.47874">
        <ele>147</ele>
        <time>2021-08-25T14:06:31Z</time>
      </trkpt>
      <trkpt lat="47.09805" lon="2.47901">
        <ele>148</ele>
        <time>2021-08-25T14:06:31Z</time>
      </trkpt>
      <trkpt lat="47.09817" lon="2.47926">
        <ele>148</ele>
        <time>2021-08-25T14:06:31Z</time>
      </trkpt>
      <trkpt lat="47.09795" lon="2.47933">
        <ele>148</ele>
        <time>2021-08-25T14:06:31Z</time>
      </trkpt>
      <trkpt lat="47.09772" lon="2.47937">
        <ele>147</ele>
        <time>2021-08-25T14:06:31Z</time>
      </trkpt>
      <trkpt lat="47.09766" lon="2.47938">
        <ele>147</ele>
        <time>2021-08-25T14:06:31Z</time>
      </trkpt>
      <trkpt lat="47.09736" lon="2.4794">
        <ele>146</ele>
        <time>2021-08-25T14:06:31Z</time>
      </trkpt>
      <trkpt lat="47.09714" lon="2.47939">
        <ele>145</ele>
        <time>2021-08-25T14:06:31Z</time>
      </trkpt>
      <trkpt lat="47.09712" lon="2.47928">
        <ele>144</ele>
        <time>2021-08-25T14:06:31Z</time>
      </trkpt>
      <trkpt lat="47.09712" lon="2.47922">
        <ele>144</ele>
        <time>2021-08-25T14:06:31Z</time>
      </trkpt>
      <trkpt lat="47.09713" lon="2.47914">
        <ele>145</ele>
        <time>2021-08-25T14:06:31Z</time>
      </trkpt>
      <trkpt lat="47.09714" lon="2.47907">
        <ele>145</ele>
        <time>2021-08-25T14:06:31Z</time>
      </trkpt>
      <trkpt lat="47.09716" lon="2.47899">
        <ele>145</ele>
        <time>2021-08-25T14:06:31Z</time>
      </trkpt>
      <trkpt lat="47.09718" lon="2.47891">
        <ele>145</ele>
        <time>2021-08-25T14:06:31Z</time>
      </trkpt>
      <trkpt lat="47.09719" lon="2.47883">
        <ele>145</ele>
        <time>2021-08-25T14:06:31Z</time>
      </trkpt>
      <trkpt lat="47.0972" lon="2.47876">
        <ele>145</ele>
        <time>2021-08-25T14:06:31Z</time>
      </trkpt>
      <trkpt lat="47.09717" lon="2.4784">
        <ele>144</ele>
        <time>2021-08-25T14:06:31Z</time>
      </trkpt>
      <trkpt lat="47.09716" lon="2.47804">
        <ele>144</ele>
        <time>2021-08-25T14:06:31Z</time>
      </trkpt>
      <trkpt lat="47.09712" lon="2.47771">
        <ele>144</ele>
        <time>2021-08-25T14:06:31Z</time>
      </trkpt>
      <trkpt lat="47.09718" lon="2.4774">
        <ele>145</ele>
        <time>2021-08-25T14:06:31Z</time>
      </trkpt>
      <trkpt lat="47.09718" lon="2.47738">
        <ele>145</ele>
        <time>2021-08-25T14:06:31Z</time>
      </trkpt>
      <trkpt lat="47.09718" lon="2.47738">
        <ele>145</ele>
        <time>2021-08-25T14:06:31Z</time>
      </trkpt>
      <trkpt lat="47.09718" lon="2.47738">
        <ele>145</ele>
        <time>2021-08-25T14:06:31Z</time>
      </trkpt>
      <trkpt lat="47.09718" lon="2.47738">
        <ele>145</ele>
        <time>2021-08-25T14:06:31Z</time>
      </trkpt>
      <trkpt lat="47.09718" lon="2.47738">
        <ele>145</ele>
        <time>2021-08-25T14:06:31Z</time>
      </trkpt>
      <trkpt lat="47.09718" lon="2.47738">
        <ele>145</ele>
        <time>2021-08-25T14:06:31Z</time>
      </trkpt>
      <trkpt lat="47.09718" lon="2.47739">
        <ele>145</ele>
        <time>2021-08-25T14:06:31Z</time>
      </trkpt>
      <trkpt lat="47.09714" lon="2.47737">
        <ele>145</ele>
        <time>2021-08-25T14:06:31Z</time>
      </trkpt>
      <trkpt lat="47.09712" lon="2.4776">
        <ele>145</ele>
        <time>2021-08-25T14:06:31Z</time>
      </trkpt>
      <trkpt lat="47.09712" lon="2.47767">
        <ele>145</ele>
        <time>2021-08-25T14:06:31Z</time>
      </trkpt>
      <trkpt lat="47.09712" lon="2.47805">
        <ele>144</ele>
        <time>2021-08-25T14:06:31Z</time>
      </trkpt>
      <trkpt lat="47.09714" lon="2.47843">
        <ele>144</ele>
        <time>2021-08-25T14:06:31Z</time>
      </trkpt>
      <trkpt lat="47.09715" lon="2.47882">
        <ele>145</ele>
        <time>2021-08-25T14:06:31Z</time>
      </trkpt>
      <trkpt lat="47.09711" lon="2.47921">
        <ele>144</ele>
        <time>2021-08-25T14:06:31Z</time>
      </trkpt>
      <trkpt lat="47.09709" lon="2.4797">
        <ele>143</ele>
        <time>2021-08-25T14:06:31Z</time>
      </trkpt>
      <trkpt lat="47.09705" lon="2.48008">
        <ele>141</ele>
        <time>2021-08-25T14:06:31Z</time>
      </trkpt>
      <trkpt lat="47.09703" lon="2.48019">
        <ele>140</ele>
        <time>2021-08-25T14:06:31Z</time>
      </trkpt>
      <trkpt lat="47.09701" lon="2.4807">
        <ele>140</ele>
        <time>2021-08-25T14:06:31Z</time>
      </trkpt>
      <trkpt lat="47.09698" lon="2.48119">
        <ele>138</ele>
        <time>2021-08-25T14:06:31Z</time>
      </trkpt>
      <trkpt lat="47.09696" lon="2.48166">
        <ele>139</ele>
        <time>2021-08-25T14:06:31Z</time>
      </trkpt>
      <trkpt lat="47.09693" lon="2.48211">
        <ele>137</ele>
        <time>2021-08-25T14:06:31Z</time>
      </trkpt>
      <trkpt lat="47.0969" lon="2.48256">
        <ele>136</ele>
        <time>2021-08-25T14:06:31Z</time>
      </trkpt>
      <trkpt lat="47.09693" lon="2.48289">
        <ele>135</ele>
        <time>2021-08-25T14:06:31Z</time>
      </trkpt>
      <trkpt lat="47.09696" lon="2.48297">
        <ele>135</ele>
        <time>2021-08-25T14:06:31Z</time>
      </trkpt>
      <trkpt lat="47.09712" lon="2.48326">
        <ele>137</ele>
        <time>2021-08-25T14:06:31Z</time>
      </trkpt>
      <trkpt lat="47.09738" lon="2.48327">
        <ele>139</ele>
        <time>2021-08-25T14:06:31Z</time>
      </trkpt>
      <trkpt lat="47.09762" lon="2.4833">
        <ele>140</ele>
        <time>2021-08-25T14:06:31Z</time>
      </trkpt>
      <trkpt lat="47.09767" lon="2.48366">
        <ele>141</ele>
        <time>2021-08-25T14:06:31Z</time>
      </trkpt>
      <trkpt lat="47.09769" lon="2.48406">
        <ele>140</ele>
        <time>2021-08-25T14:06:31Z</time>
      </trkpt>
      <trkpt lat="47.09767" lon="2.48429">
        <ele>140</ele>
        <time>2021-08-25T14:06:31Z</time>
      </trkpt>
      <trkpt lat="47.09763" lon="2.4843">
        <ele>140</ele>
        <time>2021-08-25T14:06:31Z</time>
      </trkpt>
      <trkpt lat="47.09753" lon="2.4843">
        <ele>140</ele>
        <time>2021-08-25T14:06:31Z</time>
      </trkpt>
      <trkpt lat="47.09747" lon="2.48432">
        <ele>139</ele>
        <time>2021-08-25T14:06:31Z</time>
      </trkpt>
      <trkpt lat="47.09742" lon="2.48432">
        <ele>139</ele>
        <time>2021-08-25T14:06:31Z</time>
      </trkpt>
      <trkpt lat="47.09735" lon="2.48433">
        <ele>139</ele>
        <time>2021-08-25T14:06:31Z</time>
      </trkpt>
      <trkpt lat="47.09729" lon="2.48433">
        <ele>139</ele>
        <time>2021-08-25T14:06:31Z</time>
      </trkpt>
      <trkpt lat="47.09722" lon="2.48434">
        <ele>139</ele>
        <time>2021-08-25T14:06:31Z</time>
      </trkpt>
      <trkpt lat="47.09716" lon="2.48435">
        <ele>139</ele>
        <time>2021-08-25T14:06:31Z</time>
      </trkpt>
      <trkpt lat="47.09708" lon="2.48435">
        <ele>139</ele>
        <time>2021-08-25T14:06:31Z</time>
      </trkpt>
      <trkpt lat="47.09701" lon="2.48436">
        <ele>138</ele>
        <time>2021-08-25T14:06:31Z</time>
      </trkpt>
      <trkpt lat="47.09694" lon="2.48436">
        <ele>138</ele>
        <time>2021-08-25T14:06:31Z</time>
      </trkpt>
      <trkpt lat="47.09689" lon="2.48435">
        <ele>138</ele>
        <time>2021-08-25T14:06:31Z</time>
      </trkpt>
      <trkpt lat="47.09683" lon="2.48433">
        <ele>138</ele>
        <time>2021-08-25T14:06:31Z</time>
      </trkpt>
      <trkpt lat="47.09677" lon="2.48436">
        <ele>138</ele>
        <time>2021-08-25T14:06:31Z</time>
      </trkpt>
      <trkpt lat="47.09673" lon="2.48443">
        <ele>138</ele>
        <time>2021-08-25T14:06:31Z</time>
      </trkpt>
      <trkpt lat="47.09671" lon="2.48451">
        <ele>138</ele>
        <time>2021-08-25T14:06:31Z</time>
      </trkpt>
      <trkpt lat="47.09672" lon="2.4846">
        <ele>138</ele>
        <time>2021-08-25T14:06:31Z</time>
      </trkpt>
      <trkpt lat="47.09671" lon="2.48469">
        <ele>139</ele>
        <time>2021-08-25T14:06:31Z</time>
      </trkpt>
      <trkpt lat="47.0967" lon="2.48477">
        <ele>139</ele>
        <time>2021-08-25T14:06:31Z</time>
      </trkpt>
      <trkpt lat="47.09669" lon="2.48486">
        <ele>139</ele>
        <time>2021-08-25T14:06:31Z</time>
      </trkpt>
      <trkpt lat="47.09668" lon="2.48494">
        <ele>139</ele>
        <time>2021-08-25T14:06:31Z</time>
      </trkpt>
      <trkpt lat="47.09668" lon="2.48503">
        <ele>139</ele>
        <time>2021-08-25T14:06:31Z</time>
      </trkpt>
      <trkpt lat="47.09669" lon="2.48511">
        <ele>139</ele>
        <time>2021-08-25T14:06:31Z</time>
      </trkpt>
      <trkpt lat="47.09669" lon="2.4852">
        <ele>139</ele>
        <time>2021-08-25T14:06:31Z</time>
      </trkpt>
      <trkpt lat="47.09668" lon="2.4853">
        <ele>139</ele>
        <time>2021-08-25T14:06:31Z</time>
      </trkpt>
      <trkpt lat="47.09669" lon="2.48539">
        <ele>139</ele>
        <time>2021-08-25T14:06:31Z</time>
      </trkpt>
      <trkpt lat="47.09669" lon="2.48548">
        <ele>139</ele>
        <time>2021-08-25T14:06:31Z</time>
      </trkpt>
      <trkpt lat="47.09669" lon="2.48557">
        <ele>139</ele>
        <time>2021-08-25T14:06:31Z</time>
      </trkpt>
      <trkpt lat="47.09668" lon="2.48566">
        <ele>139</ele>
        <time>2021-08-25T14:06:31Z</time>
      </trkpt>
      <trkpt lat="47.09668" lon="2.48576">
        <ele>139</ele>
        <time>2021-08-25T14:06:31Z</time>
      </trkpt>
      <trkpt lat="47.09668" lon="2.48585">
        <ele>140</ele>
        <time>2021-08-25T14:06:31Z</time>
      </trkpt>
      <trkpt lat="47.09667" lon="2.48595">
        <ele>140</ele>
        <time>2021-08-25T14:06:31Z</time>
      </trkpt>
      <trkpt lat="47.09667" lon="2.48604">
        <ele>140</ele>
        <time>2021-08-25T14:06:31Z</time>
      </trkpt>
      <trkpt lat="47.09667" lon="2.48613">
        <ele>140</ele>
        <time>2021-08-25T14:06:31Z</time>
      </trkpt>
      <trkpt lat="47.09667" lon="2.48623">
        <ele>140</ele>
        <time>2021-08-25T14:06:31Z</time>
      </trkpt>
      <trkpt lat="47.09667" lon="2.48633">
        <ele>140</ele>
        <time>2021-08-25T14:06:31Z</time>
      </trkpt>
      <trkpt lat="47.09665" lon="2.48642">
        <ele>140</ele>
        <time>2021-08-25T14:06:31Z</time>
      </trkpt>
      <trkpt lat="47.09665" lon="2.48651">
        <ele>140</ele>
        <time>2021-08-25T14:06:31Z</time>
      </trkpt>
      <trkpt lat="47.09665" lon="2.4866">
        <ele>140</ele>
        <time>2021-08-25T14:06:31Z</time>
      </trkpt>
      <trkpt lat="47.09666" lon="2.4867">
        <ele>140</ele>
        <time>2021-08-25T14:06:31Z</time>
      </trkpt>
      <trkpt lat="47.09665" lon="2.48679">
        <ele>140</ele>
        <time>2021-08-25T14:06:31Z</time>
      </trkpt>
      <trkpt lat="47.09664" lon="2.48689">
        <ele>140</ele>
        <time>2021-08-25T14:06:31Z</time>
      </trkpt>
      <trkpt lat="47.09663" lon="2.48697">
        <ele>140</ele>
        <time>2021-08-25T14:06:31Z</time>
      </trkpt>
      <trkpt lat="47.09662" lon="2.48705">
        <ele>140</ele>
        <time>2021-08-25T14:06:31Z</time>
      </trkpt>
      <trkpt lat="47.09662" lon="2.48715">
        <ele>140</ele>
        <time>2021-08-25T14:06:31Z</time>
      </trkpt>
      <trkpt lat="47.0966" lon="2.48724">
        <ele>140</ele>
        <time>2021-08-25T14:06:31Z</time>
      </trkpt>
      <trkpt lat="47.09658" lon="2.48733">
        <ele>140</ele>
        <time>2021-08-25T14:06:31Z</time>
      </trkpt>
      <trkpt lat="47.09657" lon="2.48742">
        <ele>140</ele>
        <time>2021-08-25T14:06:31Z</time>
      </trkpt>
      <trkpt lat="47.09657" lon="2.48751">
        <ele>140</ele>
        <time>2021-08-25T14:06:31Z</time>
      </trkpt>
      <trkpt lat="47.09656" lon="2.4876">
        <ele>140</ele>
        <time>2021-08-25T14:06:31Z</time>
      </trkpt>
      <trkpt lat="47.09654" lon="2.4877">
        <ele>140</ele>
        <time>2021-08-25T14:06:31Z</time>
      </trkpt>
      <trkpt lat="47.09654" lon="2.4878">
        <ele>140</ele>
        <time>2021-08-25T14:06:31Z</time>
      </trkpt>
      <trkpt lat="47.09653" lon="2.48789">
        <ele>140</ele>
        <time>2021-08-25T14:06:31Z</time>
      </trkpt>
      <trkpt lat="47.09651" lon="2.48797">
        <ele>140</ele>
        <time>2021-08-25T14:06:31Z</time>
      </trkpt>
      <trkpt lat="47.09649" lon="2.48806">
        <ele>140</ele>
        <time>2021-08-25T14:06:31Z</time>
      </trkpt>
      <trkpt lat="47.09649" lon="2.48815">
        <ele>140</ele>
        <time>2021-08-25T14:06:31Z</time>
      </trkpt>
      <trkpt lat="47.09647" lon="2.48824">
        <ele>140</ele>
        <time>2021-08-25T14:06:31Z</time>
      </trkpt>
      <trkpt lat="47.09648" lon="2.48833">
        <ele>139</ele>
        <time>2021-08-25T14:06:31Z</time>
      </trkpt>
      <trkpt lat="47.09648" lon="2.48842">
        <ele>140</ele>
        <time>2021-08-25T14:06:31Z</time>
      </trkpt>
      <trkpt lat="47.09648" lon="2.48851">
        <ele>140</ele>
        <time>2021-08-25T14:06:31Z</time>
      </trkpt>
      <trkpt lat="47.09647" lon="2.4886">
        <ele>140</ele>
        <time>2021-08-25T14:06:31Z</time>
      </trkpt>
      <trkpt lat="47.09647" lon="2.48869">
        <ele>141</ele>
        <time>2021-08-25T14:06:31Z</time>
      </trkpt>
      <trkpt lat="47.09648" lon="2.48918">
        <ele>141</ele>
        <time>2021-08-25T14:06:31Z</time>
      </trkpt>
      <trkpt lat="47.09647" lon="2.48966">
        <ele>140</ele>
        <time>2021-08-25T14:06:31Z</time>
      </trkpt>
      <trkpt lat="47.0965" lon="2.49015">
        <ele>139</ele>
        <time>2021-08-25T14:06:31Z</time>
      </trkpt>
      <trkpt lat="47.09651" lon="2.49064">
        <ele>139</ele>
        <time>2021-08-25T14:06:31Z</time>
      </trkpt>
      <trkpt lat="47.09654" lon="2.49114">
        <ele>139</ele>
        <time>2021-08-25T14:06:31Z</time>
      </trkpt>
      <trkpt lat="47.09651" lon="2.49154">
        <ele>139</ele>
        <time>2021-08-25T14:06:31Z</time>
      </trkpt>
      <trkpt lat="47.09652" lon="2.49165">
        <ele>139</ele>
        <time>2021-08-25T14:06:31Z</time>
      </trkpt>
      <trkpt lat="47.09654" lon="2.49215">
        <ele>139</ele>
        <time>2021-08-25T14:06:31Z</time>
      </trkpt>
      <trkpt lat="47.09655" lon="2.49264">
        <ele>139</ele>
        <time>2021-08-25T14:06:31Z</time>
      </trkpt>
      <trkpt lat="47.09657" lon="2.49309">
        <ele>139</ele>
        <time>2021-08-25T14:06:31Z</time>
      </trkpt>
      <trkpt lat="47.09658" lon="2.49347">
        <ele>138</ele>
        <time>2021-08-25T14:06:31Z</time>
      </trkpt>
      <trkpt lat="47.09642" lon="2.49364">
        <ele>137</ele>
        <time>2021-08-25T14:06:31Z</time>
      </trkpt>
      <trkpt lat="47.09621" lon="2.49378">
        <ele>136</ele>
        <time>2021-08-25T14:06:31Z</time>
      </trkpt>
      <trkpt lat="47.09615" lon="2.49382">
        <ele>136</ele>
        <time>2021-08-25T14:06:31Z</time>
      </trkpt>
      <trkpt lat="47.09583" lon="2.49403">
        <ele>137</ele>
        <time>2021-08-25T14:06:31Z</time>
      </trkpt>
      <trkpt lat="47.0956" lon="2.49439">
        <ele>136</ele>
        <time>2021-08-25T14:06:31Z</time>
      </trkpt>
      <trkpt lat="47.09548" lon="2.49485">
        <ele>136</ele>
        <time>2021-08-25T14:06:31Z</time>
      </trkpt>
      <trkpt lat="47.09538" lon="2.49527">
        <ele>136</ele>
        <time>2021-08-25T14:06:31Z</time>
      </trkpt>
      <trkpt lat="47.09529" lon="2.49575">
        <ele>136</ele>
        <time>2021-08-25T14:06:31Z</time>
      </trkpt>
      <trkpt lat="47.09526" lon="2.4962">
        <ele>136</ele>
        <time>2021-08-25T14:06:31Z</time>
      </trkpt>
      <trkpt lat="47.09527" lon="2.4963">
        <ele>136</ele>
        <time>2021-08-25T14:06:31Z</time>
      </trkpt>
      <trkpt lat="47.09529" lon="2.49658">
        <ele>136</ele>
        <time>2021-08-25T14:06:31Z</time>
      </trkpt>
      <trkpt lat="47.0953" lon="2.49668">
        <ele>135</ele>
        <time>2021-08-25T14:06:31Z</time>
      </trkpt>
      <trkpt lat="47.0953" lon="2.49677">
        <ele>135</ele>
        <time>2021-08-25T14:06:31Z</time>
      </trkpt>
      <trkpt lat="47.09529" lon="2.49687">
        <ele>135</ele>
        <time>2021-08-25T14:06:31Z</time>
      </trkpt>
      <trkpt lat="47.09528" lon="2.49696">
        <ele>135</ele>
        <time>2021-08-25T14:06:31Z</time>
      </trkpt>
      <trkpt lat="47.09525" lon="2.49704">
        <ele>136</ele>
        <time>2021-08-25T14:06:31Z</time>
      </trkpt>
      <trkpt lat="47.09523" lon="2.49713">
        <ele>136</ele>
        <time>2021-08-25T14:06:31Z</time>
      </trkpt>
      <trkpt lat="47.09521" lon="2.49722">
        <ele>136</ele>
        <time>2021-08-25T14:06:31Z</time>
      </trkpt>
      <trkpt lat="47.09517" lon="2.4973">
        <ele>136</ele>
        <time>2021-08-25T14:06:31Z</time>
      </trkpt>
      <trkpt lat="47.09514" lon="2.49738">
        <ele>136</ele>
        <time>2021-08-25T14:06:31Z</time>
      </trkpt>
      <trkpt lat="47.09511" lon="2.49746">
        <ele>136</ele>
        <time>2021-08-25T14:06:31Z</time>
      </trkpt>
      <trkpt lat="47.0951" lon="2.49756">
        <ele>136</ele>
        <time>2021-08-25T14:06:31Z</time>
      </trkpt>
      <trkpt lat="47.09506" lon="2.49764">
        <ele>136</ele>
        <time>2021-08-25T14:06:31Z</time>
      </trkpt>
      <trkpt lat="47.09502" lon="2.49772">
        <ele>136</ele>
        <time>2021-08-25T14:06:31Z</time>
      </trkpt>
      <trkpt lat="47.095" lon="2.49781">
        <ele>135</ele>
        <time>2021-08-25T14:06:31Z</time>
      </trkpt>
      <trkpt lat="47.09497" lon="2.49789">
        <ele>135</ele>
        <time>2021-08-25T14:06:31Z</time>
      </trkpt>
      <trkpt lat="47.09496" lon="2.49799">
        <ele>135</ele>
        <time>2021-08-25T14:06:31Z</time>
      </trkpt>
      <trkpt lat="47.09493" lon="2.49808">
        <ele>134</ele>
        <time>2021-08-25T14:06:31Z</time>
      </trkpt>
      <trkpt lat="47.09491" lon="2.49818">
        <ele>134</ele>
        <time>2021-08-25T14:06:31Z</time>
      </trkpt>
      <trkpt lat="47.09489" lon="2.49828">
        <ele>134</ele>
        <time>2021-08-25T14:06:31Z</time>
      </trkpt>
      <trkpt lat="47.09488" lon="2.49836">
        <ele>134</ele>
        <time>2021-08-25T14:06:31Z</time>
      </trkpt>
      <trkpt lat="47.09486" lon="2.49846">
        <ele>134</ele>
        <time>2021-08-25T14:06:31Z</time>
      </trkpt>
      <trkpt lat="47.09484" lon="2.49854">
        <ele>134</ele>
        <time>2021-08-25T14:06:31Z</time>
      </trkpt>
      <trkpt lat="47.09481" lon="2.49865">
        <ele>135</ele>
        <time>2021-08-25T14:06:31Z</time>
      </trkpt>
      <trkpt lat="47.0948" lon="2.49872">
        <ele>135</ele>
        <time>2021-08-25T14:06:31Z</time>
      </trkpt>
      <trkpt lat="47.09478" lon="2.49882">
        <ele>135</ele>
        <time>2021-08-25T14:06:31Z</time>
      </trkpt>
      <trkpt lat="47.09476" lon="2.49891">
        <ele>135</ele>
        <time>2021-08-25T14:06:31Z</time>
      </trkpt>
      <trkpt lat="47.09473" lon="2.499">
        <ele>135</ele>
        <time>2021-08-25T14:06:31Z</time>
      </trkpt>
      <trkpt lat="47.09471" lon="2.49908">
        <ele>134</ele>
        <time>2021-08-25T14:06:31Z</time>
      </trkpt>
      <trkpt lat="47.09469" lon="2.49914">
        <ele>134</ele>
        <time>2021-08-25T14:06:31Z</time>
      </trkpt>
      <trkpt lat="47.09465" lon="2.49922">
        <ele>134</ele>
        <time>2021-08-25T14:06:31Z</time>
      </trkpt>
      <trkpt lat="47.09463" lon="2.4993">
        <ele>134</ele>
        <time>2021-08-25T14:06:31Z</time>
      </trkpt>
      <trkpt lat="47.09459" lon="2.49938">
        <ele>134</ele>
        <time>2021-08-25T14:06:31Z</time>
      </trkpt>
      <trkpt lat="47.09456" lon="2.49946">
        <ele>133</ele>
        <time>2021-08-25T14:06:31Z</time>
      </trkpt>
      <trkpt lat="47.09452" lon="2.49955">
        <ele>133</ele>
        <time>2021-08-25T14:06:31Z</time>
      </trkpt>
      <trkpt lat="47.09449" lon="2.49962">
        <ele>133</ele>
        <time>2021-08-25T14:06:31Z</time>
      </trkpt>
      <trkpt lat="47.09446" lon="2.4997">
        <ele>133</ele>
        <time>2021-08-25T14:06:31Z</time>
      </trkpt>
      <trkpt lat="47.09442" lon="2.49977">
        <ele>133</ele>
        <time>2021-08-25T14:06:31Z</time>
      </trkpt>
      <trkpt lat="47.09438" lon="2.49985">
        <ele>133</ele>
        <time>2021-08-25T14:06:31Z</time>
      </trkpt>
      <trkpt lat="47.09434" lon="2.49993">
        <ele>133</ele>
        <time>2021-08-25T14:06:31Z</time>
      </trkpt>
      <trkpt lat="47.09431" lon="2.50001">
        <ele>134</ele>
        <time>2021-08-25T14:06:31Z</time>
      </trkpt>
      <trkpt lat="47.09427" lon="2.50008">
        <ele>134</ele>
        <time>2021-08-25T14:06:31Z</time>
      </trkpt>
      <trkpt lat="47.09424" lon="2.50016">
        <ele>134</ele>
        <time>2021-08-25T14:06:31Z</time>
      </trkpt>
      <trkpt lat="47.09421" lon="2.50024">
        <ele>134</ele>
        <time>2021-08-25T14:06:31Z</time>
      </trkpt>
      <trkpt lat="47.09419" lon="2.50033">
        <ele>134</ele>
        <time>2021-08-25T14:06:31Z</time>
      </trkpt>
      <trkpt lat="47.09415" lon="2.5004">
        <ele>135</ele>
        <time>2021-08-25T14:06:31Z</time>
      </trkpt>
      <trkpt lat="47.09411" lon="2.50048">
        <ele>135</ele>
        <time>2021-08-25T14:06:31Z</time>
      </trkpt>
      <trkpt lat="47.09406" lon="2.50054">
        <ele>135</ele>
        <time>2021-08-25T14:06:31Z</time>
      </trkpt>
      <trkpt lat="47.09403" lon="2.50062">
        <ele>134</ele>
        <time>2021-08-25T14:06:31Z</time>
      </trkpt>
      <trkpt lat="47.09399" lon="2.5007">
        <ele>134</ele>
        <time>2021-08-25T14:06:31Z</time>
      </trkpt>
      <trkpt lat="47.09395" lon="2.50076">
        <ele>134</ele>
        <time>2021-08-25T14:06:31Z</time>
      </trkpt>
      <trkpt lat="47.09391" lon="2.50083">
        <ele>134</ele>
        <time>2021-08-25T14:06:31Z</time>
      </trkpt>
      <trkpt lat="47.09387" lon="2.50091">
        <ele>134</ele>
        <time>2021-08-25T14:06:31Z</time>
      </trkpt>
      <trkpt lat="47.09383" lon="2.50098">
        <ele>134</ele>
        <time>2021-08-25T14:06:31Z</time>
      </trkpt>
      <trkpt lat="47.09378" lon="2.50104">
        <ele>134</ele>
        <time>2021-08-25T14:06:31Z</time>
      </trkpt>
      <trkpt lat="47.09374" lon="2.50111">
        <ele>135</ele>
        <time>2021-08-25T14:06:31Z</time>
      </trkpt>
      <trkpt lat="47.09369" lon="2.50116">
        <ele>135</ele>
        <time>2021-08-25T14:06:31Z</time>
      </trkpt>
      <trkpt lat="47.09365" lon="2.50122">
        <ele>135</ele>
        <time>2021-08-25T14:06:31Z</time>
      </trkpt>
      <trkpt lat="47.0936" lon="2.50128">
        <ele>136</ele>
        <time>2021-08-25T14:06:31Z</time>
      </trkpt>
      <trkpt lat="47.09355" lon="2.50133">
        <ele>136</ele>
        <time>2021-08-25T14:06:31Z</time>
      </trkpt>
      <trkpt lat="47.09328" lon="2.50159">
        <ele>135</ele>
        <time>2021-08-25T14:06:31Z</time>
      </trkpt>
      <trkpt lat="47.09302" lon="2.50188">
        <ele>134</ele>
        <time>2021-08-25T14:06:31Z</time>
      </trkpt>
      <trkpt lat="47.0928" lon="2.50221">
        <ele>133</ele>
        <time>2021-08-25T14:06:31Z</time>
      </trkpt>
      <trkpt lat="47.09272" lon="2.50267">
        <ele>135</ele>
        <time>2021-08-25T14:06:31Z</time>
      </trkpt>
      <trkpt lat="47.09274" lon="2.50314">
        <ele>134</ele>
        <time>2021-08-25T14:06:31Z</time>
      </trkpt>
      <trkpt lat="47.09279" lon="2.5035">
        <ele>133</ele>
        <time>2021-08-25T14:06:31Z</time>
      </trkpt>
      <trkpt lat="47.0928" lon="2.50359">
        <ele>133</ele>
        <time>2021-08-25T14:06:31Z</time>
      </trkpt>
      <trkpt lat="47.09286" lon="2.50404">
        <ele>133</ele>
        <time>2021-08-25T14:06:31Z</time>
      </trkpt>
      <trkpt lat="47.09293" lon="2.50445">
        <ele>133</ele>
        <time>2021-08-25T14:06:31Z</time>
      </trkpt>
      <trkpt lat="47.09306" lon="2.50487">
        <ele>135</ele>
        <time>2021-08-25T14:06:31Z</time>
      </trkpt>
      <trkpt lat="47.09324" lon="2.50523">
        <ele>136</ele>
        <time>2021-08-25T14:06:31Z</time>
      </trkpt>
      <trkpt lat="47.0934" lon="2.50562">
        <ele>135</ele>
        <time>2021-08-25T14:06:31Z</time>
      </trkpt>
      <trkpt lat="47.09352" lon="2.50595">
        <ele>132</ele>
        <time>2021-08-25T14:06:31Z</time>
      </trkpt>
      <trkpt lat="47.09355" lon="2.50603">
        <ele>132</ele>
        <time>2021-08-25T14:06:31Z</time>
      </trkpt>
      <trkpt lat="47.09362" lon="2.50663">
        <ele>133</ele>
        <time>2021-08-25T14:06:31Z</time>
      </trkpt>
      <trkpt lat="47.09368" lon="2.50708">
        <ele>134</ele>
        <time>2021-08-25T14:06:31Z</time>
      </trkpt>
      <trkpt lat="47.09372" lon="2.50758">
        <ele>134</ele>
        <time>2021-08-25T14:06:31Z</time>
      </trkpt>
      <trkpt lat="47.09375" lon="2.50797">
        <ele>135</ele>
        <time>2021-08-25T14:06:31Z</time>
      </trkpt>
      <trkpt lat="47.09379" lon="2.5084">
        <ele>136</ele>
        <time>2021-08-25T14:06:31Z</time>
      </trkpt>
      <trkpt lat="47.09385" lon="2.50872">
        <ele>135</ele>
        <time>2021-08-25T14:06:31Z</time>
      </trkpt>
      <trkpt lat="47.09387" lon="2.50879">
        <ele>135</ele>
        <time>2021-08-25T14:06:31Z</time>
      </trkpt>
      <trkpt lat="47.09389" lon="2.50893">
        <ele>136</ele>
        <time>2021-08-25T14:06:31Z</time>
      </trkpt>
      <trkpt lat="47.09389" lon="2.50897">
        <ele>136</ele>
        <time>2021-08-25T14:06:31Z</time>
      </trkpt>
      <trkpt lat="47.0939" lon="2.50901">
        <ele>136</ele>
        <time>2021-08-25T14:06:31Z</time>
      </trkpt>
      <trkpt lat="47.09392" lon="2.50902">
        <ele>136</ele>
        <time>2021-08-25T14:06:31Z</time>
      </trkpt>
      <trkpt lat="47.09393" lon="2.509">
        <ele>136</ele>
        <time>2021-08-25T14:06:31Z</time>
      </trkpt>
      <trkpt lat="47.09392" lon="2.50896">
        <ele>136</ele>
        <time>2021-08-25T14:06:31Z</time>
      </trkpt>
      <trkpt lat="47.09392" lon="2.50892">
        <ele>136</ele>
        <time>2021-08-25T14:06:31Z</time>
      </trkpt>
      <trkpt lat="47.09391" lon="2.50888">
        <ele>136</ele>
        <time>2021-08-25T14:06:31Z</time>
      </trkpt>
      <trkpt lat="47.09389" lon="2.50884">
        <ele>135</ele>
        <time>2021-08-25T14:06:31Z</time>
      </trkpt>
      <trkpt lat="47.09387" lon="2.50879">
        <ele>135</ele>
        <time>2021-08-25T14:06:31Z</time>
      </trkpt>
      <trkpt lat="47.09386" lon="2.50873">
        <ele>135</ele>
        <time>2021-08-25T14:06:31Z</time>
      </trkpt>
      <trkpt lat="47.09385" lon="2.50868">
        <ele>135</ele>
        <time>2021-08-25T14:06:31Z</time>
      </trkpt>
      <trkpt lat="47.09385" lon="2.50864">
        <ele>135</ele>
        <time>2021-08-25T14:06:31Z</time>
      </trkpt>
      <trkpt lat="47.09384" lon="2.50863">
        <ele>135</ele>
        <time>2021-08-25T14:06:31Z</time>
      </trkpt>
      <trkpt lat="47.09385" lon="2.50863">
        <ele>135</ele>
        <time>2021-08-25T14:06:31Z</time>
      </trkpt>
      <trkpt lat="47.09385" lon="2.50863">
        <ele>135</ele>
        <time>2021-08-25T14:06:31Z</time>
      </trkpt>
      <trkpt lat="47.09385" lon="2.50863">
        <ele>135</ele>
        <time>2021-08-25T14:06:31Z</time>
      </trkpt>
      <trkpt lat="47.09385" lon="2.50863">
        <ele>135</ele>
        <time>2021-08-25T14:06:31Z</time>
      </trkpt>
      <trkpt lat="47.09385" lon="2.50862">
        <ele>135</ele>
        <time>2021-08-25T14:06:31Z</time>
      </trkpt>
      <trkpt lat="47.09385" lon="2.50862">
        <ele>135</ele>
        <time>2021-08-25T14:06:31Z</time>
      </trkpt>
      <trkpt lat="47.09385" lon="2.50862">
        <ele>135</ele>
        <time>2021-08-25T14:06:31Z</time>
      </trkpt>
      <trkpt lat="47.09385" lon="2.50862">
        <ele>135</ele>
        <time>2021-08-25T14:06:31Z</time>
      </trkpt>
      <trkpt lat="47.09385" lon="2.50862">
        <ele>135</ele>
        <time>2021-08-25T14:06:31Z</time>
      </trkpt>
      <trkpt lat="47.09385" lon="2.50862">
        <ele>135</ele>
        <time>2021-08-25T14:06:31Z</time>
      </trkpt>
      <trkpt lat="47.09385" lon="2.50862">
        <ele>135</ele>
        <time>2021-08-25T14:06:31Z</time>
      </trkpt>
      <trkpt lat="47.09385" lon="2.50862">
        <ele>135</ele>
        <time>2021-08-25T14:06:31Z</time>
      </trkpt>
      <trkpt lat="47.09385" lon="2.50863">
        <ele>135</ele>
        <time>2021-08-25T14:06:31Z</time>
      </trkpt>
      <trkpt lat="47.09386" lon="2.50863">
        <ele>135</ele>
        <time>2021-08-25T14:06:31Z</time>
      </trkpt>
      <trkpt lat="47.09386" lon="2.50863">
        <ele>135</ele>
        <time>2021-08-25T14:06:31Z</time>
      </trkpt>
      <trkpt lat="47.09386" lon="2.50864">
        <ele>135</ele>
        <time>2021-08-25T14:06:31Z</time>
      </trkpt>
      <trkpt lat="47.09385" lon="2.50865">
        <ele>135</ele>
        <time>2021-08-25T14:06:31Z</time>
      </trkpt>
      <trkpt lat="47.09385" lon="2.50864">
        <ele>135</ele>
        <time>2021-08-25T14:06:31Z</time>
      </trkpt>
      <trkpt lat="47.09385" lon="2.50864">
        <ele>135</ele>
        <time>2021-08-25T14:06:31Z</time>
      </trkpt>
      <trkpt lat="47.09385" lon="2.50864">
        <ele>135</ele>
        <time>2021-08-25T14:06:31Z</time>
      </trkpt>
      <trkpt lat="47.09385" lon="2.50865">
        <ele>135</ele>
        <time>2021-08-25T14:06:31Z</time>
      </trkpt>
      <trkpt lat="47.09385" lon="2.50865">
        <ele>135</ele>
        <time>2021-08-25T14:06:31Z</time>
      </trkpt>
      <trkpt lat="47.09384" lon="2.50865">
        <ele>135</ele>
        <time>2021-08-25T14:06:31Z</time>
      </trkpt>
      <trkpt lat="47.09384" lon="2.50865">
        <ele>135</ele>
        <time>2021-08-25T14:06:31Z</time>
      </trkpt>
      <trkpt lat="47.09384" lon="2.50865">
        <ele>135</ele>
        <time>2021-08-25T14:06:31Z</time>
      </trkpt>
      <trkpt lat="47.09383" lon="2.50865">
        <ele>135</ele>
        <time>2021-08-25T14:06:31Z</time>
      </trkpt>
      <trkpt lat="47.09383" lon="2.50865">
        <ele>135</ele>
        <time>2021-08-25T14:06:31Z</time>
      </trkpt>
      <trkpt lat="47.09383" lon="2.50865">
        <ele>135</ele>
        <time>2021-08-25T14:06:31Z</time>
      </trkpt>
      <trkpt lat="47.09383" lon="2.50865">
        <ele>135</ele>
        <time>2021-08-25T14:06:31Z</time>
      </trkpt>
      <trkpt lat="47.09384" lon="2.50865">
        <ele>135</ele>
        <time>2021-08-25T14:06:31Z</time>
      </trkpt>
      <trkpt lat="47.09384" lon="2.50866">
        <ele>135</ele>
        <time>2021-08-25T14:06:31Z</time>
      </trkpt>
      <trkpt lat="47.09384" lon="2.50866">
        <ele>135</ele>
        <time>2021-08-25T14:06:31Z</time>
      </trkpt>
      <trkpt lat="47.09385" lon="2.50865">
        <ele>135</ele>
        <time>2021-08-25T14:06:31Z</time>
      </trkpt>
      <trkpt lat="47.09385" lon="2.50865">
        <ele>135</ele>
        <time>2021-08-25T14:06:31Z</time>
      </trkpt>
      <trkpt lat="47.09385" lon="2.50865">
        <ele>135</ele>
        <time>2021-08-25T14:06:31Z</time>
      </trkpt>
      <trkpt lat="47.09385" lon="2.50865">
        <ele>135</ele>
        <time>2021-08-25T14:06:31Z</time>
      </trkpt>
      <trkpt lat="47.09385" lon="2.50865">
        <ele>135</ele>
        <time>2021-08-25T14:06:31Z</time>
      </trkpt>
      <trkpt lat="47.09385" lon="2.50865">
        <ele>135</ele>
        <time>2021-08-25T14:06:31Z</time>
      </trkpt>
      <trkpt lat="47.09385" lon="2.50864">
        <ele>135</ele>
        <time>2021-08-25T14:06:31Z</time>
      </trkpt>
      <trkpt lat="47.09385" lon="2.50864">
        <ele>135</ele>
        <time>2021-08-25T14:06:31Z</time>
      </trkpt>
      <trkpt lat="47.09385" lon="2.50864">
        <ele>135</ele>
        <time>2021-08-25T14:06:31Z</time>
      </trkpt>
      <trkpt lat="47.09384" lon="2.50864">
        <ele>135</ele>
        <time>2021-08-25T14:06:31Z</time>
      </trkpt>
      <trkpt lat="47.09384" lon="2.50864">
        <ele>135</ele>
        <time>2021-08-25T14:06:31Z</time>
      </trkpt>
      <trkpt lat="47.09384" lon="2.50862">
        <ele>135</ele>
        <time>2021-08-25T14:06:31Z</time>
      </trkpt>
      <trkpt lat="47.09384" lon="2.50863">
        <ele>135</ele>
        <time>2021-08-25T14:06:31Z</time>
      </trkpt>
      <trkpt lat="47.09384" lon="2.50863">
        <ele>135</ele>
        <time>2021-08-25T14:06:31Z</time>
      </trkpt>
      <trkpt lat="47.09384" lon="2.50864">
        <ele>135</ele>
        <time>2021-08-25T14:06:31Z</time>
      </trkpt>
      <trkpt lat="47.09384" lon="2.50865">
        <ele>135</ele>
        <time>2021-08-25T14:06:31Z</time>
      </trkpt>
      <trkpt lat="47.09384" lon="2.50864">
        <ele>135</ele>
        <time>2021-08-25T14:06:31Z</time>
      </trkpt>
      <trkpt lat="47.09384" lon="2.50865">
        <ele>135</ele>
        <time>2021-08-25T14:06:31Z</time>
      </trkpt>
      <trkpt lat="47.09384" lon="2.50865">
        <ele>135</ele>
        <time>2021-08-25T14:06:31Z</time>
      </trkpt>
      <trkpt lat="47.09385" lon="2.50865">
        <ele>135</ele>
        <time>2021-08-25T14:06:31Z</time>
      </trkpt>
      <trkpt lat="47.09385" lon="2.50864">
        <ele>135</ele>
        <time>2021-08-25T14:06:31Z</time>
      </trkpt>
      <trkpt lat="47.09384" lon="2.50864">
        <ele>135</ele>
        <time>2021-08-25T14:06:31Z</time>
      </trkpt>
      <trkpt lat="47.09385" lon="2.50864">
        <ele>135</ele>
        <time>2021-08-25T14:06:31Z</time>
      </trkpt>
      <trkpt lat="47.09384" lon="2.50864">
        <ele>135</ele>
        <time>2021-08-25T14:06:31Z</time>
      </trkpt>
      <trkpt lat="47.09385" lon="2.50864">
        <ele>135</ele>
        <time>2021-08-25T14:06:31Z</time>
      </trkpt>
      <trkpt lat="47.09385" lon="2.50864">
        <ele>135</ele>
        <time>2021-08-25T14:06:31Z</time>
      </trkpt>
      <trkpt lat="47.09385" lon="2.50864">
        <ele>135</ele>
        <time>2021-08-25T14:06:31Z</time>
      </trkpt>
      <trkpt lat="47.09385" lon="2.50864">
        <ele>135</ele>
        <time>2021-08-25T14:06:31Z</time>
      </trkpt>
      <trkpt lat="47.09386" lon="2.50864">
        <ele>135</ele>
        <time>2021-08-25T14:06:31Z</time>
      </trkpt>
      <trkpt lat="47.09386" lon="2.50864">
        <ele>135</ele>
        <time>2021-08-25T14:06:31Z</time>
      </trkpt>
      <trkpt lat="47.09386" lon="2.50864">
        <ele>135</ele>
        <time>2021-08-25T14:06:31Z</time>
      </trkpt>
      <trkpt lat="47.09386" lon="2.50865">
        <ele>135</ele>
        <time>2021-08-25T14:06:31Z</time>
      </trkpt>
      <trkpt lat="47.09387" lon="2.50865">
        <ele>135</ele>
        <time>2021-08-25T14:06:31Z</time>
      </trkpt>
      <trkpt lat="47.09386" lon="2.50864">
        <ele>135</ele>
        <time>2021-08-25T14:06:31Z</time>
      </trkpt>
      <trkpt lat="47.09386" lon="2.50865">
        <ele>135</ele>
        <time>2021-08-25T14:06:31Z</time>
      </trkpt>
      <trkpt lat="47.09386" lon="2.50865">
        <ele>135</ele>
        <time>2021-08-25T14:06:31Z</time>
      </trkpt>
      <trkpt lat="47.09386" lon="2.50865">
        <ele>135</ele>
        <time>2021-08-25T14:06:31Z</time>
      </trkpt>
      <trkpt lat="47.09386" lon="2.50864">
        <ele>135</ele>
        <time>2021-08-25T14:06:31Z</time>
      </trkpt>
      <trkpt lat="47.09386" lon="2.50864">
        <ele>135</ele>
        <time>2021-08-25T14:06:31Z</time>
      </trkpt>
      <trkpt lat="47.09385" lon="2.50865">
        <ele>135</ele>
        <time>2021-08-25T14:06:31Z</time>
      </trkpt>
      <trkpt lat="47.09385" lon="2.50865">
        <ele>135</ele>
        <time>2021-08-25T14:06:31Z</time>
      </trkpt>
      <trkpt lat="47.09384" lon="2.50865">
        <ele>135</ele>
        <time>2021-08-25T14:06:31Z</time>
      </trkpt>
      <trkpt lat="47.09384" lon="2.50865">
        <ele>135</ele>
        <time>2021-08-25T14:06:31Z</time>
      </trkpt>
      <trkpt lat="47.09384" lon="2.50865">
        <ele>135</ele>
        <time>2021-08-25T14:06:31Z</time>
      </trkpt>
      <trkpt lat="47.09384" lon="2.50864">
        <ele>135</ele>
        <time>2021-08-25T14:06:31Z</time>
      </trkpt>
      <trkpt lat="47.09384" lon="2.50865">
        <ele>135</ele>
        <time>2021-08-25T14:06:31Z</time>
      </trkpt>
      <trkpt lat="47.09384" lon="2.50864">
        <ele>135</ele>
        <time>2021-08-25T14:06:31Z</time>
      </trkpt>
      <trkpt lat="47.09385" lon="2.50864">
        <ele>135</ele>
        <time>2021-08-25T14:06:31Z</time>
      </trkpt>
      <trkpt lat="47.09384" lon="2.50865">
        <ele>135</ele>
        <time>2021-08-25T14:06:31Z</time>
      </trkpt>
      <trkpt lat="47.09384" lon="2.50864">
        <ele>135</ele>
        <time>2021-08-25T14:06:31Z</time>
      </trkpt>
      <trkpt lat="47.09384" lon="2.50864">
        <ele>135</ele>
        <time>2021-08-25T14:06:31Z</time>
      </trkpt>
      <trkpt lat="47.09385" lon="2.50864">
        <ele>135</ele>
        <time>2021-08-25T14:06:31Z</time>
      </trkpt>
      <trkpt lat="47.09385" lon="2.50864">
        <ele>135</ele>
        <time>2021-08-25T14:06:31Z</time>
      </trkpt>
      <trkpt lat="47.09385" lon="2.50863">
        <ele>135</ele>
        <time>2021-08-25T14:06:31Z</time>
      </trkpt>
      <trkpt lat="47.09385" lon="2.50863">
        <ele>135</ele>
        <time>2021-08-25T14:06:31Z</time>
      </trkpt>
      <trkpt lat="47.09385" lon="2.50863">
        <ele>135</ele>
        <time>2021-08-25T14:06:31Z</time>
      </trkpt>
      <trkpt lat="47.09385" lon="2.50863">
        <ele>135</ele>
        <time>2021-08-25T14:06:31Z</time>
      </trkpt>
      <trkpt lat="47.09385" lon="2.50863">
        <ele>135</ele>
        <time>2021-08-25T14:06:31Z</time>
      </trkpt>
      <trkpt lat="47.09385" lon="2.50864">
        <ele>135</ele>
        <time>2021-08-25T14:06:31Z</time>
      </trkpt>
      <trkpt lat="47.09385" lon="2.50863">
        <ele>135</ele>
        <time>2021-08-25T14:06:31Z</time>
      </trkpt>
      <trkpt lat="47.09385" lon="2.50863">
        <ele>135</ele>
        <time>2021-08-25T14:06:31Z</time>
      </trkpt>
      <trkpt lat="47.09385" lon="2.50863">
        <ele>135</ele>
        <time>2021-08-25T14:06:31Z</time>
      </trkpt>
      <trkpt lat="47.09385" lon="2.50864">
        <ele>135</ele>
        <time>2021-08-25T14:06:31Z</time>
      </trkpt>
      <trkpt lat="47.09386" lon="2.50863">
        <ele>135</ele>
        <time>2021-08-25T14:06:31Z</time>
      </trkpt>
      <trkpt lat="47.09386" lon="2.50864">
        <ele>135</ele>
        <time>2021-08-25T14:06:31Z</time>
      </trkpt>
      <trkpt lat="47.09385" lon="2.50864">
        <ele>135</ele>
        <time>2021-08-25T14:06:31Z</time>
      </trkpt>
      <trkpt lat="47.09385" lon="2.50864">
        <ele>135</ele>
        <time>2021-08-25T14:06:31Z</time>
      </trkpt>
      <trkpt lat="47.09385" lon="2.50864">
        <ele>135</ele>
        <time>2021-08-25T14:06:31Z</time>
      </trkpt>
      <trkpt lat="47.09385" lon="2.50864">
        <ele>135</ele>
        <time>2021-08-25T14:06:31Z</time>
      </trkpt>
      <trkpt lat="47.09385" lon="2.50864">
        <ele>135</ele>
        <time>2021-08-25T14:06:31Z</time>
      </trkpt>
      <trkpt lat="47.09385" lon="2.50865">
        <ele>135</ele>
        <time>2021-08-25T14:06:31Z</time>
      </trkpt>
      <trkpt lat="47.09385" lon="2.50866">
        <ele>135</ele>
        <time>2021-08-25T14:06:31Z</time>
      </trkpt>
      <trkpt lat="47.09385" lon="2.50865">
        <ele>135</ele>
        <time>2021-08-25T14:06:31Z</time>
      </trkpt>
      <trkpt lat="47.09385" lon="2.50864">
        <ele>135</ele>
        <time>2021-08-25T14:06:31Z</time>
      </trkpt>
      <trkpt lat="47.09385" lon="2.50864">
        <ele>135</ele>
        <time>2021-08-25T14:06:31Z</time>
      </trkpt>
      <trkpt lat="47.09385" lon="2.50863">
        <ele>135</ele>
        <time>2021-08-25T14:06:31Z</time>
      </trkpt>
      <trkpt lat="47.09385" lon="2.50863">
        <ele>135</ele>
        <time>2021-08-25T14:06:31Z</time>
      </trkpt>
      <trkpt lat="47.09385" lon="2.50863">
        <ele>135</ele>
        <time>2021-08-25T14:06:31Z</time>
      </trkpt>
      <trkpt lat="47.09384" lon="2.50862">
        <ele>135</ele>
        <time>2021-08-25T14:06:31Z</time>
      </trkpt>
      <trkpt lat="47.09384" lon="2.50863">
        <ele>135</ele>
        <time>2021-08-25T14:06:31Z</time>
      </trkpt>
      <trkpt lat="47.09384" lon="2.50862">
        <ele>135</ele>
        <time>2021-08-25T14:06:31Z</time>
      </trkpt>
      <trkpt lat="47.09384" lon="2.50862">
        <ele>135</ele>
        <time>2021-08-25T14:06:31Z</time>
      </trkpt>
      <trkpt lat="47.09384" lon="2.50862">
        <ele>135</ele>
        <time>2021-08-25T14:06:31Z</time>
      </trkpt>
      <trkpt lat="47.09383" lon="2.50861">
        <ele>136</ele>
        <time>2021-08-25T14:06:31Z</time>
      </trkpt>
      <trkpt lat="47.09387" lon="2.50861">
        <ele>136</ele>
        <time>2021-08-25T14:06:31Z</time>
      </trkpt>
      <trkpt lat="47.09388" lon="2.5089">
        <ele>135</ele>
        <time>2021-08-25T14:06:31Z</time>
      </trkpt>
      <trkpt lat="47.09394" lon="2.50928">
        <ele>136</ele>
        <time>2021-08-25T14:06:31Z</time>
      </trkpt>
      <trkpt lat="47.09398" lon="2.50969">
        <ele>137</ele>
        <time>2021-08-25T14:06:31Z</time>
      </trkpt>
      <trkpt lat="47.09405" lon="2.51008">
        <ele>138</ele>
        <time>2021-08-25T14:06:31Z</time>
      </trkpt>
      <trkpt lat="47.09405" lon="2.51034">
        <ele>138</ele>
        <time>2021-08-25T14:06:31Z</time>
      </trkpt>
      <trkpt lat="47.09402" lon="2.5104">
        <ele>138</ele>
        <time>2021-08-25T14:06:31Z</time>
      </trkpt>
      <trkpt lat="47.09377" lon="2.51062">
        <ele>138</ele>
        <time>2021-08-25T14:06:31Z</time>
      </trkpt>
      <trkpt lat="47.09349" lon="2.51086">
        <ele>137</ele>
        <time>2021-08-25T14:06:31Z</time>
      </trkpt>
      <trkpt lat="47.09327" lon="2.51104">
        <ele>137</ele>
        <time>2021-08-25T14:06:31Z</time>
      </trkpt>
      <trkpt lat="47.09321" lon="2.51108">
        <ele>137</ele>
        <time>2021-08-25T14:06:31Z</time>
      </trkpt>
      <trkpt lat="47.09316" lon="2.51113">
        <ele>137</ele>
        <time>2021-08-25T14:06:31Z</time>
      </trkpt>
      <trkpt lat="47.0931" lon="2.51119">
        <ele>136</ele>
        <time>2021-08-25T14:06:31Z</time>
      </trkpt>
      <trkpt lat="47.09304" lon="2.51122">
        <ele>136</ele>
        <time>2021-08-25T14:06:31Z</time>
      </trkpt>
      <trkpt lat="47.09299" lon="2.51127">
        <ele>136</ele>
        <time>2021-08-25T14:06:31Z</time>
      </trkpt>
      <trkpt lat="47.09293" lon="2.51132">
        <ele>135</ele>
        <time>2021-08-25T14:06:31Z</time>
      </trkpt>
      <trkpt lat="47.09288" lon="2.51137">
        <ele>135</ele>
        <time>2021-08-25T14:06:31Z</time>
      </trkpt>
      <trkpt lat="47.09283" lon="2.51142">
        <ele>135</ele>
        <time>2021-08-25T14:06:31Z</time>
      </trkpt>
      <trkpt lat="47.09278" lon="2.51148">
        <ele>135</ele>
        <time>2021-08-25T14:06:31Z</time>
      </trkpt>
      <trkpt lat="47.09252" lon="2.51176">
        <ele>135</ele>
        <time>2021-08-25T14:06:31Z</time>
      </trkpt>
      <trkpt lat="47.09228" lon="2.51206">
        <ele>136</ele>
        <time>2021-08-25T14:06:31Z</time>
      </trkpt>
      <trkpt lat="47.09203" lon="2.51234">
        <ele>136</ele>
        <time>2021-08-25T14:06:31Z</time>
      </trkpt>
      <trkpt lat="47.09179" lon="2.51261">
        <ele>137</ele>
        <time>2021-08-25T14:06:31Z</time>
      </trkpt>
      <trkpt lat="47.09157" lon="2.51288">
        <ele>138</ele>
        <time>2021-08-25T14:06:31Z</time>
      </trkpt>
      <trkpt lat="47.09139" lon="2.5131">
        <ele>140</ele>
        <time>2021-08-25T14:06:31Z</time>
      </trkpt>
      <trkpt lat="47.09134" lon="2.51315">
        <ele>140</ele>
        <time>2021-08-25T14:06:31Z</time>
      </trkpt>
      <trkpt lat="47.0911" lon="2.51342">
        <ele>141</ele>
        <time>2021-08-25T14:06:31Z</time>
      </trkpt>
      <trkpt lat="47.09088" lon="2.51368">
        <ele>142</ele>
        <time>2021-08-25T14:06:31Z</time>
      </trkpt>
      <trkpt lat="47.09066" lon="2.51395">
        <ele>143</ele>
        <time>2021-08-25T14:06:31Z</time>
      </trkpt>
      <trkpt lat="47.09044" lon="2.51422">
        <ele>144</ele>
        <time>2021-08-25T14:06:31Z</time>
      </trkpt>
      <trkpt lat="47.09021" lon="2.51451">
        <ele>143</ele>
        <time>2021-08-25T14:06:31Z</time>
      </trkpt>
      <trkpt lat="47.09001" lon="2.51474">
        <ele>141</ele>
        <time>2021-08-25T14:06:31Z</time>
      </trkpt>
      <trkpt lat="47.08997" lon="2.5148">
        <ele>141</ele>
        <time>2021-08-25T14:06:31Z</time>
      </trkpt>
      <trkpt lat="47.08972" lon="2.51511">
        <ele>140</ele>
        <time>2021-08-25T14:06:31Z</time>
      </trkpt>
      <trkpt lat="47.08946" lon="2.51544">
        <ele>140</ele>
        <time>2021-08-25T14:06:31Z</time>
      </trkpt>
      <trkpt lat="47.08917" lon="2.51578">
        <ele>138</ele>
        <time>2021-08-25T14:06:31Z</time>
      </trkpt>
      <trkpt lat="47.0889" lon="2.51611">
        <ele>137</ele>
        <time>2021-08-25T14:06:31Z</time>
      </trkpt>
      <trkpt lat="47.08861" lon="2.51642">
        <ele>136</ele>
        <time>2021-08-25T14:06:31Z</time>
      </trkpt>
      <trkpt lat="47.08837" lon="2.51662">
        <ele>136</ele>
        <time>2021-08-25T14:06:31Z</time>
      </trkpt>
      <trkpt lat="47.08831" lon="2.51666">
        <ele>136</ele>
        <time>2021-08-25T14:06:31Z</time>
      </trkpt>
      <trkpt lat="47.08818" lon="2.51673">
        <ele>136</ele>
        <time>2021-08-25T14:06:31Z</time>
      </trkpt>
      <trkpt lat="47.08811" lon="2.51677">
        <ele>136</ele>
        <time>2021-08-25T14:06:31Z</time>
      </trkpt>
      <trkpt lat="47.08805" lon="2.5168">
        <ele>137</ele>
        <time>2021-08-25T14:06:31Z</time>
      </trkpt>
      <trkpt lat="47.08798" lon="2.51684">
        <ele>137</ele>
        <time>2021-08-25T14:06:31Z</time>
      </trkpt>
      <trkpt lat="47.0879" lon="2.51687">
        <ele>137</ele>
        <time>2021-08-25T14:06:31Z</time>
      </trkpt>
      <trkpt lat="47.08783" lon="2.5169">
        <ele>137</ele>
        <time>2021-08-25T14:06:31Z</time>
      </trkpt>
      <trkpt lat="47.08776" lon="2.51692">
        <ele>137</ele>
        <time>2021-08-25T14:06:31Z</time>
      </trkpt>
      <trkpt lat="47.08769" lon="2.51693">
        <ele>137</ele>
        <time>2021-08-25T14:06:31Z</time>
      </trkpt>
      <trkpt lat="47.08762" lon="2.51694">
        <ele>138</ele>
        <time>2021-08-25T14:06:31Z</time>
      </trkpt>
      <trkpt lat="47.08755" lon="2.51694">
        <ele>139</ele>
        <time>2021-08-25T14:06:31Z</time>
      </trkpt>
      <trkpt lat="47.08748" lon="2.51695">
        <ele>140</ele>
        <time>2021-08-25T14:06:31Z</time>
      </trkpt>
      <trkpt lat="47.08741" lon="2.51695">
        <ele>140</ele>
        <time>2021-08-25T14:06:31Z</time>
      </trkpt>
      <trkpt lat="47.08734" lon="2.51695">
        <ele>141</ele>
        <time>2021-08-25T14:06:31Z</time>
      </trkpt>
      <trkpt lat="47.08726" lon="2.51696">
        <ele>142</ele>
        <time>2021-08-25T14:06:31Z</time>
      </trkpt>
      <trkpt lat="47.08719" lon="2.51695">
        <ele>143</ele>
        <time>2021-08-25T14:06:31Z</time>
      </trkpt>
      <trkpt lat="47.08712" lon="2.51694">
        <ele>143</ele>
        <time>2021-08-25T14:06:31Z</time>
      </trkpt>
      <trkpt lat="47.08704" lon="2.51694">
        <ele>144</ele>
        <time>2021-08-25T14:06:31Z</time>
      </trkpt>
      <trkpt lat="47.08697" lon="2.51693">
        <ele>144</ele>
        <time>2021-08-25T14:06:31Z</time>
      </trkpt>
      <trkpt lat="47.08689" lon="2.51693">
        <ele>144</ele>
        <time>2021-08-25T14:06:31Z</time>
      </trkpt>
      <trkpt lat="47.08682" lon="2.51692">
        <ele>144</ele>
        <time>2021-08-25T14:06:31Z</time>
      </trkpt>
      <trkpt lat="47.08674" lon="2.51692">
        <ele>144</ele>
        <time>2021-08-25T14:06:31Z</time>
      </trkpt>
      <trkpt lat="47.08666" lon="2.51691">
        <ele>143</ele>
        <time>2021-08-25T14:06:31Z</time>
      </trkpt>
      <trkpt lat="47.08658" lon="2.5169">
        <ele>143</ele>
        <time>2021-08-25T14:06:31Z</time>
      </trkpt>
      <trkpt lat="47.08651" lon="2.5169">
        <ele>143</ele>
        <time>2021-08-25T14:06:31Z</time>
      </trkpt>
      <trkpt lat="47.08643" lon="2.5169">
        <ele>143</ele>
        <time>2021-08-25T14:06:31Z</time>
      </trkpt>
      <trkpt lat="47.08635" lon="2.51689">
        <ele>143</ele>
        <time>2021-08-25T14:06:31Z</time>
      </trkpt>
      <trkpt lat="47.08628" lon="2.5169">
        <ele>143</ele>
        <time>2021-08-25T14:06:31Z</time>
      </trkpt>
      <trkpt lat="47.0862" lon="2.5169">
        <ele>143</ele>
        <time>2021-08-25T14:06:31Z</time>
      </trkpt>
      <trkpt lat="47.08613" lon="2.51689">
        <ele>143</ele>
        <time>2021-08-25T14:06:31Z</time>
      </trkpt>
      <trkpt lat="47.08606" lon="2.51689">
        <ele>143</ele>
        <time>2021-08-25T14:06:31Z</time>
      </trkpt>
      <trkpt lat="47.08599" lon="2.51689">
        <ele>143</ele>
        <time>2021-08-25T14:06:31Z</time>
      </trkpt>
      <trkpt lat="47.08591" lon="2.51688">
        <ele>142</ele>
        <time>2021-08-25T14:06:31Z</time>
      </trkpt>
      <trkpt lat="47.08584" lon="2.51688">
        <ele>142</ele>
        <time>2021-08-25T14:06:31Z</time>
      </trkpt>
      <trkpt lat="47.08577" lon="2.51688">
        <ele>141</ele>
        <time>2021-08-25T14:06:31Z</time>
      </trkpt>
      <trkpt lat="47.0857" lon="2.51687">
        <ele>140</ele>
        <time>2021-08-25T14:06:31Z</time>
      </trkpt>
      <trkpt lat="47.08563" lon="2.51686">
        <ele>139</ele>
        <time>2021-08-25T14:06:31Z</time>
      </trkpt>
      <trkpt lat="47.08556" lon="2.51686">
        <ele>138</ele>
        <time>2021-08-25T14:06:31Z</time>
      </trkpt>
      <trkpt lat="47.0855" lon="2.51685">
        <ele>138</ele>
        <time>2021-08-25T14:06:31Z</time>
      </trkpt>
      <trkpt lat="47.08543" lon="2.51684">
        <ele>137</ele>
        <time>2021-08-25T14:06:31Z</time>
      </trkpt>
      <trkpt lat="47.08537" lon="2.51683">
        <ele>137</ele>
        <time>2021-08-25T14:06:31Z</time>
      </trkpt>
      <trkpt lat="47.08531" lon="2.51683">
        <ele>137</ele>
        <time>2021-08-25T14:06:31Z</time>
      </trkpt>
      <trkpt lat="47.08524" lon="2.51682">
        <ele>137</ele>
        <time>2021-08-25T14:06:31Z</time>
      </trkpt>
      <trkpt lat="47.08517" lon="2.51681">
        <ele>137</ele>
        <time>2021-08-25T14:06:31Z</time>
      </trkpt>
      <trkpt lat="47.08511" lon="2.51681">
        <ele>137</ele>
        <time>2021-08-25T14:06:31Z</time>
      </trkpt>
      <trkpt lat="47.08505" lon="2.51681">
        <ele>137</ele>
        <time>2021-08-25T14:06:31Z</time>
      </trkpt>
      <trkpt lat="47.08499" lon="2.5168">
        <ele>138</ele>
        <time>2021-08-25T14:06:31Z</time>
      </trkpt>
      <trkpt lat="47.08493" lon="2.5168">
        <ele>138</ele>
        <time>2021-08-25T14:06:31Z</time>
      </trkpt>
      <trkpt lat="47.08487" lon="2.5168">
        <ele>138</ele>
        <time>2021-08-25T14:06:31Z</time>
      </trkpt>
      <trkpt lat="47.0848" lon="2.5168">
        <ele>138</ele>
        <time>2021-08-25T14:06:31Z</time>
      </trkpt>
      <trkpt lat="47.08474" lon="2.51679">
        <ele>138</ele>
        <time>2021-08-25T14:06:31Z</time>
      </trkpt>
      <trkpt lat="47.08468" lon="2.51679">
        <ele>138</ele>
        <time>2021-08-25T14:06:31Z</time>
      </trkpt>
      <trkpt lat="47.08461" lon="2.51679">
        <ele>138</ele>
        <time>2021-08-25T14:06:31Z</time>
      </trkpt>
      <trkpt lat="47.08455" lon="2.51679">
        <ele>137</ele>
        <time>2021-08-25T14:06:31Z</time>
      </trkpt>
      <trkpt lat="47.08449" lon="2.51679">
        <ele>137</ele>
        <time>2021-08-25T14:06:31Z</time>
      </trkpt>
      <trkpt lat="47.08442" lon="2.51678">
        <ele>137</ele>
        <time>2021-08-25T14:06:31Z</time>
      </trkpt>
      <trkpt lat="47.08436" lon="2.51678">
        <ele>137</ele>
        <time>2021-08-25T14:06:31Z</time>
      </trkpt>
      <trkpt lat="47.08429" lon="2.51677">
        <ele>137</ele>
        <time>2021-08-25T14:06:31Z</time>
      </trkpt>
      <trkpt lat="47.08423" lon="2.51674">
        <ele>137</ele>
        <time>2021-08-25T14:06:31Z</time>
      </trkpt>
      <trkpt lat="47.08416" lon="2.51672">
        <ele>138</ele>
        <time>2021-08-25T14:06:31Z</time>
      </trkpt>
      <trkpt lat="47.0841" lon="2.5167">
        <ele>138</ele>
        <time>2021-08-25T14:06:31Z</time>
      </trkpt>
      <trkpt lat="47.08403" lon="2.51667">
        <ele>138</ele>
        <time>2021-08-25T14:06:31Z</time>
      </trkpt>
      <trkpt lat="47.08373" lon="2.51649">
        <ele>140</ele>
        <time>2021-08-25T14:06:31Z</time>
      </trkpt>
      <trkpt lat="47.08343" lon="2.51633">
        <ele>141</ele>
        <time>2021-08-25T14:06:31Z</time>
      </trkpt>
      <trkpt lat="47.08312" lon="2.51636">
        <ele>141</ele>
        <time>2021-08-25T14:06:31Z</time>
      </trkpt>
      <trkpt lat="47.08296" lon="2.51672">
        <ele>140</ele>
        <time>2021-08-25T14:06:31Z</time>
      </trkpt>
      <trkpt lat="47.08269" lon="2.51664">
        <ele>139</ele>
        <time>2021-08-25T14:06:31Z</time>
      </trkpt>
      <trkpt lat="47.0825" lon="2.51665">
        <ele>138</ele>
        <time>2021-08-25T14:06:31Z</time>
      </trkpt>
      <trkpt lat="47.08245" lon="2.51671">
        <ele>138</ele>
        <time>2021-08-25T14:06:31Z</time>
      </trkpt>
      <trkpt lat="47.08233" lon="2.51714">
        <ele>138</ele>
        <time>2021-08-25T14:06:31Z</time>
      </trkpt>
      <trkpt lat="47.08219" lon="2.51755">
        <ele>137</ele>
        <time>2021-08-25T14:06:31Z</time>
      </trkpt>
      <trkpt lat="47.08208" lon="2.51797">
        <ele>138</ele>
        <time>2021-08-25T14:06:31Z</time>
      </trkpt>
      <trkpt lat="47.08194" lon="2.5184">
        <ele>139</ele>
        <time>2021-08-25T14:06:31Z</time>
      </trkpt>
      <trkpt lat="47.08181" lon="2.51881">
        <ele>139</ele>
        <time>2021-08-25T14:06:31Z</time>
      </trkpt>
      <trkpt lat="47.0817" lon="2.51916">
        <ele>139</ele>
        <time>2021-08-25T14:06:31Z</time>
      </trkpt>
      <trkpt lat="47.08167" lon="2.51924">
        <ele>139</ele>
        <time>2021-08-25T14:06:31Z</time>
      </trkpt>
      <trkpt lat="47.08165" lon="2.51933">
        <ele>138</ele>
        <time>2021-08-25T14:06:31Z</time>
      </trkpt>
      <trkpt lat="47.08162" lon="2.51941">
        <ele>138</ele>
        <time>2021-08-25T14:06:31Z</time>
      </trkpt>
      <trkpt lat="47.08159" lon="2.51949">
        <ele>139</ele>
        <time>2021-08-25T14:06:31Z</time>
      </trkpt>
      <trkpt lat="47.08155" lon="2.51957">
        <ele>139</ele>
        <time>2021-08-25T14:06:31Z</time>
      </trkpt>
      <trkpt lat="47.08153" lon="2.51966">
        <ele>140</ele>
        <time>2021-08-25T14:06:31Z</time>
      </trkpt>
      <trkpt lat="47.0815" lon="2.51974">
        <ele>140</ele>
        <time>2021-08-25T14:06:31Z</time>
      </trkpt>
      <trkpt lat="47.08147" lon="2.51983">
        <ele>140</ele>
        <time>2021-08-25T14:06:31Z</time>
      </trkpt>
      <trkpt lat="47.08144" lon="2.51991">
        <ele>141</ele>
        <time>2021-08-25T14:06:31Z</time>
      </trkpt>
      <trkpt lat="47.08141" lon="2.51999">
        <ele>141</ele>
        <time>2021-08-25T14:06:31Z</time>
      </trkpt>
      <trkpt lat="47.08138" lon="2.52008">
        <ele>141</ele>
        <time>2021-08-25T14:06:31Z</time>
      </trkpt>
      <trkpt lat="47.08135" lon="2.52017">
        <ele>141</ele>
        <time>2021-08-25T14:06:31Z</time>
      </trkpt>
      <trkpt lat="47.08132" lon="2.52025">
        <ele>141</ele>
        <time>2021-08-25T14:06:31Z</time>
      </trkpt>
      <trkpt lat="47.08128" lon="2.52033">
        <ele>141</ele>
        <time>2021-08-25T14:06:31Z</time>
      </trkpt>
      <trkpt lat="47.08126" lon="2.52042">
        <ele>140</ele>
        <time>2021-08-25T14:06:31Z</time>
      </trkpt>
      <trkpt lat="47.08123" lon="2.52051">
        <ele>140</ele>
        <time>2021-08-25T14:06:31Z</time>
      </trkpt>
      <trkpt lat="47.0812" lon="2.5206">
        <ele>140</ele>
        <time>2021-08-25T14:06:31Z</time>
      </trkpt>
      <trkpt lat="47.08116" lon="2.52068">
        <ele>140</ele>
        <time>2021-08-25T14:06:31Z</time>
      </trkpt>
      <trkpt lat="47.08115" lon="2.52076">
        <ele>140</ele>
        <time>2021-08-25T14:06:31Z</time>
      </trkpt>
      <trkpt lat="47.08112" lon="2.52084">
        <ele>140</ele>
        <time>2021-08-25T14:06:31Z</time>
      </trkpt>
      <trkpt lat="47.08109" lon="2.52093">
        <ele>139</ele>
        <time>2021-08-25T14:06:31Z</time>
      </trkpt>
      <trkpt lat="47.08106" lon="2.52101">
        <ele>139</ele>
        <time>2021-08-25T14:06:31Z</time>
      </trkpt>
      <trkpt lat="47.08103" lon="2.5211">
        <ele>139</ele>
        <time>2021-08-25T14:06:31Z</time>
      </trkpt>
      <trkpt lat="47.08101" lon="2.52118">
        <ele>140</ele>
        <time>2021-08-25T14:06:31Z</time>
      </trkpt>
      <trkpt lat="47.08098" lon="2.52127">
        <ele>140</ele>
        <time>2021-08-25T14:06:31Z</time>
      </trkpt>
      <trkpt lat="47.08097" lon="2.52138">
        <ele>141</ele>
        <time>2021-08-25T14:06:31Z</time>
      </trkpt>
      <trkpt lat="47.08093" lon="2.52147">
        <ele>141</ele>
        <time>2021-08-25T14:06:31Z</time>
      </trkpt>
      <trkpt lat="47.08091" lon="2.52155">
        <ele>141</ele>
        <time>2021-08-25T14:06:31Z</time>
      </trkpt>
      <trkpt lat="47.08088" lon="2.52164">
        <ele>142</ele>
        <time>2021-08-25T14:06:31Z</time>
      </trkpt>
      <trkpt lat="47.08085" lon="2.52172">
        <ele>142</ele>
        <time>2021-08-25T14:06:31Z</time>
      </trkpt>
      <trkpt lat="47.08081" lon="2.52181">
        <ele>141</ele>
        <time>2021-08-25T14:06:31Z</time>
      </trkpt>
      <trkpt lat="47.08079" lon="2.52189">
        <ele>141</ele>
        <time>2021-08-25T14:06:31Z</time>
      </trkpt>
      <trkpt lat="47.08076" lon="2.52198">
        <ele>141</ele>
        <time>2021-08-25T14:06:31Z</time>
      </trkpt>
      <trkpt lat="47.08072" lon="2.52207">
        <ele>140</ele>
        <time>2021-08-25T14:06:31Z</time>
      </trkpt>
      <trkpt lat="47.08069" lon="2.52215">
        <ele>140</ele>
        <time>2021-08-25T14:06:31Z</time>
      </trkpt>
      <trkpt lat="47.08066" lon="2.52224">
        <ele>139</ele>
        <time>2021-08-25T14:06:31Z</time>
      </trkpt>
      <trkpt lat="47.08063" lon="2.52233">
        <ele>139</ele>
        <time>2021-08-25T14:06:31Z</time>
      </trkpt>
      <trkpt lat="47.0806" lon="2.52241">
        <ele>138</ele>
        <time>2021-08-25T14:06:31Z</time>
      </trkpt>
      <trkpt lat="47.08057" lon="2.5225">
        <ele>138</ele>
        <time>2021-08-25T14:06:31Z</time>
      </trkpt>
      <trkpt lat="47.08054" lon="2.52258">
        <ele>137</ele>
        <time>2021-08-25T14:06:31Z</time>
      </trkpt>
      <trkpt lat="47.08051" lon="2.52267">
        <ele>137</ele>
        <time>2021-08-25T14:06:31Z</time>
      </trkpt>
      <trkpt lat="47.08048" lon="2.52276">
        <ele>136</ele>
        <time>2021-08-25T14:06:31Z</time>
      </trkpt>
      <trkpt lat="47.08045" lon="2.52284">
        <ele>136</ele>
        <time>2021-08-25T14:06:31Z</time>
      </trkpt>
      <trkpt lat="47.08042" lon="2.52293">
        <ele>136</ele>
        <time>2021-08-25T14:06:31Z</time>
      </trkpt>
      <trkpt lat="47.0804" lon="2.52303">
        <ele>136</ele>
        <time>2021-08-25T14:06:31Z</time>
      </trkpt>
      <trkpt lat="47.08037" lon="2.52312">
        <ele>137</ele>
        <time>2021-08-25T14:06:31Z</time>
      </trkpt>
      <trkpt lat="47.08034" lon="2.5232">
        <ele>137</ele>
        <time>2021-08-25T14:06:31Z</time>
      </trkpt>
      <trkpt lat="47.08031" lon="2.52328">
        <ele>137</ele>
        <time>2021-08-25T14:06:31Z</time>
      </trkpt>
      <trkpt lat="47.08028" lon="2.52336">
        <ele>137</ele>
        <time>2021-08-25T14:06:31Z</time>
      </trkpt>
      <trkpt lat="47.08025" lon="2.52345">
        <ele>137</ele>
        <time>2021-08-25T14:06:31Z</time>
      </trkpt>
      <trkpt lat="47.08022" lon="2.52354">
        <ele>137</ele>
        <time>2021-08-25T14:06:31Z</time>
      </trkpt>
      <trkpt lat="47.08019" lon="2.52362">
        <ele>137</ele>
        <time>2021-08-25T14:06:31Z</time>
      </trkpt>
      <trkpt lat="47.08017" lon="2.52371">
        <ele>137</ele>
        <time>2021-08-25T14:06:31Z</time>
      </trkpt>
      <trkpt lat="47.08014" lon="2.5238">
        <ele>138</ele>
        <time>2021-08-25T14:06:31Z</time>
      </trkpt>
      <trkpt lat="47.08011" lon="2.52389">
        <ele>138</ele>
        <time>2021-08-25T14:06:31Z</time>
      </trkpt>
      <trkpt lat="47.08008" lon="2.52397">
        <ele>138</ele>
        <time>2021-08-25T14:06:31Z</time>
      </trkpt>
      <trkpt lat="47.08005" lon="2.52406">
        <ele>138</ele>
        <time>2021-08-25T14:06:31Z</time>
      </trkpt>
      <trkpt lat="47.08002" lon="2.52414">
        <ele>138</ele>
        <time>2021-08-25T14:06:31Z</time>
      </trkpt>
      <trkpt lat="47.07999" lon="2.52423">
        <ele>138</ele>
        <time>2021-08-25T14:06:31Z</time>
      </trkpt>
      <trkpt lat="47.07996" lon="2.52431">
        <ele>138</ele>
        <time>2021-08-25T14:06:31Z</time>
      </trkpt>
      <trkpt lat="47.07994" lon="2.52439">
        <ele>138</ele>
        <time>2021-08-25T14:06:31Z</time>
      </trkpt>
      <trkpt lat="47.07991" lon="2.52448">
        <ele>138</ele>
        <time>2021-08-25T14:06:31Z</time>
      </trkpt>
      <trkpt lat="47.07977" lon="2.5249">
        <ele>136</ele>
        <time>2021-08-25T14:06:31Z</time>
      </trkpt>
      <trkpt lat="47.07963" lon="2.52531">
        <ele>136</ele>
        <time>2021-08-25T14:06:31Z</time>
      </trkpt>
      <trkpt lat="47.07939" lon="2.52561">
        <ele>138</ele>
        <time>2021-08-25T14:06:31Z</time>
      </trkpt>
      <trkpt lat="47.07905" lon="2.52558">
        <ele>138</ele>
        <time>2021-08-25T14:06:31Z</time>
      </trkpt>
      <trkpt lat="47.07872" lon="2.5253">
        <ele>138</ele>
        <time>2021-08-25T14:06:31Z</time>
      </trkpt>
      <trkpt lat="47.07845" lon="2.52508">
        <ele>137</ele>
        <time>2021-08-25T14:06:31Z</time>
      </trkpt>
      <trkpt lat="47.07838" lon="2.52503">
        <ele>137</ele>
        <time>2021-08-25T14:06:31Z</time>
      </trkpt>
      <trkpt lat="47.07804" lon="2.52486">
        <ele>135</ele>
        <time>2021-08-25T14:06:31Z</time>
      </trkpt>
      <trkpt lat="47.07769" lon="2.52472">
        <ele>134</ele>
        <time>2021-08-25T14:06:31Z</time>
      </trkpt>
      <trkpt lat="47.07731" lon="2.52469">
        <ele>135</ele>
        <time>2021-08-25T14:06:31Z</time>
      </trkpt>
      <trkpt lat="47.07692" lon="2.52475">
        <ele>135</ele>
        <time>2021-08-25T14:06:31Z</time>
      </trkpt>
      <trkpt lat="47.07655" lon="2.52487">
        <ele>135</ele>
        <time>2021-08-25T14:06:31Z</time>
      </trkpt>
      <trkpt lat="47.07628" lon="2.52495">
        <ele>136</ele>
        <time>2021-08-25T14:06:31Z</time>
      </trkpt>
      <trkpt lat="47.0762" lon="2.52496">
        <ele>136</ele>
        <time>2021-08-25T14:06:31Z</time>
      </trkpt>
      <trkpt lat="47.07583" lon="2.52499">
        <ele>135</ele>
        <time>2021-08-25T14:06:31Z</time>
      </trkpt>
      <trkpt lat="47.0755" lon="2.52497">
        <ele>134</ele>
        <time>2021-08-25T14:06:31Z</time>
      </trkpt>
      <trkpt lat="47.07517" lon="2.52492">
        <ele>134</ele>
        <time>2021-08-25T14:06:31Z</time>
      </trkpt>
      <trkpt lat="47.07485" lon="2.52477">
        <ele>134</ele>
        <time>2021-08-25T14:06:31Z</time>
      </trkpt>
      <trkpt lat="47.07454" lon="2.52454">
        <ele>134</ele>
        <time>2021-08-25T14:06:31Z</time>
      </trkpt>
      <trkpt lat="47.07431" lon="2.52433">
        <ele>135</ele>
        <time>2021-08-25T14:06:31Z</time>
      </trkpt>
      <trkpt lat="47.07425" lon="2.52429">
        <ele>136</ele>
        <time>2021-08-25T14:06:31Z</time>
      </trkpt>
      <trkpt lat="47.0742" lon="2.52423">
        <ele>136</ele>
        <time>2021-08-25T14:06:31Z</time>
      </trkpt>
      <trkpt lat="47.07415" lon="2.52417">
        <ele>137</ele>
        <time>2021-08-25T14:06:31Z</time>
      </trkpt>
      <trkpt lat="47.0741" lon="2.52411">
        <ele>137</ele>
        <time>2021-08-25T14:06:31Z</time>
      </trkpt>
      <trkpt lat="47.07406" lon="2.52407">
        <ele>137</ele>
        <time>2021-08-25T14:06:31Z</time>
      </trkpt>
      <trkpt lat="47.07401" lon="2.52402">
        <ele>137</ele>
        <time>2021-08-25T14:06:31Z</time>
      </trkpt>
      <trkpt lat="47.07396" lon="2.52396">
        <ele>137</ele>
        <time>2021-08-25T14:06:31Z</time>
      </trkpt>
      <trkpt lat="47.07391" lon="2.52389">
        <ele>137</ele>
        <time>2021-08-25T14:06:31Z</time>
      </trkpt>
      <trkpt lat="47.07381" lon="2.52379">
        <ele>137</ele>
        <time>2021-08-25T14:06:31Z</time>
      </trkpt>
      <trkpt lat="47.07376" lon="2.52373">
        <ele>137</ele>
        <time>2021-08-25T14:06:31Z</time>
      </trkpt>
      <trkpt lat="47.07371" lon="2.52367">
        <ele>137</ele>
        <time>2021-08-25T14:06:31Z</time>
      </trkpt>
      <trkpt lat="47.07366" lon="2.52363">
        <ele>137</ele>
        <time>2021-08-25T14:06:31Z</time>
      </trkpt>
      <trkpt lat="47.07361" lon="2.52357">
        <ele>138</ele>
        <time>2021-08-25T14:06:31Z</time>
      </trkpt>
      <trkpt lat="47.07356" lon="2.52352">
        <ele>138</ele>
        <time>2021-08-25T14:06:31Z</time>
      </trkpt>
      <trkpt lat="47.07351" lon="2.52346">
        <ele>138</ele>
        <time>2021-08-25T14:06:31Z</time>
      </trkpt>
      <trkpt lat="47.07347" lon="2.5234">
        <ele>138</ele>
        <time>2021-08-25T14:06:31Z</time>
      </trkpt>
      <trkpt lat="47.07326" lon="2.52311">
        <ele>140</ele>
        <time>2021-08-25T14:06:31Z</time>
      </trkpt>
      <trkpt lat="47.0732" lon="2.5227">
        <ele>142</ele>
        <time>2021-08-25T14:06:31Z</time>
      </trkpt>
      <trkpt lat="47.07322" lon="2.52225">
        <ele>143</ele>
        <time>2021-08-25T14:06:31Z</time>
      </trkpt>
      <trkpt lat="47.07331" lon="2.52177">
        <ele>144</ele>
        <time>2021-08-25T14:06:31Z</time>
      </trkpt>
      <trkpt lat="47.07338" lon="2.5213">
        <ele>145</ele>
        <time>2021-08-25T14:06:31Z</time>
      </trkpt>
      <trkpt lat="47.07342" lon="2.52091">
        <ele>146</ele>
        <time>2021-08-25T14:06:31Z</time>
      </trkpt>
      <trkpt lat="47.07344" lon="2.52082">
        <ele>146</ele>
        <time>2021-08-25T14:06:31Z</time>
      </trkpt>
      <trkpt lat="47.0735" lon="2.52036">
        <ele>146</ele>
        <time>2021-08-25T14:06:31Z</time>
      </trkpt>
      <trkpt lat="47.07355" lon="2.51991">
        <ele>144</ele>
        <time>2021-08-25T14:06:31Z</time>
      </trkpt>
      <trkpt lat="47.07361" lon="2.51945">
        <ele>143</ele>
        <time>2021-08-25T14:06:31Z</time>
      </trkpt>
      <trkpt lat="47.07365" lon="2.51899">
        <ele>142</ele>
        <time>2021-08-25T14:06:31Z</time>
      </trkpt>
      <trkpt lat="47.07368" lon="2.51851">
        <ele>142</ele>
        <time>2021-08-25T14:06:31Z</time>
      </trkpt>
      <trkpt lat="47.07368" lon="2.5181">
        <ele>141</ele>
        <time>2021-08-25T14:06:31Z</time>
      </trkpt>
      <trkpt lat="47.07369" lon="2.518">
        <ele>140</ele>
        <time>2021-08-25T14:06:31Z</time>
      </trkpt>
      <trkpt lat="47.07369" lon="2.5179">
        <ele>140</ele>
        <time>2021-08-25T14:06:31Z</time>
      </trkpt>
      <trkpt lat="47.0737" lon="2.5178">
        <ele>140</ele>
        <time>2021-08-25T14:06:31Z</time>
      </trkpt>
      <trkpt lat="47.0737" lon="2.5177">
        <ele>140</ele>
        <time>2021-08-25T14:06:31Z</time>
      </trkpt>
      <trkpt lat="47.07371" lon="2.5176">
        <ele>140</ele>
        <time>2021-08-25T14:06:31Z</time>
      </trkpt>
      <trkpt lat="47.07371" lon="2.5175">
        <ele>140</ele>
        <time>2021-08-25T14:06:31Z</time>
      </trkpt>
      <trkpt lat="47.07372" lon="2.51739">
        <ele>140</ele>
        <time>2021-08-25T14:06:31Z</time>
      </trkpt>
      <trkpt lat="47.07373" lon="2.51729">
        <ele>141</ele>
        <time>2021-08-25T14:06:31Z</time>
      </trkpt>
      <trkpt lat="47.07374" lon="2.51718">
        <ele>141</ele>
        <time>2021-08-25T14:06:31Z</time>
      </trkpt>
      <trkpt lat="47.07374" lon="2.51707">
        <ele>140</ele>
        <time>2021-08-25T14:06:31Z</time>
      </trkpt>
      <trkpt lat="47.07377" lon="2.51652">
        <ele>140</ele>
        <time>2021-08-25T14:06:31Z</time>
      </trkpt>
      <trkpt lat="47.07379" lon="2.51594">
        <ele>139</ele>
        <time>2021-08-25T14:06:31Z</time>
      </trkpt>
      <trkpt lat="47.07383" lon="2.51536">
        <ele>138</ele>
        <time>2021-08-25T14:06:31Z</time>
      </trkpt>
      <trkpt lat="47.07384" lon="2.51479">
        <ele>138</ele>
        <time>2021-08-25T14:06:31Z</time>
      </trkpt>
      <trkpt lat="47.07387" lon="2.51424">
        <ele>136</ele>
        <time>2021-08-25T14:06:31Z</time>
      </trkpt>
      <trkpt lat="47.07388" lon="2.51379">
        <ele>136</ele>
        <time>2021-08-25T14:06:31Z</time>
      </trkpt>
      <trkpt lat="47.07389" lon="2.51367">
        <ele>136</ele>
        <time>2021-08-25T14:06:31Z</time>
      </trkpt>
      <trkpt lat="47.0739" lon="2.51345">
        <ele>136</ele>
        <time>2021-08-25T14:06:31Z</time>
      </trkpt>
      <trkpt lat="47.07391" lon="2.51333">
        <ele>136</ele>
        <time>2021-08-25T14:06:31Z</time>
      </trkpt>
      <trkpt lat="47.07392" lon="2.51322">
        <ele>136</ele>
        <time>2021-08-25T14:06:31Z</time>
      </trkpt>
      <trkpt lat="47.07392" lon="2.5131">
        <ele>136</ele>
        <time>2021-08-25T14:06:31Z</time>
      </trkpt>
      <trkpt lat="47.07393" lon="2.51299">
        <ele>136</ele>
        <time>2021-08-25T14:06:31Z</time>
      </trkpt>
      <trkpt lat="47.07393" lon="2.51287">
        <ele>136</ele>
        <time>2021-08-25T14:06:31Z</time>
      </trkpt>
      <trkpt lat="47.07395" lon="2.51276">
        <ele>136</ele>
        <time>2021-08-25T14:06:31Z</time>
      </trkpt>
      <trkpt lat="47.07396" lon="2.51264">
        <ele>136</ele>
        <time>2021-08-25T14:06:31Z</time>
      </trkpt>
      <trkpt lat="47.07397" lon="2.51252">
        <ele>136</ele>
        <time>2021-08-25T14:06:31Z</time>
      </trkpt>
      <trkpt lat="47.07397" lon="2.51241">
        <ele>136</ele>
        <time>2021-08-25T14:06:31Z</time>
      </trkpt>
      <trkpt lat="47.07403" lon="2.51182">
        <ele>136</ele>
        <time>2021-08-25T14:06:31Z</time>
      </trkpt>
      <trkpt lat="47.07406" lon="2.51127">
        <ele>137</ele>
        <time>2021-08-25T14:06:31Z</time>
      </trkpt>
      <trkpt lat="47.07409" lon="2.51078">
        <ele>139</ele>
        <time>2021-08-25T14:06:31Z</time>
      </trkpt>
      <trkpt lat="47.07412" lon="2.51029">
        <ele>139</ele>
        <time>2021-08-25T14:06:31Z</time>
      </trkpt>
      <trkpt lat="47.07416" lon="2.5098">
        <ele>135</ele>
        <time>2021-08-25T14:06:31Z</time>
      </trkpt>
      <trkpt lat="47.07418" lon="2.5094">
        <ele>134</ele>
        <time>2021-08-25T14:06:31Z</time>
      </trkpt>
      <trkpt lat="47.07419" lon="2.5093">
        <ele>134</ele>
        <time>2021-08-25T14:06:31Z</time>
      </trkpt>
      <trkpt lat="47.07422" lon="2.50881">
        <ele>134</ele>
        <time>2021-08-25T14:06:31Z</time>
      </trkpt>
      <trkpt lat="47.07429" lon="2.50833">
        <ele>135</ele>
        <time>2021-08-25T14:06:31Z</time>
      </trkpt>
      <trkpt lat="47.07436" lon="2.50786">
        <ele>135</ele>
        <time>2021-08-25T14:06:31Z</time>
      </trkpt>
      <trkpt lat="47.07443" lon="2.50738">
        <ele>135</ele>
        <time>2021-08-25T14:06:31Z</time>
      </trkpt>
      <trkpt lat="47.0745" lon="2.50693">
        <ele>135</ele>
        <time>2021-08-25T14:06:31Z</time>
      </trkpt>
      <trkpt lat="47.07455" lon="2.50655">
        <ele>135</ele>
        <time>2021-08-25T14:06:31Z</time>
      </trkpt>
      <trkpt lat="47.07457" lon="2.50646">
        <ele>135</ele>
        <time>2021-08-25T14:06:31Z</time>
      </trkpt>
      <trkpt lat="47.0746" lon="2.50596">
        <ele>133</ele>
        <time>2021-08-25T14:06:31Z</time>
      </trkpt>
      <trkpt lat="47.07462" lon="2.50546">
        <ele>132</ele>
        <time>2021-08-25T14:06:31Z</time>
      </trkpt>
      <trkpt lat="47.07466" lon="2.50498">
        <ele>133</ele>
        <time>2021-08-25T14:06:31Z</time>
      </trkpt>
      <trkpt lat="47.07468" lon="2.50451">
        <ele>135</ele>
        <time>2021-08-25T14:06:31Z</time>
      </trkpt>
      <trkpt lat="47.07469" lon="2.50404">
        <ele>136</ele>
        <time>2021-08-25T14:06:31Z</time>
      </trkpt>
      <trkpt lat="47.07471" lon="2.50368">
        <ele>136</ele>
        <time>2021-08-25T14:06:31Z</time>
      </trkpt>
      <trkpt lat="47.07472" lon="2.50359">
        <ele>136</ele>
        <time>2021-08-25T14:06:31Z</time>
      </trkpt>
      <trkpt lat="47.07476" lon="2.50319">
        <ele>136</ele>
        <time>2021-08-25T14:06:31Z</time>
      </trkpt>
      <trkpt lat="47.07486" lon="2.50278">
        <ele>137</ele>
        <time>2021-08-25T14:06:31Z</time>
      </trkpt>
      <trkpt lat="47.07502" lon="2.50238">
        <ele>137</ele>
        <time>2021-08-25T14:06:31Z</time>
      </trkpt>
      <trkpt lat="47.07521" lon="2.50198">
        <ele>137</ele>
        <time>2021-08-25T14:06:31Z</time>
      </trkpt>
      <trkpt lat="47.0754" lon="2.50158">
        <ele>136</ele>
        <time>2021-08-25T14:06:31Z</time>
      </trkpt>
      <trkpt lat="47.07555" lon="2.50126">
        <ele>136</ele>
        <time>2021-08-25T14:06:31Z</time>
      </trkpt>
      <trkpt lat="47.07558" lon="2.50118">
        <ele>135</ele>
        <time>2021-08-25T14:06:31Z</time>
      </trkpt>
      <trkpt lat="47.07562" lon="2.5011">
        <ele>136</ele>
        <time>2021-08-25T14:06:31Z</time>
      </trkpt>
      <trkpt lat="47.07564" lon="2.50103">
        <ele>136</ele>
        <time>2021-08-25T14:06:31Z</time>
      </trkpt>
      <trkpt lat="47.07568" lon="2.50095">
        <ele>136</ele>
        <time>2021-08-25T14:06:31Z</time>
      </trkpt>
      <trkpt lat="47.07571" lon="2.50087">
        <ele>136</ele>
        <time>2021-08-25T14:06:31Z</time>
      </trkpt>
      <trkpt lat="47.07574" lon="2.5008">
        <ele>137</ele>
        <time>2021-08-25T14:06:31Z</time>
      </trkpt>
      <trkpt lat="47.07578" lon="2.50071">
        <ele>137</ele>
        <time>2021-08-25T14:06:31Z</time>
      </trkpt>
      <trkpt lat="47.07581" lon="2.50063">
        <ele>137</ele>
        <time>2021-08-25T14:06:31Z</time>
      </trkpt>
      <trkpt lat="47.07584" lon="2.50055">
        <ele>138</ele>
        <time>2021-08-25T14:06:31Z</time>
      </trkpt>
      <trkpt lat="47.07587" lon="2.50047">
        <ele>138</ele>
        <time>2021-08-25T14:06:31Z</time>
      </trkpt>
      <trkpt lat="47.07591" lon="2.5004">
        <ele>138</ele>
        <time>2021-08-25T14:06:31Z</time>
      </trkpt>
      <trkpt lat="47.07595" lon="2.50033">
        <ele>139</ele>
        <time>2021-08-25T14:06:31Z</time>
      </trkpt>
      <trkpt lat="47.07598" lon="2.50026">
        <ele>139</ele>
        <time>2021-08-25T14:06:31Z</time>
      </trkpt>
      <trkpt lat="47.07602" lon="2.50017">
        <ele>139</ele>
        <time>2021-08-25T14:06:31Z</time>
      </trkpt>
      <trkpt lat="47.07605" lon="2.5001">
        <ele>139</ele>
        <time>2021-08-25T14:06:31Z</time>
      </trkpt>
      <trkpt lat="47.07609" lon="2.50003">
        <ele>139</ele>
        <time>2021-08-25T14:06:31Z</time>
      </trkpt>
      <trkpt lat="47.07612" lon="2.49995">
        <ele>140</ele>
        <time>2021-08-25T14:06:31Z</time>
      </trkpt>
      <trkpt lat="47.07615" lon="2.49987">
        <ele>140</ele>
        <time>2021-08-25T14:06:31Z</time>
      </trkpt>
      <trkpt lat="47.07619" lon="2.49979">
        <ele>140</ele>
        <time>2021-08-25T14:06:31Z</time>
      </trkpt>
      <trkpt lat="47.07622" lon="2.4997">
        <ele>139</ele>
        <time>2021-08-25T14:06:31Z</time>
      </trkpt>
      <trkpt lat="47.07626" lon="2.49963">
        <ele>139</ele>
        <time>2021-08-25T14:06:31Z</time>
      </trkpt>
      <trkpt lat="47.07629" lon="2.49955">
        <ele>139</ele>
        <time>2021-08-25T14:06:31Z</time>
      </trkpt>
      <trkpt lat="47.07633" lon="2.49947">
        <ele>139</ele>
        <time>2021-08-25T14:06:31Z</time>
      </trkpt>
      <trkpt lat="47.07635" lon="2.49939">
        <ele>139</ele>
        <time>2021-08-25T14:06:31Z</time>
      </trkpt>
      <trkpt lat="47.07638" lon="2.49932">
        <ele>139</ele>
        <time>2021-08-25T14:06:31Z</time>
      </trkpt>
      <trkpt lat="47.07642" lon="2.49925">
        <ele>138</ele>
        <time>2021-08-25T14:06:31Z</time>
      </trkpt>
      <trkpt lat="47.07646" lon="2.49917">
        <ele>138</ele>
        <time>2021-08-25T14:06:31Z</time>
      </trkpt>
      <trkpt lat="47.07649" lon="2.49909">
        <ele>138</ele>
        <time>2021-08-25T14:06:31Z</time>
      </trkpt>
      <trkpt lat="47.07652" lon="2.49901">
        <ele>138</ele>
        <time>2021-08-25T14:06:31Z</time>
      </trkpt>
      <trkpt lat="47.07655" lon="2.49892">
        <ele>137</ele>
        <time>2021-08-25T14:06:31Z</time>
      </trkpt>
      <trkpt lat="47.07658" lon="2.49883">
        <ele>137</ele>
        <time>2021-08-25T14:06:31Z</time>
      </trkpt>
      <trkpt lat="47.07661" lon="2.49874">
        <ele>136</ele>
        <time>2021-08-25T14:06:31Z</time>
      </trkpt>
      <trkpt lat="47.07664" lon="2.49865">
        <ele>136</ele>
        <time>2021-08-25T14:06:31Z</time>
      </trkpt>
      <trkpt lat="47.07667" lon="2.49855">
        <ele>136</ele>
        <time>2021-08-25T14:06:31Z</time>
      </trkpt>
      <trkpt lat="47.07669" lon="2.49845">
        <ele>136</ele>
        <time>2021-08-25T14:06:31Z</time>
      </trkpt>
      <trkpt lat="47.07673" lon="2.49836">
        <ele>136</ele>
        <time>2021-08-25T14:06:31Z</time>
      </trkpt>
      <trkpt lat="47.07676" lon="2.49825">
        <ele>136</ele>
        <time>2021-08-25T14:06:31Z</time>
      </trkpt>
      <trkpt lat="47.07679" lon="2.49815">
        <ele>136</ele>
        <time>2021-08-25T14:06:31Z</time>
      </trkpt>
      <trkpt lat="47.07683" lon="2.49805">
        <ele>136</ele>
        <time>2021-08-25T14:06:31Z</time>
      </trkpt>
      <trkpt lat="47.07686" lon="2.49795">
        <ele>136</ele>
        <time>2021-08-25T14:06:31Z</time>
      </trkpt>
      <trkpt lat="47.07688" lon="2.49786">
        <ele>136</ele>
        <time>2021-08-25T14:06:31Z</time>
      </trkpt>
      <trkpt lat="47.07692" lon="2.49776">
        <ele>136</ele>
        <time>2021-08-25T14:06:31Z</time>
      </trkpt>
      <trkpt lat="47.07695" lon="2.49767">
        <ele>136</ele>
        <time>2021-08-25T14:06:31Z</time>
      </trkpt>
      <trkpt lat="47.07698" lon="2.49758">
        <ele>136</ele>
        <time>2021-08-25T14:06:31Z</time>
      </trkpt>
      <trkpt lat="47.07701" lon="2.4975">
        <ele>136</ele>
        <time>2021-08-25T14:06:31Z</time>
      </trkpt>
      <trkpt lat="47.07704" lon="2.49742">
        <ele>136</ele>
        <time>2021-08-25T14:06:31Z</time>
      </trkpt>
      <trkpt lat="47.07707" lon="2.49733">
        <ele>136</ele>
        <time>2021-08-25T14:06:31Z</time>
      </trkpt>
      <trkpt lat="47.0771" lon="2.49725">
        <ele>136</ele>
        <time>2021-08-25T14:06:31Z</time>
      </trkpt>
      <trkpt lat="47.07713" lon="2.49716">
        <ele>136</ele>
        <time>2021-08-25T14:06:31Z</time>
      </trkpt>
      <trkpt lat="47.07716" lon="2.49708">
        <ele>136</ele>
        <time>2021-08-25T14:06:31Z</time>
      </trkpt>
      <trkpt lat="47.07719" lon="2.49701">
        <ele>136</ele>
        <time>2021-08-25T14:06:31Z</time>
      </trkpt>
      <trkpt lat="47.07723" lon="2.49694">
        <ele>136</ele>
        <time>2021-08-25T14:06:31Z</time>
      </trkpt>
      <trkpt lat="47.07726" lon="2.49686">
        <ele>136</ele>
        <time>2021-08-25T14:06:31Z</time>
      </trkpt>
      <trkpt lat="47.07729" lon="2.49678">
        <ele>136</ele>
        <time>2021-08-25T14:06:31Z</time>
      </trkpt>
      <trkpt lat="47.07732" lon="2.49671">
        <ele>136</ele>
        <time>2021-08-25T14:06:31Z</time>
      </trkpt>
      <trkpt lat="47.07734" lon="2.49662">
        <ele>137</ele>
        <time>2021-08-25T14:06:31Z</time>
      </trkpt>
      <trkpt lat="47.07737" lon="2.49654">
        <ele>137</ele>
        <time>2021-08-25T14:06:31Z</time>
      </trkpt>
      <trkpt lat="47.07739" lon="2.49646">
        <ele>137</ele>
        <time>2021-08-25T14:06:31Z</time>
      </trkpt>
      <trkpt lat="47.07742" lon="2.49639">
        <ele>138</ele>
        <time>2021-08-25T14:06:31Z</time>
      </trkpt>
      <trkpt lat="47.07745" lon="2.49632">
        <ele>138</ele>
        <time>2021-08-25T14:06:31Z</time>
      </trkpt>
      <trkpt lat="47.07748" lon="2.49625">
        <ele>139</ele>
        <time>2021-08-25T14:06:31Z</time>
      </trkpt>
      <trkpt lat="47.07751" lon="2.49617">
        <ele>139</ele>
        <time>2021-08-25T14:06:31Z</time>
      </trkpt>
      <trkpt lat="47.07765" lon="2.49577">
        <ele>140</ele>
        <time>2021-08-25T14:06:31Z</time>
      </trkpt>
      <trkpt lat="47.07781" lon="2.49537">
        <ele>141</ele>
        <time>2021-08-25T14:06:31Z</time>
      </trkpt>
      <trkpt lat="47.07796" lon="2.49497">
        <ele>141</ele>
        <time>2021-08-25T14:06:31Z</time>
      </trkpt>
      <trkpt lat="47.07814" lon="2.49458">
        <ele>141</ele>
        <time>2021-08-25T14:06:31Z</time>
      </trkpt>
      <trkpt lat="47.0784" lon="2.49429">
        <ele>142</ele>
        <time>2021-08-25T14:06:31Z</time>
      </trkpt>
      <trkpt lat="47.07868" lon="2.49423">
        <ele>141</ele>
        <time>2021-08-25T14:06:31Z</time>
      </trkpt>
      <trkpt lat="47.07875" lon="2.49421">
        <ele>141</ele>
        <time>2021-08-25T14:06:31Z</time>
      </trkpt>
      <trkpt lat="47.07914" lon="2.49416">
        <ele>139</ele>
        <time>2021-08-25T14:06:31Z</time>
      </trkpt>
      <trkpt lat="47.07952" lon="2.49398">
        <ele>137</ele>
        <time>2021-08-25T14:06:31Z</time>
      </trkpt>
      <trkpt lat="47.07988" lon="2.49374">
        <ele>137</ele>
        <time>2021-08-25T14:06:31Z</time>
      </trkpt>
      <trkpt lat="47.08021" lon="2.49348">
        <ele>137</ele>
        <time>2021-08-25T14:06:31Z</time>
      </trkpt>
      <trkpt lat="47.08051" lon="2.49325">
        <ele>136</ele>
        <time>2021-08-25T14:06:31Z</time>
      </trkpt>
      <trkpt lat="47.08076" lon="2.49304">
        <ele>135</ele>
        <time>2021-08-25T14:06:31Z</time>
      </trkpt>
      <trkpt lat="47.08082" lon="2.49298">
        <ele>135</ele>
        <time>2021-08-25T14:06:31Z</time>
      </trkpt>
      <trkpt lat="47.08093" lon="2.49286">
        <ele>135</ele>
        <time>2021-08-25T14:06:31Z</time>
      </trkpt>
      <trkpt lat="47.08099" lon="2.4928">
        <ele>134</ele>
        <time>2021-08-25T14:06:31Z</time>
      </trkpt>
      <trkpt lat="47.08104" lon="2.49273">
        <ele>134</ele>
        <time>2021-08-25T14:06:31Z</time>
      </trkpt>
      <trkpt lat="47.08108" lon="2.49265">
        <ele>134</ele>
        <time>2021-08-25T14:06:31Z</time>
      </trkpt>
      <trkpt lat="47.08113" lon="2.49257">
        <ele>133</ele>
        <time>2021-08-25T14:06:31Z</time>
      </trkpt>
      <trkpt lat="47.08117" lon="2.49249">
        <ele>133</ele>
        <time>2021-08-25T14:06:31Z</time>
      </trkpt>
      <trkpt lat="47.08121" lon="2.49241">
        <ele>133</ele>
        <time>2021-08-25T14:06:31Z</time>
      </trkpt>
      <trkpt lat="47.08125" lon="2.49232">
        <ele>133</ele>
        <time>2021-08-25T14:06:31Z</time>
      </trkpt>
      <trkpt lat="47.08129" lon="2.49223">
        <ele>133</ele>
        <time>2021-08-25T14:06:31Z</time>
      </trkpt>
      <trkpt lat="47.08133" lon="2.49215">
        <ele>132</ele>
        <time>2021-08-25T14:06:31Z</time>
      </trkpt>
      <trkpt lat="47.08137" lon="2.49207">
        <ele>132</ele>
        <time>2021-08-25T14:06:31Z</time>
      </trkpt>
      <trkpt lat="47.08141" lon="2.49199">
        <ele>132</ele>
        <time>2021-08-25T14:06:31Z</time>
      </trkpt>
      <trkpt lat="47.08146" lon="2.49191">
        <ele>133</ele>
        <time>2021-08-25T14:06:31Z</time>
      </trkpt>
      <trkpt lat="47.08149" lon="2.49182">
        <ele>133</ele>
        <time>2021-08-25T14:06:31Z</time>
      </trkpt>
      <trkpt lat="47.08153" lon="2.49174">
        <ele>133</ele>
        <time>2021-08-25T14:06:31Z</time>
      </trkpt>
      <trkpt lat="47.08156" lon="2.49165">
        <ele>133</ele>
        <time>2021-08-25T14:06:31Z</time>
      </trkpt>
      <trkpt lat="47.08161" lon="2.49157">
        <ele>133</ele>
        <time>2021-08-25T14:06:31Z</time>
      </trkpt>
      <trkpt lat="47.08165" lon="2.49149">
        <ele>133</ele>
        <time>2021-08-25T14:06:31Z</time>
      </trkpt>
      <trkpt lat="47.08169" lon="2.49141">
        <ele>133</ele>
        <time>2021-08-25T14:06:31Z</time>
      </trkpt>
      <trkpt lat="47.08173" lon="2.49133">
        <ele>133</ele>
        <time>2021-08-25T14:06:31Z</time>
      </trkpt>
      <trkpt lat="47.08178" lon="2.49126">
        <ele>133</ele>
        <time>2021-08-25T14:06:31Z</time>
      </trkpt>
      <trkpt lat="47.08182" lon="2.49119">
        <ele>133</ele>
        <time>2021-08-25T14:06:31Z</time>
      </trkpt>
      <trkpt lat="47.08185" lon="2.49111">
        <ele>134</ele>
        <time>2021-08-25T14:06:31Z</time>
      </trkpt>
      <trkpt lat="47.08189" lon="2.49102">
        <ele>134</ele>
        <time>2021-08-25T14:06:31Z</time>
      </trkpt>
      <trkpt lat="47.08193" lon="2.49095">
        <ele>134</ele>
        <time>2021-08-25T14:06:31Z</time>
      </trkpt>
      <trkpt lat="47.08197" lon="2.49087">
        <ele>134</ele>
        <time>2021-08-25T14:06:31Z</time>
      </trkpt>
      <trkpt lat="47.082" lon="2.49079">
        <ele>135</ele>
        <time>2021-08-25T14:06:31Z</time>
      </trkpt>
      <trkpt lat="47.08204" lon="2.49071">
        <ele>135</ele>
        <time>2021-08-25T14:06:31Z</time>
      </trkpt>
      <trkpt lat="47.08208" lon="2.49062">
        <ele>135</ele>
        <time>2021-08-25T14:06:31Z</time>
      </trkpt>
      <trkpt lat="47.08211" lon="2.49054">
        <ele>136</ele>
        <time>2021-08-25T14:06:31Z</time>
      </trkpt>
      <trkpt lat="47.08214" lon="2.49047">
        <ele>136</ele>
        <time>2021-08-25T14:06:31Z</time>
      </trkpt>
      <trkpt lat="47.08219" lon="2.49039">
        <ele>137</ele>
        <time>2021-08-25T14:06:31Z</time>
      </trkpt>
      <trkpt lat="47.08223" lon="2.49032">
        <ele>138</ele>
        <time>2021-08-25T14:06:31Z</time>
      </trkpt>
      <trkpt lat="47.08227" lon="2.49025">
        <ele>138</ele>
        <time>2021-08-25T14:06:31Z</time>
      </trkpt>
      <trkpt lat="47.08231" lon="2.49017">
        <ele>139</ele>
        <time>2021-08-25T14:06:31Z</time>
      </trkpt>
      <trkpt lat="47.08235" lon="2.49009">
        <ele>139</ele>
        <time>2021-08-25T14:06:31Z</time>
      </trkpt>
      <trkpt lat="47.08239" lon="2.49002">
        <ele>139</ele>
        <time>2021-08-25T14:06:31Z</time>
      </trkpt>
      <trkpt lat="47.08243" lon="2.48995">
        <ele>139</ele>
        <time>2021-08-25T14:06:31Z</time>
      </trkpt>
      <trkpt lat="47.08247" lon="2.48988">
        <ele>139</ele>
        <time>2021-08-25T14:06:31Z</time>
      </trkpt>
      <trkpt lat="47.0825" lon="2.48981">
        <ele>139</ele>
        <time>2021-08-25T14:06:31Z</time>
      </trkpt>
      <trkpt lat="47.08255" lon="2.48974">
        <ele>139</ele>
        <time>2021-08-25T14:06:31Z</time>
      </trkpt>
      <trkpt lat="47.08259" lon="2.48967">
        <ele>138</ele>
        <time>2021-08-25T14:06:31Z</time>
      </trkpt>
      <trkpt lat="47.08262" lon="2.48959">
        <ele>137</ele>
        <time>2021-08-25T14:06:31Z</time>
      </trkpt>
      <trkpt lat="47.08267" lon="2.48951">
        <ele>137</ele>
        <time>2021-08-25T14:06:31Z</time>
      </trkpt>
      <trkpt lat="47.0827" lon="2.48943">
        <ele>136</ele>
        <time>2021-08-25T14:06:31Z</time>
      </trkpt>
      <trkpt lat="47.08274" lon="2.48936">
        <ele>136</ele>
        <time>2021-08-25T14:06:31Z</time>
      </trkpt>
      <trkpt lat="47.08278" lon="2.48929">
        <ele>135</ele>
        <time>2021-08-25T14:06:31Z</time>
      </trkpt>
      <trkpt lat="47.08282" lon="2.48921">
        <ele>135</ele>
        <time>2021-08-25T14:06:31Z</time>
      </trkpt>
      <trkpt lat="47.08285" lon="2.48914">
        <ele>135</ele>
        <time>2021-08-25T14:06:31Z</time>
      </trkpt>
      <trkpt lat="47.08288" lon="2.48906">
        <ele>135</ele>
        <time>2021-08-25T14:06:31Z</time>
      </trkpt>
      <trkpt lat="47.08292" lon="2.48898">
        <ele>136</ele>
        <time>2021-08-25T14:06:31Z</time>
      </trkpt>
      <trkpt lat="47.08294" lon="2.48888">
        <ele>136</ele>
        <time>2021-08-25T14:06:31Z</time>
      </trkpt>
      <trkpt lat="47.08296" lon="2.48878">
        <ele>136</ele>
        <time>2021-08-25T14:06:31Z</time>
      </trkpt>
      <trkpt lat="47.08296" lon="2.48868">
        <ele>136</ele>
        <time>2021-08-25T14:06:31Z</time>
      </trkpt>
      <trkpt lat="47.08297" lon="2.48858">
        <ele>136</ele>
        <time>2021-08-25T14:06:31Z</time>
      </trkpt>
      <trkpt lat="47.08297" lon="2.48847">
        <ele>136</ele>
        <time>2021-08-25T14:06:31Z</time>
      </trkpt>
      <trkpt lat="47.08297" lon="2.48837">
        <ele>136</ele>
        <time>2021-08-25T14:06:31Z</time>
      </trkpt>
      <trkpt lat="47.08297" lon="2.48826">
        <ele>135</ele>
        <time>2021-08-25T14:06:31Z</time>
      </trkpt>
      <trkpt lat="47.08296" lon="2.48816">
        <ele>135</ele>
        <time>2021-08-25T14:06:31Z</time>
      </trkpt>
      <trkpt lat="47.08295" lon="2.48805">
        <ele>134</ele>
        <time>2021-08-25T14:06:31Z</time>
      </trkpt>
      <trkpt lat="47.08295" lon="2.48794">
        <ele>134</ele>
        <time>2021-08-25T14:06:31Z</time>
      </trkpt>
      <trkpt lat="47.08291" lon="2.48744">
        <ele>134</ele>
        <time>2021-08-25T14:06:31Z</time>
      </trkpt>
      <trkpt lat="47.08296" lon="2.48694">
        <ele>134</ele>
        <time>2021-08-25T14:06:31Z</time>
      </trkpt>
      <trkpt lat="47.08316" lon="2.48655">
        <ele>133</ele>
        <time>2021-08-25T14:06:31Z</time>
      </trkpt>
      <trkpt lat="47.08341" lon="2.48619">
        <ele>133</ele>
        <time>2021-08-25T14:06:31Z</time>
      </trkpt>
      <trkpt lat="47.08363" lon="2.48586">
        <ele>135</ele>
        <time>2021-08-25T14:06:31Z</time>
      </trkpt>
      <trkpt lat="47.0838" lon="2.48562">
        <ele>135</ele>
        <time>2021-08-25T14:06:31Z</time>
      </trkpt>
      <trkpt lat="47.08385" lon="2.48555">
        <ele>135</ele>
        <time>2021-08-25T14:06:31Z</time>
      </trkpt>
      <trkpt lat="47.08405" lon="2.48524">
        <ele>138</ele>
        <time>2021-08-25T14:06:31Z</time>
      </trkpt>
      <trkpt lat="47.08424" lon="2.48493">
        <ele>139</ele>
        <time>2021-08-25T14:06:31Z</time>
      </trkpt>
      <trkpt lat="47.08448" lon="2.48461">
        <ele>140</ele>
        <time>2021-08-25T14:06:31Z</time>
      </trkpt>
      <trkpt lat="47.08461" lon="2.48442">
        <ele>140</ele>
        <time>2021-08-25T14:06:31Z</time>
      </trkpt>
      <trkpt lat="47.08465" lon="2.48435">
        <ele>140</ele>
        <time>2021-08-25T14:06:31Z</time>
      </trkpt>
      <trkpt lat="47.08469" lon="2.48428">
        <ele>140</ele>
        <time>2021-08-25T14:06:31Z</time>
      </trkpt>
      <trkpt lat="47.08474" lon="2.48421">
        <ele>139</ele>
        <time>2021-08-25T14:06:31Z</time>
      </trkpt>
      <trkpt lat="47.08478" lon="2.48414">
        <ele>139</ele>
        <time>2021-08-25T14:06:31Z</time>
      </trkpt>
      <trkpt lat="47.08483" lon="2.48408">
        <ele>139</ele>
        <time>2021-08-25T14:06:31Z</time>
      </trkpt>
      <trkpt lat="47.08486" lon="2.48401">
        <ele>138</ele>
        <time>2021-08-25T14:06:31Z</time>
      </trkpt>
      <trkpt lat="47.08491" lon="2.48394">
        <ele>138</ele>
        <time>2021-08-25T14:06:31Z</time>
      </trkpt>
      <trkpt lat="47.08495" lon="2.48387">
        <ele>138</ele>
        <time>2021-08-25T14:06:31Z</time>
      </trkpt>
      <trkpt lat="47.0852" lon="2.48351">
        <ele>138</ele>
        <time>2021-08-25T14:06:31Z</time>
      </trkpt>
      <trkpt lat="47.08545" lon="2.48313">
        <ele>137</ele>
        <time>2021-08-25T14:06:31Z</time>
      </trkpt>
      <trkpt lat="47.08571" lon="2.48274">
        <ele>136</ele>
        <time>2021-08-25T14:06:31Z</time>
      </trkpt>
      <trkpt lat="47.08597" lon="2.48231">
        <ele>136</ele>
        <time>2021-08-25T14:06:31Z</time>
      </trkpt>
      <trkpt lat="47.08626" lon="2.48189">
        <ele>135</ele>
        <time>2021-08-25T14:06:31Z</time>
      </trkpt>
      <trkpt lat="47.0865" lon="2.48155">
        <ele>134</ele>
        <time>2021-08-25T14:06:31Z</time>
      </trkpt>
      <trkpt lat="47.08655" lon="2.48147">
        <ele>134</ele>
        <time>2021-08-25T14:06:31Z</time>
      </trkpt>
      <trkpt lat="47.08661" lon="2.48138">
        <ele>135</ele>
        <time>2021-08-25T14:06:31Z</time>
      </trkpt>
      <trkpt lat="47.08666" lon="2.4813">
        <ele>135</ele>
        <time>2021-08-25T14:06:31Z</time>
      </trkpt>
      <trkpt lat="47.08671" lon="2.48123">
        <ele>134</ele>
        <time>2021-08-25T14:06:31Z</time>
      </trkpt>
      <trkpt lat="47.08677" lon="2.48114">
        <ele>134</ele>
        <time>2021-08-25T14:06:31Z</time>
      </trkpt>
      <trkpt lat="47.08682" lon="2.48107">
        <ele>135</ele>
        <time>2021-08-25T14:06:31Z</time>
      </trkpt>
      <trkpt lat="47.08687" lon="2.481">
        <ele>135</ele>
        <time>2021-08-25T14:06:31Z</time>
      </trkpt>
      <trkpt lat="47.08692" lon="2.48092">
        <ele>135</ele>
        <time>2021-08-25T14:06:31Z</time>
      </trkpt>
      <trkpt lat="47.08697" lon="2.48086">
        <ele>135</ele>
        <time>2021-08-25T14:06:31Z</time>
      </trkpt>
      <trkpt lat="47.08702" lon="2.48079">
        <ele>135</ele>
        <time>2021-08-25T14:06:31Z</time>
      </trkpt>
      <trkpt lat="47.08707" lon="2.48071">
        <ele>135</ele>
        <time>2021-08-25T14:06:31Z</time>
      </trkpt>
      <trkpt lat="47.08712" lon="2.48064">
        <ele>135</ele>
        <time>2021-08-25T14:06:31Z</time>
      </trkpt>
      <trkpt lat="47.08715" lon="2.48057">
        <ele>135</ele>
        <time>2021-08-25T14:06:31Z</time>
      </trkpt>
      <trkpt lat="47.0872" lon="2.4805">
        <ele>136</ele>
        <time>2021-08-25T14:06:31Z</time>
      </trkpt>
      <trkpt lat="47.08724" lon="2.48044">
        <ele>136</ele>
        <time>2021-08-25T14:06:31Z</time>
      </trkpt>
      <trkpt lat="47.08728" lon="2.48038">
        <ele>136</ele>
        <time>2021-08-25T14:06:31Z</time>
      </trkpt>
      <trkpt lat="47.08733" lon="2.48031">
        <ele>136</ele>
        <time>2021-08-25T14:06:31Z</time>
      </trkpt>
      <trkpt lat="47.08737" lon="2.48025">
        <ele>136</ele>
        <time>2021-08-25T14:06:31Z</time>
      </trkpt>
      <trkpt lat="47.08741" lon="2.48018">
        <ele>136</ele>
        <time>2021-08-25T14:06:31Z</time>
      </trkpt>
      <trkpt lat="47.08745" lon="2.48011">
        <ele>136</ele>
        <time>2021-08-25T14:06:31Z</time>
      </trkpt>
      <trkpt lat="47.08748" lon="2.48004">
        <ele>136</ele>
        <time>2021-08-25T14:06:31Z</time>
      </trkpt>
      <trkpt lat="47.08751" lon="2.47996">
        <ele>135</ele>
        <time>2021-08-25T14:06:31Z</time>
      </trkpt>
      <trkpt lat="47.08754" lon="2.47987">
        <ele>135</ele>
        <time>2021-08-25T14:06:31Z</time>
      </trkpt>
      <trkpt lat="47.08757" lon="2.47979">
        <ele>135</ele>
        <time>2021-08-25T14:06:31Z</time>
      </trkpt>
      <trkpt lat="47.08761" lon="2.4797">
        <ele>134</ele>
        <time>2021-08-25T14:06:31Z</time>
      </trkpt>
      <trkpt lat="47.08763" lon="2.47962">
        <ele>134</ele>
        <time>2021-08-25T14:06:31Z</time>
      </trkpt>
      <trkpt lat="47.08766" lon="2.47953">
        <ele>135</ele>
        <time>2021-08-25T14:06:31Z</time>
      </trkpt>
      <trkpt lat="47.08769" lon="2.47944">
        <ele>135</ele>
        <time>2021-08-25T14:06:31Z</time>
      </trkpt>
      <trkpt lat="47.08771" lon="2.47936">
        <ele>135</ele>
        <time>2021-08-25T14:06:31Z</time>
      </trkpt>
      <trkpt lat="47.08773" lon="2.47926">
        <ele>135</ele>
        <time>2021-08-25T14:06:31Z</time>
      </trkpt>
      <trkpt lat="47.08774" lon="2.47917">
        <ele>136</ele>
        <time>2021-08-25T14:06:31Z</time>
      </trkpt>
      <trkpt lat="47.08776" lon="2.47907">
        <ele>136</ele>
        <time>2021-08-25T14:06:31Z</time>
      </trkpt>
      <trkpt lat="47.08777" lon="2.47899">
        <ele>136</ele>
        <time>2021-08-25T14:06:31Z</time>
      </trkpt>
      <trkpt lat="47.08778" lon="2.47889">
        <ele>137</ele>
        <time>2021-08-25T14:06:31Z</time>
      </trkpt>
      <trkpt lat="47.08778" lon="2.47879">
        <ele>137</ele>
        <time>2021-08-25T14:06:31Z</time>
      </trkpt>
      <trkpt lat="47.08779" lon="2.47869">
        <ele>137</ele>
        <time>2021-08-25T14:06:31Z</time>
      </trkpt>
      <trkpt lat="47.08779" lon="2.4786">
        <ele>138</ele>
        <time>2021-08-25T14:06:31Z</time>
      </trkpt>
      <trkpt lat="47.08779" lon="2.4785">
        <ele>138</ele>
        <time>2021-08-25T14:06:31Z</time>
      </trkpt>
      <trkpt lat="47.0878" lon="2.47839">
        <ele>138</ele>
        <time>2021-08-25T14:06:31Z</time>
      </trkpt>
      <trkpt lat="47.0878" lon="2.47829">
        <ele>138</ele>
        <time>2021-08-25T14:06:31Z</time>
      </trkpt>
      <trkpt lat="47.08779" lon="2.47818">
        <ele>138</ele>
        <time>2021-08-25T14:06:31Z</time>
      </trkpt>
      <trkpt lat="47.08779" lon="2.47808">
        <ele>138</ele>
        <time>2021-08-25T14:06:31Z</time>
      </trkpt>
      <trkpt lat="47.08779" lon="2.47798">
        <ele>138</ele>
        <time>2021-08-25T14:06:31Z</time>
      </trkpt>
      <trkpt lat="47.08778" lon="2.47787">
        <ele>138</ele>
        <time>2021-08-25T14:06:31Z</time>
      </trkpt>
      <trkpt lat="47.08778" lon="2.47777">
        <ele>137</ele>
        <time>2021-08-25T14:06:31Z</time>
      </trkpt>
      <trkpt lat="47.08777" lon="2.47766">
        <ele>137</ele>
        <time>2021-08-25T14:06:31Z</time>
      </trkpt>
      <trkpt lat="47.08777" lon="2.47756">
        <ele>137</ele>
        <time>2021-08-25T14:06:31Z</time>
      </trkpt>
      <trkpt lat="47.08777" lon="2.47746">
        <ele>136</ele>
        <time>2021-08-25T14:06:31Z</time>
      </trkpt>
      <trkpt lat="47.08776" lon="2.47735">
        <ele>136</ele>
        <time>2021-08-25T14:06:31Z</time>
      </trkpt>
      <trkpt lat="47.08775" lon="2.47724">
        <ele>135</ele>
        <time>2021-08-25T14:06:31Z</time>
      </trkpt>
      <trkpt lat="47.08775" lon="2.47713">
        <ele>135</ele>
        <time>2021-08-25T14:06:31Z</time>
      </trkpt>
      <trkpt lat="47.08775" lon="2.47702">
        <ele>135</ele>
        <time>2021-08-25T14:06:31Z</time>
      </trkpt>
      <trkpt lat="47.08776" lon="2.47692">
        <ele>135</ele>
        <time>2021-08-25T14:06:31Z</time>
      </trkpt>
      <trkpt lat="47.08776" lon="2.47681">
        <ele>135</ele>
        <time>2021-08-25T14:06:31Z</time>
      </trkpt>
      <trkpt lat="47.08775" lon="2.4767">
        <ele>135</ele>
        <time>2021-08-25T14:06:31Z</time>
      </trkpt>
      <trkpt lat="47.08776" lon="2.4766">
        <ele>134</ele>
        <time>2021-08-25T14:06:31Z</time>
      </trkpt>
      <trkpt lat="47.08775" lon="2.47649">
        <ele>134</ele>
        <time>2021-08-25T14:06:31Z</time>
      </trkpt>
      <trkpt lat="47.08775" lon="2.47638">
        <ele>133</ele>
        <time>2021-08-25T14:06:31Z</time>
      </trkpt>
      <trkpt lat="47.08775" lon="2.47627">
        <ele>133</ele>
        <time>2021-08-25T14:06:31Z</time>
      </trkpt>
      <trkpt lat="47.08775" lon="2.47616">
        <ele>132</ele>
        <time>2021-08-25T14:06:31Z</time>
      </trkpt>
      <trkpt lat="47.08774" lon="2.47606">
        <ele>131</ele>
        <time>2021-08-25T14:06:31Z</time>
      </trkpt>
      <trkpt lat="47.08774" lon="2.47596">
        <ele>131</ele>
        <time>2021-08-25T14:06:31Z</time>
      </trkpt>
      <trkpt lat="47.08774" lon="2.47543">
        <ele>130</ele>
        <time>2021-08-25T14:06:31Z</time>
      </trkpt>
      <trkpt lat="47.08773" lon="2.47492">
        <ele>130</ele>
        <time>2021-08-25T14:06:31Z</time>
      </trkpt>
      <trkpt lat="47.08772" lon="2.47443">
        <ele>130</ele>
        <time>2021-08-25T14:06:31Z</time>
      </trkpt>
      <trkpt lat="47.08766" lon="2.47395">
        <ele>131</ele>
        <time>2021-08-25T14:06:31Z</time>
      </trkpt>
      <trkpt lat="47.08755" lon="2.47352">
        <ele>132</ele>
        <time>2021-08-25T14:06:31Z</time>
      </trkpt>
      <trkpt lat="47.08744" lon="2.47317">
        <ele>133</ele>
        <time>2021-08-25T14:06:31Z</time>
      </trkpt>
      <trkpt lat="47.08742" lon="2.47309">
        <ele>133</ele>
        <time>2021-08-25T14:06:31Z</time>
      </trkpt>
      <trkpt lat="47.0873" lon="2.47266">
        <ele>135</ele>
        <time>2021-08-25T14:06:31Z</time>
      </trkpt>
      <trkpt lat="47.08716" lon="2.4722">
        <ele>135</ele>
        <time>2021-08-25T14:06:31Z</time>
      </trkpt>
      <trkpt lat="47.08703" lon="2.47174">
        <ele>134</ele>
        <time>2021-08-25T14:06:31Z</time>
      </trkpt>
      <trkpt lat="47.08691" lon="2.47131">
        <ele>133</ele>
        <time>2021-08-25T14:06:31Z</time>
      </trkpt>
      <trkpt lat="47.08678" lon="2.47089">
        <ele>133</ele>
        <time>2021-08-25T14:06:31Z</time>
      </trkpt>
      <trkpt lat="47.08668" lon="2.47057">
        <ele>133</ele>
        <time>2021-08-25T14:06:31Z</time>
      </trkpt>
      <trkpt lat="47.08666" lon="2.47049">
        <ele>133</ele>
        <time>2021-08-25T14:06:31Z</time>
      </trkpt>
      <trkpt lat="47.08663" lon="2.47041">
        <ele>133</ele>
        <time>2021-08-25T14:06:31Z</time>
      </trkpt>
      <trkpt lat="47.08661" lon="2.47033">
        <ele>133</ele>
        <time>2021-08-25T14:06:31Z</time>
      </trkpt>
      <trkpt lat="47.08658" lon="2.47025">
        <ele>133</ele>
        <time>2021-08-25T14:06:31Z</time>
      </trkpt>
      <trkpt lat="47.08653" lon="2.47017">
        <ele>133</ele>
        <time>2021-08-25T14:06:31Z</time>
      </trkpt>
      <trkpt lat="47.08649" lon="2.47009">
        <ele>133</ele>
        <time>2021-08-25T14:06:31Z</time>
      </trkpt>
      <trkpt lat="47.08647" lon="2.47">
        <ele>132</ele>
        <time>2021-08-25T14:06:31Z</time>
      </trkpt>
      <trkpt lat="47.08645" lon="2.46992">
        <ele>132</ele>
        <time>2021-08-25T14:06:31Z</time>
      </trkpt>
      <trkpt lat="47.08642" lon="2.46983">
        <ele>132</ele>
        <time>2021-08-25T14:06:31Z</time>
      </trkpt>
      <trkpt lat="47.08638" lon="2.46974">
        <ele>132</ele>
        <time>2021-08-25T14:06:31Z</time>
      </trkpt>
      <trkpt lat="47.0863" lon="2.46956">
        <ele>132</ele>
        <time>2021-08-25T14:06:31Z</time>
      </trkpt>
      <trkpt lat="47.08628" lon="2.46946">
        <ele>132</ele>
        <time>2021-08-25T14:06:31Z</time>
      </trkpt>
      <trkpt lat="47.08622" lon="2.46928">
        <ele>133</ele>
        <time>2021-08-25T14:06:31Z</time>
      </trkpt>
      <trkpt lat="47.08618" lon="2.46918">
        <ele>134</ele>
        <time>2021-08-25T14:06:31Z</time>
      </trkpt>
      <trkpt lat="47.08615" lon="2.46908">
        <ele>134</ele>
        <time>2021-08-25T14:06:31Z</time>
      </trkpt>
      <trkpt lat="47.08613" lon="2.46899">
        <ele>134</ele>
        <time>2021-08-25T14:06:31Z</time>
      </trkpt>
      <trkpt lat="47.08611" lon="2.46889">
        <ele>134</ele>
        <time>2021-08-25T14:06:31Z</time>
      </trkpt>
      <trkpt lat="47.08607" lon="2.4688">
        <ele>134</ele>
        <time>2021-08-25T14:06:31Z</time>
      </trkpt>
      <trkpt lat="47.08605" lon="2.46871">
        <ele>134</ele>
        <time>2021-08-25T14:06:31Z</time>
      </trkpt>
      <trkpt lat="47.08602" lon="2.46861">
        <ele>134</ele>
        <time>2021-08-25T14:06:31Z</time>
      </trkpt>
      <trkpt lat="47.08599" lon="2.46852">
        <ele>134</ele>
        <time>2021-08-25T14:06:31Z</time>
      </trkpt>
      <trkpt lat="47.08596" lon="2.46843">
        <ele>134</ele>
        <time>2021-08-25T14:06:31Z</time>
      </trkpt>
      <trkpt lat="47.0859" lon="2.46823">
        <ele>134</ele>
        <time>2021-08-25T14:06:31Z</time>
      </trkpt>
      <trkpt lat="47.08585" lon="2.46803">
        <ele>132</ele>
        <time>2021-08-25T14:06:31Z</time>
      </trkpt>
      <trkpt lat="47.08579" lon="2.46783">
        <ele>131</ele>
        <time>2021-08-25T14:06:31Z</time>
      </trkpt>
      <trkpt lat="47.08576" lon="2.46773">
        <ele>131</ele>
        <time>2021-08-25T14:06:31Z</time>
      </trkpt>
      <trkpt lat="47.08573" lon="2.46763">
        <ele>131</ele>
        <time>2021-08-25T14:06:31Z</time>
      </trkpt>
      <trkpt lat="47.0857" lon="2.46753">
        <ele>131</ele>
        <time>2021-08-25T14:06:31Z</time>
      </trkpt>
      <trkpt lat="47.08567" lon="2.46743">
        <ele>131</ele>
        <time>2021-08-25T14:06:31Z</time>
      </trkpt>
      <trkpt lat="47.08564" lon="2.46734">
        <ele>130</ele>
        <time>2021-08-25T14:06:31Z</time>
      </trkpt>
      <trkpt lat="47.08562" lon="2.46723">
        <ele>130</ele>
        <time>2021-08-25T14:06:31Z</time>
      </trkpt>
      <trkpt lat="47.08559" lon="2.46713">
        <ele>131</ele>
        <time>2021-08-25T14:06:31Z</time>
      </trkpt>
      <trkpt lat="47.08556" lon="2.46704">
        <ele>131</ele>
        <time>2021-08-25T14:06:31Z</time>
      </trkpt>
      <trkpt lat="47.08553" lon="2.46694">
        <ele>132</ele>
        <time>2021-08-25T14:06:31Z</time>
      </trkpt>
      <trkpt lat="47.0855" lon="2.46685">
        <ele>132</ele>
        <time>2021-08-25T14:06:31Z</time>
      </trkpt>
      <trkpt lat="47.08547" lon="2.46676">
        <ele>132</ele>
        <time>2021-08-25T14:06:31Z</time>
      </trkpt>
      <trkpt lat="47.08545" lon="2.46666">
        <ele>133</ele>
        <time>2021-08-25T14:06:31Z</time>
      </trkpt>
      <trkpt lat="47.08542" lon="2.46657">
        <ele>133</ele>
        <time>2021-08-25T14:06:31Z</time>
      </trkpt>
      <trkpt lat="47.08539" lon="2.46648">
        <ele>133</ele>
        <time>2021-08-25T14:06:31Z</time>
      </trkpt>
      <trkpt lat="47.08537" lon="2.46639">
        <ele>133</ele>
        <time>2021-08-25T14:06:31Z</time>
      </trkpt>
      <trkpt lat="47.08534" lon="2.4663">
        <ele>133</ele>
        <time>2021-08-25T14:06:31Z</time>
      </trkpt>
      <trkpt lat="47.08533" lon="2.46621">
        <ele>133</ele>
        <time>2021-08-25T14:06:31Z</time>
      </trkpt>
      <trkpt lat="47.08533" lon="2.4661">
        <ele>134</ele>
        <time>2021-08-25T14:06:31Z</time>
      </trkpt>
      <trkpt lat="47.08531" lon="2.46601">
        <ele>134</ele>
        <time>2021-08-25T14:06:31Z</time>
      </trkpt>
      <trkpt lat="47.0853" lon="2.46592">
        <ele>135</ele>
        <time>2021-08-25T14:06:31Z</time>
      </trkpt>
      <trkpt lat="47.08528" lon="2.46583">
        <ele>135</ele>
        <time>2021-08-25T14:06:31Z</time>
      </trkpt>
      <trkpt lat="47.08526" lon="2.46575">
        <ele>136</ele>
        <time>2021-08-25T14:06:31Z</time>
      </trkpt>
      <trkpt lat="47.08525" lon="2.46566">
        <ele>136</ele>
        <time>2021-08-25T14:06:31Z</time>
      </trkpt>
      <trkpt lat="47.08524" lon="2.46556">
        <ele>136</ele>
        <time>2021-08-25T14:06:31Z</time>
      </trkpt>
      <trkpt lat="47.08524" lon="2.46547">
        <ele>135</ele>
        <time>2021-08-25T14:06:31Z</time>
      </trkpt>
      <trkpt lat="47.08521" lon="2.46537">
        <ele>135</ele>
        <time>2021-08-25T14:06:31Z</time>
      </trkpt>
      <trkpt lat="47.08521" lon="2.46528">
        <ele>135</ele>
        <time>2021-08-25T14:06:31Z</time>
      </trkpt>
      <trkpt lat="47.08518" lon="2.46517">
        <ele>134</ele>
        <time>2021-08-25T14:06:31Z</time>
      </trkpt>
      <trkpt lat="47.08517" lon="2.46507">
        <ele>133</ele>
        <time>2021-08-25T14:06:31Z</time>
      </trkpt>
      <trkpt lat="47.08516" lon="2.46497">
        <ele>133</ele>
        <time>2021-08-25T14:06:31Z</time>
      </trkpt>
      <trkpt lat="47.08515" lon="2.46489">
        <ele>133</ele>
        <time>2021-08-25T14:06:31Z</time>
      </trkpt>
      <trkpt lat="47.08513" lon="2.4648">
        <ele>132</ele>
        <time>2021-08-25T14:06:31Z</time>
      </trkpt>
      <trkpt lat="47.08512" lon="2.46471">
        <ele>132</ele>
        <time>2021-08-25T14:06:31Z</time>
      </trkpt>
      <trkpt lat="47.08508" lon="2.46427">
        <ele>132</ele>
        <time>2021-08-25T14:06:31Z</time>
      </trkpt>
      <trkpt lat="47.08499" lon="2.46381">
        <ele>133</ele>
        <time>2021-08-25T14:06:31Z</time>
      </trkpt>
      <trkpt lat="47.08495" lon="2.46335">
        <ele>132</ele>
        <time>2021-08-25T14:06:31Z</time>
      </trkpt>
      <trkpt lat="47.08486" lon="2.46288">
        <ele>132</ele>
        <time>2021-08-25T14:06:31Z</time>
      </trkpt>
      <trkpt lat="47.08485" lon="2.46238">
        <ele>132</ele>
        <time>2021-08-25T14:06:31Z</time>
      </trkpt>
      <trkpt lat="47.0848" lon="2.462">
        <ele>132</ele>
        <time>2021-08-25T14:06:31Z</time>
      </trkpt>
      <trkpt lat="47.08478" lon="2.46189">
        <ele>131</ele>
        <time>2021-08-25T14:06:31Z</time>
      </trkpt>
      <trkpt lat="47.08471" lon="2.46142">
        <ele>132</ele>
        <time>2021-08-25T14:06:31Z</time>
      </trkpt>
      <trkpt lat="47.08466" lon="2.46095">
        <ele>131</ele>
        <time>2021-08-25T14:06:31Z</time>
      </trkpt>
      <trkpt lat="47.08462" lon="2.46046">
        <ele>131</ele>
        <time>2021-08-25T14:06:31Z</time>
      </trkpt>
      <trkpt lat="47.08463" lon="2.45995">
        <ele>130</ele>
        <time>2021-08-25T14:06:31Z</time>
      </trkpt>
      <trkpt lat="47.08461" lon="2.45947">
        <ele>130</ele>
        <time>2021-08-25T14:06:31Z</time>
      </trkpt>
      <trkpt lat="47.08463" lon="2.45913">
        <ele>130</ele>
        <time>2021-08-25T14:06:31Z</time>
      </trkpt>
      <trkpt lat="47.08463" lon="2.45905">
        <ele>130</ele>
        <time>2021-08-25T14:06:31Z</time>
      </trkpt>
      <trkpt lat="47.08464" lon="2.45896">
        <ele>130</ele>
        <time>2021-08-25T14:06:31Z</time>
      </trkpt>
      <trkpt lat="47.08465" lon="2.45888">
        <ele>130</ele>
        <time>2021-08-25T14:06:31Z</time>
      </trkpt>
      <trkpt lat="47.08464" lon="2.4588">
        <ele>130</ele>
        <time>2021-08-25T14:06:31Z</time>
      </trkpt>
      <trkpt lat="47.08463" lon="2.45873">
        <ele>130</ele>
        <time>2021-08-25T14:06:31Z</time>
      </trkpt>
      <trkpt lat="47.08462" lon="2.45869">
        <ele>130</ele>
        <time>2021-08-25T14:06:31Z</time>
      </trkpt>
      <trkpt lat="47.08461" lon="2.45866">
        <ele>130</ele>
        <time>2021-08-25T14:06:31Z</time>
      </trkpt>
      <trkpt lat="47.08461" lon="2.45863">
        <ele>130</ele>
        <time>2021-08-25T14:06:31Z</time>
      </trkpt>
      <trkpt lat="47.08462" lon="2.45861">
        <ele>130</ele>
        <time>2021-08-25T14:06:31Z</time>
      </trkpt>
      <trkpt lat="47.08463" lon="2.45861">
        <ele>131</ele>
        <time>2021-08-25T14:06:31Z</time>
      </trkpt>
      <trkpt lat="47.08464" lon="2.45862">
        <ele>130</ele>
        <time>2021-08-25T14:06:31Z</time>
      </trkpt>
      <trkpt lat="47.08464" lon="2.45862">
        <ele>130</ele>
        <time>2021-08-25T14:06:31Z</time>
      </trkpt>
      <trkpt lat="47.08464" lon="2.45862">
        <ele>130</ele>
        <time>2021-08-25T14:06:31Z</time>
      </trkpt>
      <trkpt lat="47.08465" lon="2.4586">
        <ele>131</ele>
        <time>2021-08-25T14:06:31Z</time>
      </trkpt>
      <trkpt lat="47.08466" lon="2.45859">
        <ele>131</ele>
        <time>2021-08-25T14:06:31Z</time>
      </trkpt>
      <trkpt lat="47.08467" lon="2.45857">
        <ele>131</ele>
        <time>2021-08-25T14:06:31Z</time>
      </trkpt>
      <trkpt lat="47.08468" lon="2.45853">
        <ele>131</ele>
        <time>2021-08-25T14:06:31Z</time>
      </trkpt>
      <trkpt lat="47.08469" lon="2.45847">
        <ele>131</ele>
        <time>2021-08-25T14:06:31Z</time>
      </trkpt>
      <trkpt lat="47.08469" lon="2.45841">
        <ele>131</ele>
        <time>2021-08-25T14:06:31Z</time>
      </trkpt>
      <trkpt lat="47.0847" lon="2.45833">
        <ele>131</ele>
        <time>2021-08-25T14:06:31Z</time>
      </trkpt>
      <trkpt lat="47.08471" lon="2.45826">
        <ele>131</ele>
        <time>2021-08-25T14:06:31Z</time>
      </trkpt>
      <trkpt lat="47.08472" lon="2.45818">
        <ele>131</ele>
        <time>2021-08-25T14:06:31Z</time>
      </trkpt>
      <trkpt lat="47.08473" lon="2.4581">
        <ele>130</ele>
        <time>2021-08-25T14:06:31Z</time>
      </trkpt>
      <trkpt lat="47.08473" lon="2.45801">
        <ele>130</ele>
        <time>2021-08-25T14:06:31Z</time>
      </trkpt>
      <trkpt lat="47.08474" lon="2.45792">
        <ele>130</ele>
        <time>2021-08-25T14:06:31Z</time>
      </trkpt>
      <trkpt lat="47.08475" lon="2.45782">
        <ele>130</ele>
        <time>2021-08-25T14:06:31Z</time>
      </trkpt>
      <trkpt lat="47.08476" lon="2.45773">
        <ele>130</ele>
        <time>2021-08-25T14:06:31Z</time>
      </trkpt>
      <trkpt lat="47.08477" lon="2.45764">
        <ele>130</ele>
        <time>2021-08-25T14:06:31Z</time>
      </trkpt>
      <trkpt lat="47.08478" lon="2.45754">
        <ele>130</ele>
        <time>2021-08-25T14:06:31Z</time>
      </trkpt>
      <trkpt lat="47.08479" lon="2.45745">
        <ele>131</ele>
        <time>2021-08-25T14:06:31Z</time>
      </trkpt>
      <trkpt lat="47.0848" lon="2.45736">
        <ele>131</ele>
        <time>2021-08-25T14:06:31Z</time>
      </trkpt>
      <trkpt lat="47.08481" lon="2.45727">
        <ele>132</ele>
        <time>2021-08-25T14:06:31Z</time>
      </trkpt>
      <trkpt lat="47.08482" lon="2.45718">
        <ele>132</ele>
        <time>2021-08-25T14:06:31Z</time>
      </trkpt>
      <trkpt lat="47.08483" lon="2.45709">
        <ele>133</ele>
        <time>2021-08-25T14:06:31Z</time>
      </trkpt>
      <trkpt lat="47.08484" lon="2.457">
        <ele>133</ele>
        <time>2021-08-25T14:06:31Z</time>
      </trkpt>
      <trkpt lat="47.08485" lon="2.45691">
        <ele>134</ele>
        <time>2021-08-25T14:06:31Z</time>
      </trkpt>
      <trkpt lat="47.08486" lon="2.45682">
        <ele>134</ele>
        <time>2021-08-25T14:06:31Z</time>
      </trkpt>
      <trkpt lat="47.08487" lon="2.45673">
        <ele>135</ele>
        <time>2021-08-25T14:06:31Z</time>
      </trkpt>
      <trkpt lat="47.08488" lon="2.45665">
        <ele>135</ele>
        <time>2021-08-25T14:06:31Z</time>
      </trkpt>
      <trkpt lat="47.08489" lon="2.45656">
        <ele>135</ele>
        <time>2021-08-25T14:06:31Z</time>
      </trkpt>
      <trkpt lat="47.0849" lon="2.45647">
        <ele>135</ele>
        <time>2021-08-25T14:06:31Z</time>
      </trkpt>
      <trkpt lat="47.08491" lon="2.45637">
        <ele>136</ele>
        <time>2021-08-25T14:06:31Z</time>
      </trkpt>
      <trkpt lat="47.08492" lon="2.45628">
        <ele>136</ele>
        <time>2021-08-25T14:06:31Z</time>
      </trkpt>
      <trkpt lat="47.08492" lon="2.45619">
        <ele>136</ele>
        <time>2021-08-25T14:06:31Z</time>
      </trkpt>
      <trkpt lat="47.08491" lon="2.4561">
        <ele>136</ele>
        <time>2021-08-25T14:06:31Z</time>
      </trkpt>
      <trkpt lat="47.0849" lon="2.45602">
        <ele>136</ele>
        <time>2021-08-25T14:06:31Z</time>
      </trkpt>
      <trkpt lat="47.08488" lon="2.45592">
        <ele>136</ele>
        <time>2021-08-25T14:06:31Z</time>
      </trkpt>
      <trkpt lat="47.08486" lon="2.45584">
        <ele>136</ele>
        <time>2021-08-25T14:06:31Z</time>
      </trkpt>
      <trkpt lat="47.08482" lon="2.45576">
        <ele>137</ele>
        <time>2021-08-25T14:06:31Z</time>
      </trkpt>
      <trkpt lat="47.08478" lon="2.45569">
        <ele>137</ele>
        <time>2021-08-25T14:06:31Z</time>
      </trkpt>
      <trkpt lat="47.08474" lon="2.45562">
        <ele>137</ele>
        <time>2021-08-25T14:06:31Z</time>
      </trkpt>
      <trkpt lat="47.0847" lon="2.45556">
        <ele>137</ele>
        <time>2021-08-25T14:06:31Z</time>
      </trkpt>
      <trkpt lat="47.08466" lon="2.4555">
        <ele>137</ele>
        <time>2021-08-25T14:06:31Z</time>
      </trkpt>
      <trkpt lat="47.08463" lon="2.45545">
        <ele>138</ele>
        <time>2021-08-25T14:06:31Z</time>
      </trkpt>
      <trkpt lat="47.0846" lon="2.45541">
        <ele>138</ele>
        <time>2021-08-25T14:06:31Z</time>
      </trkpt>
      <trkpt lat="47.08458" lon="2.45535">
        <ele>138</ele>
        <time>2021-08-25T14:06:31Z</time>
      </trkpt>
      <trkpt lat="47.08458" lon="2.45529">
        <ele>138</ele>
        <time>2021-08-25T14:06:31Z</time>
      </trkpt>
      <trkpt lat="47.08459" lon="2.45521">
        <ele>138</ele>
        <time>2021-08-25T14:06:31Z</time>
      </trkpt>
      <trkpt lat="47.08462" lon="2.45513">
        <ele>139</ele>
        <time>2021-08-25T14:06:31Z</time>
      </trkpt>
      <trkpt lat="47.08465" lon="2.45505">
        <ele>139</ele>
        <time>2021-08-25T14:06:31Z</time>
      </trkpt>
      <trkpt lat="47.08467" lon="2.45496">
        <ele>139</ele>
        <time>2021-08-25T14:06:31Z</time>
      </trkpt>
      <trkpt lat="47.08469" lon="2.45487">
        <ele>139</ele>
        <time>2021-08-25T14:06:31Z</time>
      </trkpt>
      <trkpt lat="47.08471" lon="2.45478">
        <ele>139</ele>
        <time>2021-08-25T14:06:31Z</time>
      </trkpt>
      <trkpt lat="47.08473" lon="2.4547">
        <ele>138</ele>
        <time>2021-08-25T14:06:31Z</time>
      </trkpt>
      <trkpt lat="47.08475" lon="2.4546">
        <ele>138</ele>
        <time>2021-08-25T14:06:31Z</time>
      </trkpt>
      <trkpt lat="47.08476" lon="2.45451">
        <ele>138</ele>
        <time>2021-08-25T14:06:31Z</time>
      </trkpt>
      <trkpt lat="47.08478" lon="2.45442">
        <ele>138</ele>
        <time>2021-08-25T14:06:31Z</time>
      </trkpt>
      <trkpt lat="47.0848" lon="2.45433">
        <ele>139</ele>
        <time>2021-08-25T14:06:31Z</time>
      </trkpt>
      <trkpt lat="47.08481" lon="2.45424">
        <ele>139</ele>
        <time>2021-08-25T14:06:31Z</time>
      </trkpt>
      <trkpt lat="47.08483" lon="2.45415">
        <ele>139</ele>
        <time>2021-08-25T14:06:31Z</time>
      </trkpt>
      <trkpt lat="47.08488" lon="2.4537">
        <ele>140</ele>
        <time>2021-08-25T14:06:31Z</time>
      </trkpt>
      <trkpt lat="47.0849" lon="2.45325">
        <ele>140</ele>
        <time>2021-08-25T14:06:31Z</time>
      </trkpt>
      <trkpt lat="47.0849" lon="2.45278">
        <ele>141</ele>
        <time>2021-08-25T14:06:31Z</time>
      </trkpt>
      <trkpt lat="47.08488" lon="2.45231">
        <ele>144</ele>
        <time>2021-08-25T14:06:31Z</time>
      </trkpt>
      <trkpt lat="47.08482" lon="2.45185">
        <ele>145</ele>
        <time>2021-08-25T14:06:31Z</time>
      </trkpt>
      <trkpt lat="47.08478" lon="2.45148">
        <ele>145</ele>
        <time>2021-08-25T14:06:31Z</time>
      </trkpt>
      <trkpt lat="47.08477" lon="2.45139">
        <ele>145</ele>
        <time>2021-08-25T14:06:31Z</time>
      </trkpt>
      <trkpt lat="47.0847" lon="2.45091">
        <ele>147</ele>
        <time>2021-08-25T14:06:31Z</time>
      </trkpt>
      <trkpt lat="47.08462" lon="2.45044">
        <ele>146</ele>
        <time>2021-08-25T14:06:31Z</time>
      </trkpt>
      <trkpt lat="47.08455" lon="2.44997">
        <ele>145</ele>
        <time>2021-08-25T14:06:31Z</time>
      </trkpt>
      <trkpt lat="47.08447" lon="2.44948">
        <ele>144</ele>
        <time>2021-08-25T14:06:31Z</time>
      </trkpt>
      <trkpt lat="47.0844" lon="2.44897">
        <ele>142</ele>
        <time>2021-08-25T14:06:31Z</time>
      </trkpt>
      <trkpt lat="47.08435" lon="2.44857">
        <ele>143</ele>
        <time>2021-08-25T14:06:31Z</time>
      </trkpt>
      <trkpt lat="47.08433" lon="2.44846">
        <ele>143</ele>
        <time>2021-08-25T14:06:31Z</time>
      </trkpt>
      <trkpt lat="47.08426" lon="2.44794">
        <ele>144</ele>
        <time>2021-08-25T14:06:31Z</time>
      </trkpt>
      <trkpt lat="47.08418" lon="2.44744">
        <ele>144</ele>
        <time>2021-08-25T14:06:31Z</time>
      </trkpt>
      <trkpt lat="47.08412" lon="2.44697">
        <ele>144</ele>
        <time>2021-08-25T14:06:31Z</time>
      </trkpt>
      <trkpt lat="47.08405" lon="2.44649">
        <ele>144</ele>
        <time>2021-08-25T14:06:31Z</time>
      </trkpt>
      <trkpt lat="47.084" lon="2.446">
        <ele>144</ele>
        <time>2021-08-25T14:06:31Z</time>
      </trkpt>
      <trkpt lat="47.08398" lon="2.44561">
        <ele>144</ele>
        <time>2021-08-25T14:06:31Z</time>
      </trkpt>
      <trkpt lat="47.08399" lon="2.44551">
        <ele>144</ele>
        <time>2021-08-25T14:06:31Z</time>
      </trkpt>
      <trkpt lat="47.08401" lon="2.44498">
        <ele>144</ele>
        <time>2021-08-25T14:06:31Z</time>
      </trkpt>
      <trkpt lat="47.08414" lon="2.44451">
        <ele>142</ele>
        <time>2021-08-25T14:06:31Z</time>
      </trkpt>
      <trkpt lat="47.08421" lon="2.444">
        <ele>141</ele>
        <time>2021-08-25T14:06:31Z</time>
      </trkpt>
      <trkpt lat="47.08403" lon="2.44353">
        <ele>142</ele>
        <time>2021-08-25T14:06:31Z</time>
      </trkpt>
      <trkpt lat="47.08397" lon="2.443">
        <ele>142</ele>
        <time>2021-08-25T14:06:31Z</time>
      </trkpt>
      <trkpt lat="47.08398" lon="2.44258">
        <ele>143</ele>
        <time>2021-08-25T14:06:31Z</time>
      </trkpt>
      <trkpt lat="47.08402" lon="2.4425">
        <ele>143</ele>
        <time>2021-08-25T14:06:31Z</time>
      </trkpt>
      <trkpt lat="47.08409" lon="2.44223">
        <ele>141</ele>
        <time>2021-08-25T14:06:31Z</time>
      </trkpt>
      <trkpt lat="47.08408" lon="2.44212">
        <ele>141</ele>
        <time>2021-08-25T14:06:31Z</time>
      </trkpt>
      <trkpt lat="47.08405" lon="2.44204">
        <ele>141</ele>
        <time>2021-08-25T14:06:31Z</time>
      </trkpt>
      <trkpt lat="47.084" lon="2.44196">
        <ele>141</ele>
        <time>2021-08-25T14:06:31Z</time>
      </trkpt>
      <trkpt lat="47.08396" lon="2.44189">
        <ele>141</ele>
        <time>2021-08-25T14:06:31Z</time>
      </trkpt>
      <trkpt lat="47.08392" lon="2.44181">
        <ele>141</ele>
        <time>2021-08-25T14:06:31Z</time>
      </trkpt>
      <trkpt lat="47.08389" lon="2.44172">
        <ele>141</ele>
        <time>2021-08-25T14:06:31Z</time>
      </trkpt>
      <trkpt lat="47.08387" lon="2.44163">
        <ele>141</ele>
        <time>2021-08-25T14:06:31Z</time>
      </trkpt>
      <trkpt lat="47.08386" lon="2.44153">
        <ele>140</ele>
        <time>2021-08-25T14:06:31Z</time>
      </trkpt>
      <trkpt lat="47.08384" lon="2.44143">
        <ele>140</ele>
        <time>2021-08-25T14:06:31Z</time>
      </trkpt>
      <trkpt lat="47.08383" lon="2.44133">
        <ele>140</ele>
        <time>2021-08-25T14:06:31Z</time>
      </trkpt>
      <trkpt lat="47.08383" lon="2.44123">
        <ele>141</ele>
        <time>2021-08-25T14:06:31Z</time>
      </trkpt>
      <trkpt lat="47.08382" lon="2.44113">
        <ele>141</ele>
        <time>2021-08-25T14:06:31Z</time>
      </trkpt>
      <trkpt lat="47.08381" lon="2.44101">
        <ele>141</ele>
        <time>2021-08-25T14:06:31Z</time>
      </trkpt>
      <trkpt lat="47.0838" lon="2.44091">
        <ele>142</ele>
        <time>2021-08-25T14:06:31Z</time>
      </trkpt>
      <trkpt lat="47.08381" lon="2.44081">
        <ele>142</ele>
        <time>2021-08-25T14:06:31Z</time>
      </trkpt>
      <trkpt lat="47.08381" lon="2.4407">
        <ele>142</ele>
        <time>2021-08-25T14:06:31Z</time>
      </trkpt>
      <trkpt lat="47.08381" lon="2.4406">
        <ele>143</ele>
        <time>2021-08-25T14:06:31Z</time>
      </trkpt>
      <trkpt lat="47.0838" lon="2.44049">
        <ele>143</ele>
        <time>2021-08-25T14:06:31Z</time>
      </trkpt>
      <trkpt lat="47.0838" lon="2.44039">
        <ele>143</ele>
        <time>2021-08-25T14:06:31Z</time>
      </trkpt>
      <trkpt lat="47.0838" lon="2.44028">
        <ele>143</ele>
        <time>2021-08-25T14:06:31Z</time>
      </trkpt>
      <trkpt lat="47.0838" lon="2.44018">
        <ele>143</ele>
        <time>2021-08-25T14:06:31Z</time>
      </trkpt>
      <trkpt lat="47.0838" lon="2.44007">
        <ele>142</ele>
        <time>2021-08-25T14:06:31Z</time>
      </trkpt>
      <trkpt lat="47.08379" lon="2.43996">
        <ele>142</ele>
        <time>2021-08-25T14:06:31Z</time>
      </trkpt>
      <trkpt lat="47.08378" lon="2.43985">
        <ele>142</ele>
        <time>2021-08-25T14:06:31Z</time>
      </trkpt>
      <trkpt lat="47.08377" lon="2.43974">
        <ele>142</ele>
        <time>2021-08-25T14:06:31Z</time>
      </trkpt>
      <trkpt lat="47.08376" lon="2.43963">
        <ele>142</ele>
        <time>2021-08-25T14:06:31Z</time>
      </trkpt>
      <trkpt lat="47.08375" lon="2.43952">
        <ele>141</ele>
        <time>2021-08-25T14:06:31Z</time>
      </trkpt>
      <trkpt lat="47.08374" lon="2.43941">
        <ele>141</ele>
        <time>2021-08-25T14:06:31Z</time>
      </trkpt>
      <trkpt lat="47.08373" lon="2.43931">
        <ele>141</ele>
        <time>2021-08-25T14:06:31Z</time>
      </trkpt>
      <trkpt lat="47.08372" lon="2.4392">
        <ele>140</ele>
        <time>2021-08-25T14:06:31Z</time>
      </trkpt>
      <trkpt lat="47.08371" lon="2.43909">
        <ele>140</ele>
        <time>2021-08-25T14:06:31Z</time>
      </trkpt>
      <trkpt lat="47.0837" lon="2.43898">
        <ele>141</ele>
        <time>2021-08-25T14:06:31Z</time>
      </trkpt>
      <trkpt lat="47.08369" lon="2.43888">
        <ele>141</ele>
        <time>2021-08-25T14:06:31Z</time>
      </trkpt>
      <trkpt lat="47.08369" lon="2.43877">
        <ele>141</ele>
        <time>2021-08-25T14:06:31Z</time>
      </trkpt>
      <trkpt lat="47.08367" lon="2.43866">
        <ele>141</ele>
        <time>2021-08-25T14:06:31Z</time>
      </trkpt>
      <trkpt lat="47.08366" lon="2.43855">
        <ele>141</ele>
        <time>2021-08-25T14:06:31Z</time>
      </trkpt>
      <trkpt lat="47.08366" lon="2.43844">
        <ele>140</ele>
        <time>2021-08-25T14:06:31Z</time>
      </trkpt>
      <trkpt lat="47.08365" lon="2.43833">
        <ele>140</ele>
        <time>2021-08-25T14:06:31Z</time>
      </trkpt>
      <trkpt lat="47.08364" lon="2.43823">
        <ele>140</ele>
        <time>2021-08-25T14:06:31Z</time>
      </trkpt>
      <trkpt lat="47.08363" lon="2.43811">
        <ele>140</ele>
        <time>2021-08-25T14:06:31Z</time>
      </trkpt>
      <trkpt lat="47.08362" lon="2.438">
        <ele>140</ele>
        <time>2021-08-25T14:06:31Z</time>
      </trkpt>
      <trkpt lat="47.08361" lon="2.43789">
        <ele>140</ele>
        <time>2021-08-25T14:06:31Z</time>
      </trkpt>
      <trkpt lat="47.08361" lon="2.43778">
        <ele>140</ele>
        <time>2021-08-25T14:06:31Z</time>
      </trkpt>
      <trkpt lat="47.0836" lon="2.43768">
        <ele>139</ele>
        <time>2021-08-25T14:06:31Z</time>
      </trkpt>
      <trkpt lat="47.08359" lon="2.43757">
        <ele>139</ele>
        <time>2021-08-25T14:06:31Z</time>
      </trkpt>
      <trkpt lat="47.08359" lon="2.43746">
        <ele>139</ele>
        <time>2021-08-25T14:06:31Z</time>
      </trkpt>
      <trkpt lat="47.08358" lon="2.43737">
        <ele>138</ele>
        <time>2021-08-25T14:06:31Z</time>
      </trkpt>
      <trkpt lat="47.08359" lon="2.43726">
        <ele>138</ele>
        <time>2021-08-25T14:06:31Z</time>
      </trkpt>
      <trkpt lat="47.0836" lon="2.43715">
        <ele>138</ele>
        <time>2021-08-25T14:06:31Z</time>
      </trkpt>
      <trkpt lat="47.08361" lon="2.43705">
        <ele>138</ele>
        <time>2021-08-25T14:06:31Z</time>
      </trkpt>
      <trkpt lat="47.08362" lon="2.43694">
        <ele>138</ele>
        <time>2021-08-25T14:06:31Z</time>
      </trkpt>
      <trkpt lat="47.08362" lon="2.43683">
        <ele>138</ele>
        <time>2021-08-25T14:06:31Z</time>
      </trkpt>
      <trkpt lat="47.08364" lon="2.43672">
        <ele>138</ele>
        <time>2021-08-25T14:06:31Z</time>
      </trkpt>
      <trkpt lat="47.08365" lon="2.43661">
        <ele>138</ele>
        <time>2021-08-25T14:06:31Z</time>
      </trkpt>
      <trkpt lat="47.08366" lon="2.43651">
        <ele>138</ele>
        <time>2021-08-25T14:06:31Z</time>
      </trkpt>
      <trkpt lat="47.08368" lon="2.4364">
        <ele>137</ele>
        <time>2021-08-25T14:06:31Z</time>
      </trkpt>
      <trkpt lat="47.08371" lon="2.43629">
        <ele>137</ele>
        <time>2021-08-25T14:06:31Z</time>
      </trkpt>
      <trkpt lat="47.08374" lon="2.43619">
        <ele>137</ele>
        <time>2021-08-25T14:06:31Z</time>
      </trkpt>
      <trkpt lat="47.08377" lon="2.43608">
        <ele>137</ele>
        <time>2021-08-25T14:06:31Z</time>
      </trkpt>
      <trkpt lat="47.08381" lon="2.43598">
        <ele>136</ele>
        <time>2021-08-25T14:06:31Z</time>
      </trkpt>
      <trkpt lat="47.08388" lon="2.43551">
        <ele>135</ele>
        <time>2021-08-25T14:06:31Z</time>
      </trkpt>
      <trkpt lat="47.08372" lon="2.43517">
        <ele>136</ele>
        <time>2021-08-25T14:06:31Z</time>
      </trkpt>
      <trkpt lat="47.08361" lon="2.43479">
        <ele>136</ele>
        <time>2021-08-25T14:06:31Z</time>
      </trkpt>
      <trkpt lat="47.08365" lon="2.43438">
        <ele>136</ele>
        <time>2021-08-25T14:06:31Z</time>
      </trkpt>
      <trkpt lat="47.0837" lon="2.43393">
        <ele>137</ele>
        <time>2021-08-25T14:06:31Z</time>
      </trkpt>
      <trkpt lat="47.08372" lon="2.43358">
        <ele>139</ele>
        <time>2021-08-25T14:06:31Z</time>
      </trkpt>
      <trkpt lat="47.08372" lon="2.43349">
        <ele>139</ele>
        <time>2021-08-25T14:06:31Z</time>
      </trkpt>
      <trkpt lat="47.08375" lon="2.4332">
        <ele>140</ele>
        <time>2021-08-25T14:06:31Z</time>
      </trkpt>
      <trkpt lat="47.08374" lon="2.43317">
        <ele>140</ele>
        <time>2021-08-25T14:06:31Z</time>
      </trkpt>
      <trkpt lat="47.08364" lon="2.43315">
        <ele>140</ele>
        <time>2021-08-25T14:06:31Z</time>
      </trkpt>
      <trkpt lat="47.08352" lon="2.433">
        <ele>139</ele>
        <time>2021-08-25T14:06:31Z</time>
      </trkpt>
      <trkpt lat="47.08345" lon="2.43262">
        <ele>138</ele>
        <time>2021-08-25T14:06:31Z</time>
      </trkpt>
      <trkpt lat="47.08321" lon="2.43252">
        <ele>138</ele>
        <time>2021-08-25T14:06:31Z</time>
      </trkpt>
      <trkpt lat="47.08316" lon="2.43248">
        <ele>138</ele>
        <time>2021-08-25T14:06:31Z</time>
      </trkpt>
      <trkpt lat="47.0831" lon="2.43244">
        <ele>138</ele>
        <time>2021-08-25T14:06:31Z</time>
      </trkpt>
      <trkpt lat="47.08305" lon="2.4324">
        <ele>138</ele>
        <time>2021-08-25T14:06:31Z</time>
      </trkpt>
      <trkpt lat="47.083" lon="2.43237">
        <ele>138</ele>
        <time>2021-08-25T14:06:31Z</time>
      </trkpt>
      <trkpt lat="47.08294" lon="2.43233">
        <ele>138</ele>
        <time>2021-08-25T14:06:31Z</time>
      </trkpt>
      <trkpt lat="47.08288" lon="2.4323">
        <ele>138</ele>
        <time>2021-08-25T14:06:31Z</time>
      </trkpt>
      <trkpt lat="47.08282" lon="2.43226">
        <ele>138</ele>
        <time>2021-08-25T14:06:31Z</time>
      </trkpt>
      <trkpt lat="47.08277" lon="2.43223">
        <ele>138</ele>
        <time>2021-08-25T14:06:31Z</time>
      </trkpt>
      <trkpt lat="47.08271" lon="2.4322">
        <ele>138</ele>
        <time>2021-08-25T14:06:31Z</time>
      </trkpt>
      <trkpt lat="47.08265" lon="2.43217">
        <ele>138</ele>
        <time>2021-08-25T14:06:31Z</time>
      </trkpt>
      <trkpt lat="47.08259" lon="2.43214">
        <ele>138</ele>
        <time>2021-08-25T14:06:31Z</time>
      </trkpt>
      <trkpt lat="47.08254" lon="2.4321">
        <ele>138</ele>
        <time>2021-08-25T14:06:31Z</time>
      </trkpt>
      <trkpt lat="47.08248" lon="2.43206">
        <ele>139</ele>
        <time>2021-08-25T14:06:31Z</time>
      </trkpt>
      <trkpt lat="47.08242" lon="2.43203">
        <ele>139</ele>
        <time>2021-08-25T14:06:31Z</time>
      </trkpt>
      <trkpt lat="47.08236" lon="2.43199">
        <ele>139</ele>
        <time>2021-08-25T14:06:31Z</time>
      </trkpt>
      <trkpt lat="47.0823" lon="2.43196">
        <ele>139</ele>
        <time>2021-08-25T14:06:31Z</time>
      </trkpt>
      <trkpt lat="47.08225" lon="2.43192">
        <ele>139</ele>
        <time>2021-08-25T14:06:31Z</time>
      </trkpt>
      <trkpt lat="47.08219" lon="2.43189">
        <ele>140</ele>
        <time>2021-08-25T14:06:31Z</time>
      </trkpt>
      <trkpt lat="47.08213" lon="2.43185">
        <ele>140</ele>
        <time>2021-08-25T14:06:31Z</time>
      </trkpt>
      <trkpt lat="47.08207" lon="2.43182">
        <ele>140</ele>
        <time>2021-08-25T14:06:31Z</time>
      </trkpt>
      <trkpt lat="47.08202" lon="2.43178">
        <ele>140</ele>
        <time>2021-08-25T14:06:31Z</time>
      </trkpt>
      <trkpt lat="47.08196" lon="2.43175">
        <ele>140</ele>
        <time>2021-08-25T14:06:31Z</time>
      </trkpt>
      <trkpt lat="47.08191" lon="2.43172">
        <ele>140</ele>
        <time>2021-08-25T14:06:31Z</time>
      </trkpt>
      <trkpt lat="47.08185" lon="2.43168">
        <ele>140</ele>
        <time>2021-08-25T14:06:31Z</time>
      </trkpt>
      <trkpt lat="47.08179" lon="2.43165">
        <ele>140</ele>
        <time>2021-08-25T14:06:31Z</time>
      </trkpt>
      <trkpt lat="47.08173" lon="2.43162">
        <ele>140</ele>
        <time>2021-08-25T14:06:31Z</time>
      </trkpt>
      <trkpt lat="47.08168" lon="2.43158">
        <ele>140</ele>
        <time>2021-08-25T14:06:31Z</time>
      </trkpt>
      <trkpt lat="47.08162" lon="2.43154">
        <ele>140</ele>
        <time>2021-08-25T14:06:31Z</time>
      </trkpt>
      <trkpt lat="47.08156" lon="2.4315">
        <ele>140</ele>
        <time>2021-08-25T14:06:31Z</time>
      </trkpt>
      <trkpt lat="47.0815" lon="2.43148">
        <ele>140</ele>
        <time>2021-08-25T14:06:31Z</time>
      </trkpt>
      <trkpt lat="47.08144" lon="2.43147">
        <ele>140</ele>
        <time>2021-08-25T14:06:31Z</time>
      </trkpt>
      <trkpt lat="47.08138" lon="2.43147">
        <ele>141</ele>
        <time>2021-08-25T14:06:31Z</time>
      </trkpt>
      <trkpt lat="47.08132" lon="2.43147">
        <ele>141</ele>
        <time>2021-08-25T14:06:31Z</time>
      </trkpt>
      <trkpt lat="47.08126" lon="2.43148">
        <ele>141</ele>
        <time>2021-08-25T14:06:31Z</time>
      </trkpt>
      <trkpt lat="47.0812" lon="2.43148">
        <ele>141</ele>
        <time>2021-08-25T14:06:31Z</time>
      </trkpt>
      <trkpt lat="47.08114" lon="2.43149">
        <ele>141</ele>
        <time>2021-08-25T14:06:31Z</time>
      </trkpt>
      <trkpt lat="47.08107" lon="2.4315">
        <ele>142</ele>
        <time>2021-08-25T14:06:31Z</time>
      </trkpt>
      <trkpt lat="47.08101" lon="2.4315">
        <ele>142</ele>
        <time>2021-08-25T14:06:31Z</time>
      </trkpt>
      <trkpt lat="47.08095" lon="2.43151">
        <ele>142</ele>
        <time>2021-08-25T14:06:31Z</time>
      </trkpt>
      <trkpt lat="47.08089" lon="2.43152">
        <ele>142</ele>
        <time>2021-08-25T14:06:31Z</time>
      </trkpt>
      <trkpt lat="47.08082" lon="2.43153">
        <ele>143</ele>
        <time>2021-08-25T14:06:31Z</time>
      </trkpt>
      <trkpt lat="47.08076" lon="2.43154">
        <ele>143</ele>
        <time>2021-08-25T14:06:31Z</time>
      </trkpt>
      <trkpt lat="47.08069" lon="2.43153">
        <ele>143</ele>
        <time>2021-08-25T14:06:31Z</time>
      </trkpt>
      <trkpt lat="47.08063" lon="2.43153">
        <ele>143</ele>
        <time>2021-08-25T14:06:31Z</time>
      </trkpt>
      <trkpt lat="47.08057" lon="2.43154">
        <ele>143</ele>
        <time>2021-08-25T14:06:31Z</time>
      </trkpt>
      <trkpt lat="47.08052" lon="2.43154">
        <ele>143</ele>
        <time>2021-08-25T14:06:31Z</time>
      </trkpt>
      <trkpt lat="47.08047" lon="2.43155">
        <ele>143</ele>
        <time>2021-08-25T14:06:31Z</time>
      </trkpt>
      <trkpt lat="47.08044" lon="2.43153">
        <ele>142</ele>
        <time>2021-08-25T14:06:31Z</time>
      </trkpt>
      <trkpt lat="47.0804" lon="2.4315">
        <ele>142</ele>
        <time>2021-08-25T14:06:31Z</time>
      </trkpt>
      <trkpt lat="47.08037" lon="2.43145">
        <ele>142</ele>
        <time>2021-08-25T14:06:31Z</time>
      </trkpt>
      <trkpt lat="47.08035" lon="2.43138">
        <ele>142</ele>
        <time>2021-08-25T14:06:31Z</time>
      </trkpt>
      <trkpt lat="47.08035" lon="2.43131">
        <ele>142</ele>
        <time>2021-08-25T14:06:31Z</time>
      </trkpt>
      <trkpt lat="47.08034" lon="2.43123">
        <ele>142</ele>
        <time>2021-08-25T14:06:31Z</time>
      </trkpt>
      <trkpt lat="47.08033" lon="2.43113">
        <ele>142</ele>
        <time>2021-08-25T14:06:31Z</time>
      </trkpt>
      <trkpt lat="47.08033" lon="2.43103">
        <ele>142</ele>
        <time>2021-08-25T14:06:31Z</time>
      </trkpt>
      <trkpt lat="47.08032" lon="2.43094">
        <ele>142</ele>
        <time>2021-08-25T14:06:31Z</time>
      </trkpt>
      <trkpt lat="47.08031" lon="2.43084">
        <ele>142</ele>
        <time>2021-08-25T14:06:31Z</time>
      </trkpt>
      <trkpt lat="47.0803" lon="2.43075">
        <ele>142</ele>
        <time>2021-08-25T14:06:31Z</time>
      </trkpt>
      <trkpt lat="47.08028" lon="2.43065">
        <ele>142</ele>
        <time>2021-08-25T14:06:31Z</time>
      </trkpt>
      <trkpt lat="47.08027" lon="2.43055">
        <ele>142</ele>
        <time>2021-08-25T14:06:31Z</time>
      </trkpt>
      <trkpt lat="47.08025" lon="2.43044">
        <ele>142</ele>
        <time>2021-08-25T14:06:31Z</time>
      </trkpt>
      <trkpt lat="47.08024" lon="2.43034">
        <ele>142</ele>
        <time>2021-08-25T14:06:31Z</time>
      </trkpt>
      <trkpt lat="47.08019" lon="2.42979">
        <ele>142</ele>
        <time>2021-08-25T14:06:31Z</time>
      </trkpt>
      <trkpt lat="47.08014" lon="2.42921">
        <ele>141</ele>
        <time>2021-08-25T14:06:31Z</time>
      </trkpt>
      <trkpt lat="47.0801" lon="2.42862">
        <ele>139</ele>
        <time>2021-08-25T14:06:31Z</time>
      </trkpt>
      <trkpt lat="47.08005" lon="2.42802">
        <ele>139</ele>
        <time>2021-08-25T14:06:31Z</time>
      </trkpt>
      <trkpt lat="47.07997" lon="2.42744">
        <ele>138</ele>
        <time>2021-08-25T14:06:31Z</time>
      </trkpt>
      <trkpt lat="47.07991" lon="2.42698">
        <ele>137</ele>
        <time>2021-08-25T14:06:31Z</time>
      </trkpt>
      <trkpt lat="47.07989" lon="2.42687">
        <ele>137</ele>
        <time>2021-08-25T14:06:31Z</time>
      </trkpt>
      <trkpt lat="47.07979" lon="2.42632">
        <ele>139</ele>
        <time>2021-08-25T14:06:31Z</time>
      </trkpt>
      <trkpt lat="47.07971" lon="2.42585">
        <ele>140</ele>
        <time>2021-08-25T14:06:31Z</time>
      </trkpt>
      <trkpt lat="47.07962" lon="2.42541">
        <ele>141</ele>
        <time>2021-08-25T14:06:31Z</time>
      </trkpt>
      <trkpt lat="47.07957" lon="2.42498">
        <ele>142</ele>
        <time>2021-08-25T14:06:31Z</time>
      </trkpt>
      <trkpt lat="47.07964" lon="2.42454">
        <ele>144</ele>
        <time>2021-08-25T14:06:31Z</time>
      </trkpt>
      <trkpt lat="47.07965" lon="2.42421">
        <ele>146</ele>
        <time>2021-08-25T14:06:31Z</time>
      </trkpt>
      <trkpt lat="47.07963" lon="2.42413">
        <ele>147</ele>
        <time>2021-08-25T14:06:31Z</time>
      </trkpt>
      <trkpt lat="47.07946" lon="2.42375">
        <ele>147</ele>
        <time>2021-08-25T14:06:31Z</time>
      </trkpt>
      <trkpt lat="47.07935" lon="2.42353">
        <ele>147</ele>
        <time>2021-08-25T14:06:31Z</time>
      </trkpt>
      <trkpt lat="47.07931" lon="2.42345">
        <ele>147</ele>
        <time>2021-08-25T14:06:31Z</time>
      </trkpt>
      <trkpt lat="47.07927" lon="2.42337">
        <ele>147</ele>
        <time>2021-08-25T14:06:31Z</time>
      </trkpt>
      <trkpt lat="47.07924" lon="2.42328">
        <ele>148</ele>
        <time>2021-08-25T14:06:31Z</time>
      </trkpt>
      <trkpt lat="47.0792" lon="2.4232">
        <ele>148</ele>
        <time>2021-08-25T14:06:31Z</time>
      </trkpt>
      <trkpt lat="47.07916" lon="2.42312">
        <ele>148</ele>
        <time>2021-08-25T14:06:31Z</time>
      </trkpt>
      <trkpt lat="47.07913" lon="2.42304">
        <ele>148</ele>
        <time>2021-08-25T14:06:31Z</time>
      </trkpt>
      <trkpt lat="47.07908" lon="2.42297">
        <ele>148</ele>
        <time>2021-08-25T14:06:31Z</time>
      </trkpt>
      <trkpt lat="47.07905" lon="2.42289">
        <ele>148</ele>
        <time>2021-08-25T14:06:31Z</time>
      </trkpt>
      <trkpt lat="47.07885" lon="2.42249">
        <ele>147</ele>
        <time>2021-08-25T14:06:31Z</time>
      </trkpt>
      <trkpt lat="47.07865" lon="2.42214">
        <ele>147</ele>
        <time>2021-08-25T14:06:31Z</time>
      </trkpt>
      <trkpt lat="47.07845" lon="2.42179">
        <ele>147</ele>
        <time>2021-08-25T14:06:31Z</time>
      </trkpt>
      <trkpt lat="47.07826" lon="2.42145">
        <ele>148</ele>
        <time>2021-08-25T14:06:31Z</time>
      </trkpt>
      <trkpt lat="47.07806" lon="2.42109">
        <ele>149</ele>
        <time>2021-08-25T14:06:31Z</time>
      </trkpt>
      <trkpt lat="47.07791" lon="2.42079">
        <ele>149</ele>
        <time>2021-08-25T14:06:31Z</time>
      </trkpt>
      <trkpt lat="47.07788" lon="2.42072">
        <ele>149</ele>
        <time>2021-08-25T14:06:31Z</time>
      </trkpt>
      <trkpt lat="47.07769" lon="2.42037">
        <ele>149</ele>
        <time>2021-08-25T14:06:31Z</time>
      </trkpt>
      <trkpt lat="47.0775" lon="2.42008">
        <ele>149</ele>
        <time>2021-08-25T14:06:31Z</time>
      </trkpt>
      <trkpt lat="47.0774" lon="2.41991">
        <ele>149</ele>
        <time>2021-08-25T14:06:31Z</time>
      </trkpt>
      <trkpt lat="47.07722" lon="2.41959">
        <ele>150</ele>
        <time>2021-08-25T14:06:31Z</time>
      </trkpt>
      <trkpt lat="47.07704" lon="2.41924">
        <ele>150</ele>
        <time>2021-08-25T14:06:31Z</time>
      </trkpt>
      <trkpt lat="47.07689" lon="2.41896">
        <ele>149</ele>
        <time>2021-08-25T14:06:31Z</time>
      </trkpt>
      <trkpt lat="47.07685" lon="2.41889">
        <ele>149</ele>
        <time>2021-08-25T14:06:31Z</time>
      </trkpt>
      <trkpt lat="47.07666" lon="2.41854">
        <ele>148</ele>
        <time>2021-08-25T14:06:31Z</time>
      </trkpt>
      <trkpt lat="47.07652" lon="2.41821">
        <ele>148</ele>
        <time>2021-08-25T14:06:31Z</time>
      </trkpt>
      <trkpt lat="47.07636" lon="2.41793">
        <ele>149</ele>
        <time>2021-08-25T14:06:31Z</time>
      </trkpt>
      <trkpt lat="47.07623" lon="2.41761">
        <ele>149</ele>
        <time>2021-08-25T14:06:31Z</time>
      </trkpt>
      <trkpt lat="47.07604" lon="2.41739">
        <ele>149</ele>
        <time>2021-08-25T14:06:31Z</time>
      </trkpt>
      <trkpt lat="47.0759" lon="2.41743">
        <ele>150</ele>
        <time>2021-08-25T14:06:31Z</time>
      </trkpt>
      <trkpt lat="47.07586" lon="2.41742">
        <ele>150</ele>
        <time>2021-08-25T14:06:31Z</time>
      </trkpt>
      <trkpt lat="47.07576" lon="2.41721">
        <ele>149</ele>
        <time>2021-08-25T14:06:31Z</time>
      </trkpt>
      <trkpt lat="47.07558" lon="2.4169">
        <ele>150</ele>
        <time>2021-08-25T14:06:31Z</time>
      </trkpt>
      <trkpt lat="47.07538" lon="2.41656">
        <ele>151</ele>
        <time>2021-08-25T14:06:31Z</time>
      </trkpt>
      <trkpt lat="47.0752" lon="2.4162">
        <ele>151</ele>
        <time>2021-08-25T14:06:31Z</time>
      </trkpt>
      <trkpt lat="47.07501" lon="2.41586">
        <ele>151</ele>
        <time>2021-08-25T14:06:31Z</time>
      </trkpt>
      <trkpt lat="47.07486" lon="2.41558">
        <ele>151</ele>
        <time>2021-08-25T14:06:31Z</time>
      </trkpt>
      <trkpt lat="47.07481" lon="2.41551">
        <ele>151</ele>
        <time>2021-08-25T14:06:31Z</time>
      </trkpt>
      <trkpt lat="47.07461" lon="2.41515">
        <ele>151</ele>
        <time>2021-08-25T14:06:31Z</time>
      </trkpt>
      <trkpt lat="47.07443" lon="2.41481">
        <ele>151</ele>
        <time>2021-08-25T14:06:31Z</time>
      </trkpt>
      <trkpt lat="47.07429" lon="2.41454">
        <ele>151</ele>
        <time>2021-08-25T14:06:31Z</time>
      </trkpt>
      <trkpt lat="47.07423" lon="2.41445">
        <ele>151</ele>
        <time>2021-08-25T14:06:31Z</time>
      </trkpt>
      <trkpt lat="47.07415" lon="2.41436">
        <ele>152</ele>
        <time>2021-08-25T14:06:31Z</time>
      </trkpt>
      <trkpt lat="47.07406" lon="2.41414">
        <ele>152</ele>
        <time>2021-08-25T14:06:31Z</time>
      </trkpt>
      <trkpt lat="47.07403" lon="2.41408">
        <ele>152</ele>
        <time>2021-08-25T14:06:31Z</time>
      </trkpt>
      <trkpt lat="47.07386" lon="2.41378">
        <ele>153</ele>
        <time>2021-08-25T14:06:31Z</time>
      </trkpt>
      <trkpt lat="47.07368" lon="2.41345">
        <ele>153</ele>
        <time>2021-08-25T14:06:31Z</time>
      </trkpt>
      <trkpt lat="47.0735" lon="2.41311">
        <ele>153</ele>
        <time>2021-08-25T14:06:31Z</time>
      </trkpt>
      <trkpt lat="47.07331" lon="2.41279">
        <ele>153</ele>
        <time>2021-08-25T14:06:31Z</time>
      </trkpt>
      <trkpt lat="47.07312" lon="2.41246">
        <ele>154</ele>
        <time>2021-08-25T14:06:31Z</time>
      </trkpt>
      <trkpt lat="47.07296" lon="2.4122">
        <ele>154</ele>
        <time>2021-08-25T14:06:31Z</time>
      </trkpt>
      <trkpt lat="47.07293" lon="2.41212">
        <ele>155</ele>
        <time>2021-08-25T14:06:31Z</time>
      </trkpt>
      <trkpt lat="47.07289" lon="2.41205">
        <ele>155</ele>
        <time>2021-08-25T14:06:31Z</time>
      </trkpt>
      <trkpt lat="47.07286" lon="2.41199">
        <ele>155</ele>
        <time>2021-08-25T14:06:31Z</time>
      </trkpt>
      <trkpt lat="47.07281" lon="2.41192">
        <ele>156</ele>
        <time>2021-08-25T14:06:31Z</time>
      </trkpt>
      <trkpt lat="47.07277" lon="2.41185">
        <ele>156</ele>
        <time>2021-08-25T14:06:31Z</time>
      </trkpt>
      <trkpt lat="47.07273" lon="2.41178">
        <ele>157</ele>
        <time>2021-08-25T14:06:31Z</time>
      </trkpt>
      <trkpt lat="47.0727" lon="2.41172">
        <ele>157</ele>
        <time>2021-08-25T14:06:31Z</time>
      </trkpt>
      <trkpt lat="47.07266" lon="2.41165">
        <ele>157</ele>
        <time>2021-08-25T14:06:31Z</time>
      </trkpt>
      <trkpt lat="47.07263" lon="2.41157">
        <ele>157</ele>
        <time>2021-08-25T14:06:31Z</time>
      </trkpt>
      <trkpt lat="47.0726" lon="2.4115">
        <ele>157</ele>
        <time>2021-08-25T14:06:31Z</time>
      </trkpt>
      <trkpt lat="47.07257" lon="2.41143">
        <ele>157</ele>
        <time>2021-08-25T14:06:31Z</time>
      </trkpt>
      <trkpt lat="47.07254" lon="2.41136">
        <ele>157</ele>
        <time>2021-08-25T14:06:31Z</time>
      </trkpt>
      <trkpt lat="47.0725" lon="2.4113">
        <ele>157</ele>
        <time>2021-08-25T14:06:31Z</time>
      </trkpt>
      <trkpt lat="47.07246" lon="2.41124">
        <ele>157</ele>
        <time>2021-08-25T14:06:31Z</time>
      </trkpt>
      <trkpt lat="47.07242" lon="2.4112">
        <ele>157</ele>
        <time>2021-08-25T14:06:31Z</time>
      </trkpt>
      <trkpt lat="47.07237" lon="2.41119">
        <ele>157</ele>
        <time>2021-08-25T14:06:31Z</time>
      </trkpt>
      <trkpt lat="47.07231" lon="2.41122">
        <ele>157</ele>
        <time>2021-08-25T14:06:31Z</time>
      </trkpt>
      <trkpt lat="47.07226" lon="2.41126">
        <ele>157</ele>
        <time>2021-08-25T14:06:31Z</time>
      </trkpt>
      <trkpt lat="47.07222" lon="2.41131">
        <ele>157</ele>
        <time>2021-08-25T14:06:31Z</time>
      </trkpt>
      <trkpt lat="47.07217" lon="2.41135">
        <ele>157</ele>
        <time>2021-08-25T14:06:31Z</time>
      </trkpt>
      <trkpt lat="47.07213" lon="2.41141">
        <ele>157</ele>
        <time>2021-08-25T14:06:31Z</time>
      </trkpt>
      <trkpt lat="47.07208" lon="2.41146">
        <ele>157</ele>
        <time>2021-08-25T14:06:31Z</time>
      </trkpt>
      <trkpt lat="47.07204" lon="2.41151">
        <ele>157</ele>
        <time>2021-08-25T14:06:31Z</time>
      </trkpt>
      <trkpt lat="47.07199" lon="2.41156">
        <ele>157</ele>
        <time>2021-08-25T14:06:31Z</time>
      </trkpt>
      <trkpt lat="47.07194" lon="2.41161">
        <ele>157</ele>
        <time>2021-08-25T14:06:31Z</time>
      </trkpt>
      <trkpt lat="47.0719" lon="2.41167">
        <ele>158</ele>
        <time>2021-08-25T14:06:31Z</time>
      </trkpt>
      <trkpt lat="47.07186" lon="2.41172">
        <ele>158</ele>
        <time>2021-08-25T14:06:31Z</time>
      </trkpt>
      <trkpt lat="47.07181" lon="2.41178">
        <ele>158</ele>
        <time>2021-08-25T14:06:31Z</time>
      </trkpt>
      <trkpt lat="47.07176" lon="2.41183">
        <ele>158</ele>
        <time>2021-08-25T14:06:31Z</time>
      </trkpt>
      <trkpt lat="47.07171" lon="2.41188">
        <ele>158</ele>
        <time>2021-08-25T14:06:31Z</time>
      </trkpt>
      <trkpt lat="47.07167" lon="2.41193">
        <ele>158</ele>
        <time>2021-08-25T14:06:31Z</time>
      </trkpt>
      <trkpt lat="47.07162" lon="2.41198">
        <ele>157</ele>
        <time>2021-08-25T14:06:31Z</time>
      </trkpt>
      <trkpt lat="47.07158" lon="2.41203">
        <ele>157</ele>
        <time>2021-08-25T14:06:31Z</time>
      </trkpt>
      <trkpt lat="47.07154" lon="2.41207">
        <ele>157</ele>
        <time>2021-08-25T14:06:31Z</time>
      </trkpt>
      <trkpt lat="47.07149" lon="2.41211">
        <ele>157</ele>
        <time>2021-08-25T14:06:31Z</time>
      </trkpt>
      <trkpt lat="47.07146" lon="2.41216">
        <ele>157</ele>
        <time>2021-08-25T14:06:31Z</time>
      </trkpt>
      <trkpt lat="47.07142" lon="2.41221">
        <ele>157</ele>
        <time>2021-08-25T14:06:31Z</time>
      </trkpt>
      <trkpt lat="47.07139" lon="2.41225">
        <ele>156</ele>
        <time>2021-08-25T14:06:31Z</time>
      </trkpt>
      <trkpt lat="47.07136" lon="2.41228">
        <ele>156</ele>
        <time>2021-08-25T14:06:31Z</time>
      </trkpt>
      <trkpt lat="47.07134" lon="2.41229">
        <ele>156</ele>
        <time>2021-08-25T14:06:31Z</time>
      </trkpt>
      <trkpt lat="47.07133" lon="2.41228">
        <ele>156</ele>
        <time>2021-08-25T14:06:31Z</time>
      </trkpt>
      <trkpt lat="47.07132" lon="2.41228">
        <ele>156</ele>
        <time>2021-08-25T14:06:31Z</time>
      </trkpt>
      <trkpt lat="47.07131" lon="2.41226">
        <ele>156</ele>
        <time>2021-08-25T14:06:31Z</time>
      </trkpt>
      <trkpt lat="47.0713" lon="2.41223">
        <ele>156</ele>
        <time>2021-08-25T14:06:31Z</time>
      </trkpt>
      <trkpt lat="47.0713" lon="2.41217">
        <ele>157</ele>
        <time>2021-08-25T14:06:31Z</time>
      </trkpt>
      <trkpt lat="47.0713" lon="2.41212">
        <ele>157</ele>
        <time>2021-08-25T14:06:31Z</time>
      </trkpt>
      <trkpt lat="47.07129" lon="2.41207">
        <ele>157</ele>
        <time>2021-08-25T14:06:31Z</time>
      </trkpt>
      <trkpt lat="47.07127" lon="2.41202">
        <ele>158</ele>
        <time>2021-08-25T14:06:31Z</time>
      </trkpt>
      <trkpt lat="47.07124" lon="2.41196">
        <ele>158</ele>
        <time>2021-08-25T14:06:31Z</time>
      </trkpt>
      <trkpt lat="47.07121" lon="2.4119">
        <ele>158</ele>
        <time>2021-08-25T14:06:31Z</time>
      </trkpt>
      <trkpt lat="47.07118" lon="2.41183">
        <ele>158</ele>
        <time>2021-08-25T14:06:31Z</time>
      </trkpt>
      <trkpt lat="47.07115" lon="2.41176">
        <ele>158</ele>
        <time>2021-08-25T14:06:31Z</time>
      </trkpt>
      <trkpt lat="47.07112" lon="2.41169">
        <ele>158</ele>
        <time>2021-08-25T14:06:31Z</time>
      </trkpt>
      <trkpt lat="47.07109" lon="2.41162">
        <ele>158</ele>
        <time>2021-08-25T14:06:31Z</time>
      </trkpt>
      <trkpt lat="47.07106" lon="2.41155">
        <ele>158</ele>
        <time>2021-08-25T14:06:31Z</time>
      </trkpt>
      <trkpt lat="47.07103" lon="2.41147">
        <ele>157</ele>
        <time>2021-08-25T14:06:31Z</time>
      </trkpt>
      <trkpt lat="47.071" lon="2.4114">
        <ele>157</ele>
        <time>2021-08-25T14:06:31Z</time>
      </trkpt>
      <trkpt lat="47.07097" lon="2.41133">
        <ele>157</ele>
        <time>2021-08-25T14:06:31Z</time>
      </trkpt>
      <trkpt lat="47.07095" lon="2.41126">
        <ele>157</ele>
        <time>2021-08-25T14:06:31Z</time>
      </trkpt>
      <trkpt lat="47.07092" lon="2.41119">
        <ele>157</ele>
        <time>2021-08-25T14:06:31Z</time>
      </trkpt>
      <trkpt lat="47.07089" lon="2.41113">
        <ele>157</ele>
        <time>2021-08-25T14:06:31Z</time>
      </trkpt>
      <trkpt lat="47.07086" lon="2.41106">
        <ele>157</ele>
        <time>2021-08-25T14:06:31Z</time>
      </trkpt>
      <trkpt lat="47.07071" lon="2.41073">
        <ele>156</ele>
        <time>2021-08-25T14:06:31Z</time>
      </trkpt>
      <trkpt lat="47.07064" lon="2.41037">
        <ele>155</ele>
        <time>2021-08-25T14:06:31Z</time>
      </trkpt>
      <trkpt lat="47.07064" lon="2.41001">
        <ele>155</ele>
        <time>2021-08-25T14:06:31Z</time>
      </trkpt>
      <trkpt lat="47.07049" lon="2.40966">
        <ele>155</ele>
        <time>2021-08-25T14:06:31Z</time>
      </trkpt>
      <trkpt lat="47.07035" lon="2.40924">
        <ele>155</ele>
        <time>2021-08-25T14:06:31Z</time>
      </trkpt>
      <trkpt lat="47.07026" lon="2.40892">
        <ele>154</ele>
        <time>2021-08-25T14:06:31Z</time>
      </trkpt>
      <trkpt lat="47.07024" lon="2.40888">
        <ele>154</ele>
        <time>2021-08-25T14:06:31Z</time>
      </trkpt>
      <trkpt lat="47.07013" lon="2.40886">
        <ele>153</ele>
        <time>2021-08-25T14:06:31Z</time>
      </trkpt>
      <trkpt lat="47.0699" lon="2.40897">
        <ele>153</ele>
        <time>2021-08-25T14:06:31Z</time>
      </trkpt>
      <trkpt lat="47.06964" lon="2.40912">
        <ele>152</ele>
        <time>2021-08-25T14:06:31Z</time>
      </trkpt>
      <trkpt lat="47.0694" lon="2.40925">
        <ele>152</ele>
        <time>2021-08-25T14:06:31Z</time>
      </trkpt>
      <trkpt lat="47.06924" lon="2.40911">
        <ele>151</ele>
        <time>2021-08-25T14:06:31Z</time>
      </trkpt>
      <trkpt lat="47.06918" lon="2.40875">
        <ele>151</ele>
        <time>2021-08-25T14:06:31Z</time>
      </trkpt>
      <trkpt lat="47.06916" lon="2.40866">
        <ele>150</ele>
        <time>2021-08-25T14:06:31Z</time>
      </trkpt>
      <trkpt lat="47.06907" lon="2.40815">
        <ele>149</ele>
        <time>2021-08-25T14:06:31Z</time>
      </trkpt>
      <trkpt lat="47.06895" lon="2.40762">
        <ele>148</ele>
        <time>2021-08-25T14:06:31Z</time>
      </trkpt>
      <trkpt lat="47.06882" lon="2.40708">
        <ele>146</ele>
        <time>2021-08-25T14:06:31Z</time>
      </trkpt>
      <trkpt lat="47.06874" lon="2.40667">
        <ele>145</ele>
        <time>2021-08-25T14:06:31Z</time>
      </trkpt>
      <trkpt lat="47.06874" lon="2.40645">
        <ele>145</ele>
        <time>2021-08-25T14:06:31Z</time>
      </trkpt>
      <trkpt lat="47.06871" lon="2.40619">
        <ele>146</ele>
        <time>2021-08-25T14:06:31Z</time>
      </trkpt>
      <trkpt lat="47.06868" lon="2.40615">
        <ele>146</ele>
        <time>2021-08-25T14:06:31Z</time>
      </trkpt>
      <trkpt lat="47.06865" lon="2.40613">
        <ele>146</ele>
        <time>2021-08-25T14:06:31Z</time>
      </trkpt>
      <trkpt lat="47.06861" lon="2.40613">
        <ele>146</ele>
        <time>2021-08-25T14:06:31Z</time>
      </trkpt>
      <trkpt lat="47.06857" lon="2.40615">
        <ele>146</ele>
        <time>2021-08-25T14:06:31Z</time>
      </trkpt>
      <trkpt lat="47.06853" lon="2.40617">
        <ele>146</ele>
        <time>2021-08-25T14:06:31Z</time>
      </trkpt>
      <trkpt lat="47.06849" lon="2.40619">
        <ele>146</ele>
        <time>2021-08-25T14:06:31Z</time>
      </trkpt>
      <trkpt lat="47.06845" lon="2.4062">
        <ele>146</ele>
        <time>2021-08-25T14:06:31Z</time>
      </trkpt>
      <trkpt lat="47.06841" lon="2.40624">
        <ele>146</ele>
        <time>2021-08-25T14:06:31Z</time>
      </trkpt>
      <trkpt lat="47.06837" lon="2.40626">
        <ele>146</ele>
        <time>2021-08-25T14:06:31Z</time>
      </trkpt>
      <trkpt lat="47.06832" lon="2.40629">
        <ele>146</ele>
        <time>2021-08-25T14:06:31Z</time>
      </trkpt>
      <trkpt lat="47.06828" lon="2.40632">
        <ele>147</ele>
        <time>2021-08-25T14:06:31Z</time>
      </trkpt>
      <trkpt lat="47.06823" lon="2.40634">
        <ele>147</ele>
        <time>2021-08-25T14:06:31Z</time>
      </trkpt>
      <trkpt lat="47.06818" lon="2.40636">
        <ele>147</ele>
        <time>2021-08-25T14:06:31Z</time>
      </trkpt>
      <trkpt lat="47.06813" lon="2.4064">
        <ele>148</ele>
        <time>2021-08-25T14:06:31Z</time>
      </trkpt>
      <trkpt lat="47.06808" lon="2.40642">
        <ele>148</ele>
        <time>2021-08-25T14:06:31Z</time>
      </trkpt>
      <trkpt lat="47.06804" lon="2.40646">
        <ele>149</ele>
        <time>2021-08-25T14:06:31Z</time>
      </trkpt>
      <trkpt lat="47.06799" lon="2.40649">
        <ele>149</ele>
        <time>2021-08-25T14:06:31Z</time>
      </trkpt>
      <trkpt lat="47.06794" lon="2.40652">
        <ele>149</ele>
        <time>2021-08-25T14:06:31Z</time>
      </trkpt>
      <trkpt lat="47.0679" lon="2.40654">
        <ele>149</ele>
        <time>2021-08-25T14:06:31Z</time>
      </trkpt>
      <trkpt lat="47.06784" lon="2.40658">
        <ele>149</ele>
        <time>2021-08-25T14:06:31Z</time>
      </trkpt>
      <trkpt lat="47.06779" lon="2.40661">
        <ele>149</ele>
        <time>2021-08-25T14:06:31Z</time>
      </trkpt>
      <trkpt lat="47.06774" lon="2.40663">
        <ele>149</ele>
        <time>2021-08-25T14:06:31Z</time>
      </trkpt>
      <trkpt lat="47.06769" lon="2.40667">
        <ele>149</ele>
        <time>2021-08-25T14:06:31Z</time>
      </trkpt>
      <trkpt lat="47.06746" lon="2.40679">
        <ele>149</ele>
        <time>2021-08-25T14:06:31Z</time>
      </trkpt>
      <trkpt lat="47.06731" lon="2.4069">
        <ele>149</ele>
        <time>2021-08-25T14:06:31Z</time>
      </trkpt>
      <trkpt lat="47.0673" lon="2.4069">
        <ele>149</ele>
        <time>2021-08-25T14:06:31Z</time>
      </trkpt>
    </trkseg>
  </trk>
</gpx>